Date StartTime U_cm/s V_cm/s W_cm/s Ustd_cm/s Vstd_cm/s Wstd_cm/s Uvar_(cm/s)^2 Vvar_(cm/s)^2 Wvar_(cm/s)^2 KE_(m/s)^2 TurbulentKE_(m/s)^2 HorizWindSpeed_cm/s FrictionSpeec_cm/s DragCoef SpeedOfSound_m/s SonicTemperature_C Pressure_mb 
09/02/2013  00:00:00     -187.583      -57.234        4.555       89.049       72.527       45.440     7929.694     5260.194     2064.828        2.687        0.763      196.120       49.607        0.064      345.542       23.144      860.700
09/02/2013  00:01:00     -224.679      -24.703       -4.361       81.606       64.661       35.681     6659.549     4181.066     1273.102        3.161        0.606      226.033       31.929        0.020      345.541       23.143      860.705
09/02/2013  00:02:00     -297.789      -24.502      -33.418       49.005       52.689       38.845     2401.521     2776.156     1508.907        4.854        0.334      298.796       28.617        0.009      345.550       23.155      860.697
09/02/2013  00:03:00     -195.851      -77.939       -8.183       79.372       68.697       45.328     6299.935     4719.279     2054.652        2.878        0.654      210.789       46.235        0.048      345.499       23.070      860.691
09/02/2013  00:04:00     -181.818      -34.489       -7.426       78.233       63.682       33.254     6120.381     4055.338     1105.852        2.279        0.564      185.060       33.739        0.033      345.473       23.025      860.708
09/02/2013  00:05:00     -267.760      -87.745       -5.383       96.895       68.192       47.315     9388.583     4650.212     2238.690        4.785        0.814      281.770       50.102        0.032      345.499       23.069      860.702
09/02/2013  00:06:00     -250.587        8.539      -13.799      135.814      117.528       49.773    18445.549    13812.901     2477.394        4.889        1.737      250.733       23.549        0.009      345.484       23.043      860.666
09/02/2013  00:07:00     -233.912      -89.253       -1.639       84.584       72.392       34.891     7154.517     5240.637     1217.405        3.815        0.681      250.362       34.679        0.019      345.415       22.925      860.631
09/02/2013  00:08:00     -267.235      -84.428       -2.044      139.746      104.251       61.415    19528.821    10868.297     3771.829        5.635        1.708      280.255       67.959        0.059      345.398       22.896      860.626
09/02/2013  00:09:00     -251.087      -83.132       -9.967      122.435       95.704       47.287    14990.351     9159.174     2236.041        4.821        1.319      264.491       44.608        0.028      345.396       22.891      860.657
09/02/2013  00:10:00     -175.465      -20.014      -10.280       87.916       79.737       45.157     7729.234     6358.028     2039.150        2.371        0.806      176.603       31.548        0.032      345.399       22.899      860.654
09/02/2013  00:11:00     -271.639      -62.060       -7.838      119.276      107.651       50.998    14226.860    11588.812     2600.803        5.305        1.421      278.638       54.251        0.038      345.414       22.923      860.622
09/02/2013  00:12:00     -307.712     -140.081      -18.653      160.239      103.581       64.661    25676.590    10728.981     4181.055        7.761        2.029      338.097       80.325        0.056      345.405       22.908      860.614
09/02/2013  00:13:00     -387.155      -85.755      -16.928      111.198      115.947       61.583    12364.928    13443.657     3792.518        9.356        1.480      396.539       66.168        0.028      345.422       22.938      860.630
09/02/2013  00:14:00     -216.322      -63.257        4.049      100.770      102.788       53.965    10154.510    10565.421     2912.209        3.722        1.182      225.381       57.833        0.066      345.408       22.914      860.669
09/02/2013  00:15:00     -313.460      -54.901      -10.016       92.220       79.840       45.248     8504.562     6374.421     2047.345        5.915        0.846      318.231       43.694        0.019      345.380       22.865      860.673
09/02/2013  00:16:00     -157.427      -53.994       -6.863       91.318       75.570       37.461     8338.985     5710.763     1403.314        2.160        0.773      166.429       40.033        0.058      345.355       22.824      860.640
09/02/2013  00:17:00     -179.183      -54.940        8.503      113.152       93.204       57.667    12803.266     8687.025     3325.504        3.000        1.241      187.416       50.182        0.072      345.365       22.840      860.605
09/02/2013  00:18:00     -370.207        2.581      -33.194      128.279       96.026       51.149    16455.406     9221.084     2616.252        8.322        1.415      370.216       46.617        0.016      345.470       23.018      860.628
09/02/2013  00:19:00     -305.451       -8.624       -9.812      109.548       97.401       60.549    12000.792     9486.900     3666.175        5.931        1.258      305.573       60.531        0.039      345.422       22.937      860.642
09/02/2013  00:20:00     -186.244      -61.481       -5.589       85.480       91.608       43.629     7306.887     8392.079     1903.506        2.805        0.880      196.130       41.255        0.044      345.383       22.871      860.638
09/02/2013  00:21:00     -276.520      -85.373      -17.099       86.868       79.233       42.787     7545.992     6277.806     1830.722        4.985        0.783      289.399       45.642        0.025      345.423       22.939      860.615
09/02/2013  00:22:00     -162.781      -49.886       10.391       81.623       91.769       45.397     6662.307     8421.561     2060.894        2.312        0.857      170.254       41.358        0.059      345.401       22.904      860.572
09/02/2013  00:23:00     -290.995     -132.060      -12.704      112.858      133.756       58.299    12736.975    17890.567     3398.823        6.815        1.701      319.559       58.522        0.034      345.400       22.898      860.533
09/02/2013  00:24:00     -337.757     -100.977      -18.960      126.229       96.548       66.655    15933.849     9321.497     4442.916        7.716        1.485      352.528       67.874        0.037      345.373       22.854      860.534
09/02/2013  00:25:00     -332.883      -88.385      -14.892      103.989      103.374       53.981    10813.717    10686.146     2913.982        7.162        1.221      344.417       53.525        0.024      345.362       22.834      860.526
09/02/2013  00:26:00     -316.833      -71.579      -17.350      121.504      122.110       63.830    14763.145    14910.770     4074.273        6.977        1.687      324.818       54.941        0.029      345.350       22.812      860.539
09/02/2013  00:27:00     -175.138      -24.482        5.523      152.847       99.744       56.291    23362.186     9948.925     3168.721        3.388        1.824      176.841       68.191        0.149      345.350       22.814      860.567
09/02/2013  00:28:00     -300.679      -85.342       -7.350       96.674      111.813       52.770     9345.860    12502.257     2784.639        6.118        1.232      312.555       49.897        0.025      345.372       22.851      860.579
09/02/2013  00:29:00     -232.687      -94.500       -7.759       83.079       83.816       43.578     6902.148     7025.196     1898.999        3.948        0.791      251.144       36.711        0.021      345.356       22.823      860.578
09/02/2013  00:30:00     -252.856      -65.805      -10.954       98.750       82.888       52.428     9751.562     6870.502     2748.717        4.387        0.969      261.278       50.287        0.037      345.322       22.764      860.548
09/02/2013  00:31:00     -274.910      -63.604       -6.298       99.889       71.835       49.392     9977.867     5160.272     2439.617        4.862        0.879      282.172       54.062        0.037      345.311       22.746      860.520
09/02/2013  00:32:00     -430.477      -73.133      -33.295      107.194       90.460       50.805    11490.613     8182.960     2581.124       10.701        1.113      436.645       54.246        0.015      345.319       22.759      860.494
09/02/2013  00:33:00     -364.943      -84.689      -20.470      118.900       93.216       51.037    14137.153     8689.311     2604.811        8.310        1.272      374.640       55.638        0.022      345.377       22.859      860.489
09/02/2013  00:34:00     -250.416      -79.677       -8.392      135.000       97.620       58.343    18224.885     9529.657     3403.929        5.014        1.558      262.786       63.948        0.059      345.392       22.887      860.482
09/02/2013  00:35:00     -294.741      -87.346        7.798      124.555       83.377       49.467    15513.841     6951.714     2446.993        5.973        1.246      307.411       58.849        0.037      345.349       22.811      860.506
09/02/2013  00:36:00     -196.991      -44.093        2.527       88.616       79.030       43.324     7852.877     6245.668     1876.998        2.836        0.799      201.865       46.564        0.053      345.380       22.865      860.519
09/02/2013  00:37:00     -251.808      -34.494      -13.426       85.651       79.522       49.046     7336.090     6323.705     2405.513        4.042        0.803      254.160       42.995        0.029      345.408       22.913      860.533
09/02/2013  00:38:00     -258.559      -33.368      -19.644       80.774       56.081       34.496     6524.475     3145.092     1189.969        3.960        0.543      260.703       35.453        0.018      345.411       22.917      860.546
09/02/2013  00:39:00     -178.178      -19.660       -4.362       63.945       51.183       28.107     4088.974     2619.675      789.999        1.982        0.375      179.259       29.640        0.027      345.390       22.884      860.536
09/02/2013  00:40:00     -322.200       36.003      -29.841      116.673       92.900       47.740    13612.679     8630.467     2279.066        6.526        1.226      324.206       53.183        0.027      345.508       23.084      860.502
09/02/2013  00:41:00     -293.753      -26.382      -13.535       77.499       87.923       53.172     6006.044     7730.532     2827.250        5.186        0.828      294.935       43.472        0.022      345.498       23.067      860.477
09/02/2013  00:42:00     -236.003      -48.719      -18.957       62.687       77.288       44.748     3929.639     5973.420     2002.357        3.517        0.595      240.979       28.223        0.014      345.519       23.102      860.475
09/02/2013  00:43:00     -319.229       13.346      -34.123      137.231       89.949       47.870    18832.341     8090.863     2291.499        6.623        1.461      319.508       49.334        0.024      345.561       23.174      860.483
09/02/2013  00:44:00     -192.548      -24.228       -9.485      114.617       78.349       50.756    13137.143     6138.590     2576.215        2.980        1.093      194.066       48.304        0.062      345.544       23.147      860.491
09/02/2013  00:45:00     -149.032      -61.924       -7.329      112.338       65.560       46.528    12619.900     4298.064     2164.888        2.259        0.954      161.385       51.259        0.101      345.518       23.103      860.496
09/02/2013  00:46:00     -299.455      -62.033       -6.374      130.254       90.056       57.556    16966.031     8110.001     3312.692        6.097        1.419      305.812       61.070        0.040      345.534       23.128      860.479
09/02/2013  00:47:00     -318.073      -29.682      -18.849      108.909       85.553       54.956    11861.153     7319.247     3020.174        6.230        1.110      319.455       62.867        0.039      345.586       23.219      860.468
09/02/2013  00:48:00     -283.964      -67.007      -11.090      134.318       80.368       55.205    18041.212     6459.089     3047.636        5.639        1.377      291.762       56.727        0.038      345.603       23.247      860.458
09/02/2013  00:49:00     -299.023      -38.052      -43.940       87.239       74.681       46.023     7610.598     5577.179     2118.137        5.405        0.765      301.434       37.567        0.016      345.652       23.330      860.464
09/02/2013  00:50:00     -185.722      -96.987        1.188       89.368       67.019       42.124     7986.558     4491.566     1774.469        2.907        0.713      209.522       49.219        0.055      345.620       23.277      860.466
09/02/2013  00:51:00     -193.816      -43.160      -13.427       85.505       71.691       42.131     7311.021     5139.647     1775.013        2.691        0.711      198.563       47.178        0.056      345.623       23.282      860.490
09/02/2013  00:52:00     -143.064      -71.863       -1.829       84.215       58.943       40.738     7092.140     3474.235     1659.608        1.893        0.611      160.099       42.599        0.071      345.607       23.257      860.507
09/02/2013  00:53:00     -155.225      -45.286       -5.837       65.407       51.993       38.425     4278.129     2703.276     1476.469        1.732        0.423      161.696       34.325        0.045      345.613       23.266      860.539
09/02/2013  00:54:00      -89.030      -20.734        4.543       54.910       48.370       30.482     3015.079     2339.667      929.175        0.733        0.314       91.412       27.743        0.092      345.599       23.244      860.558
09/02/2013  00:55:00     -131.191       40.594       -4.539       58.024       45.473       30.290     3366.749     2067.810      917.496        1.261        0.318      137.328       30.322        0.049      345.618       23.278      860.563
09/02/2013  00:56:00      -69.800      -52.166       -1.563       48.636       41.268       28.173     2365.468     1703.039      793.739        0.623        0.243       87.139       21.385        0.060      345.617       23.277      860.569
09/02/2013  00:57:00     -116.743        9.446        6.692       61.825       52.151       36.155     3822.378     2719.679     1307.205        1.080        0.392      117.125       28.627        0.060      345.609       23.262      860.577
09/02/2013  00:58:00      -58.691      -58.104       10.484       41.155       49.875       26.018     1693.694     2487.468      676.933        0.589        0.243       82.588       20.922        0.064      345.607       23.258      860.581
09/02/2013  00:59:00      -18.867      -20.074       15.515       40.802       18.088       24.614     1664.789      327.169      605.862        0.180        0.130       27.548       26.538        0.928      345.578       23.207      860.573
09/02/2013  01:00:00      -77.389       -0.077        6.968       50.661       42.913       23.941     2566.528     1841.495      573.179        0.551        0.249       77.389       17.659        0.052      345.553       23.167      860.584
09/02/2013  01:01:00      -41.846       -8.528        0.034       44.455       26.200       18.502     1976.241      686.458      342.335        0.241        0.150       42.706       18.624        0.190      345.582       23.216      860.605
09/02/2013  01:02:00      -40.554      -12.030      -10.172       29.725       53.094       22.665      883.570     2818.943      513.706        0.305        0.211       42.301       15.420        0.133      345.574       23.201      860.609
09/02/2013  01:03:00        9.377       42.283        1.977       15.880       47.092       16.921      252.169     2217.664      286.325        0.232        0.138       43.311       15.622        0.130      345.538       23.141      860.605
09/02/2013  01:04:00       82.194       58.512       10.874       36.125       27.809       25.445     1305.035      773.325      647.461        0.651        0.136      100.894       17.132        0.029      345.517       23.105      860.609
09/02/2013  01:05:00       95.516       73.021        8.312       36.767       22.832       21.727     1351.810      521.306      472.045        0.843        0.117      120.230       14.791        0.015      345.493       23.064      860.627
09/02/2013  01:06:00      148.316       91.852       33.664       36.270       30.765       31.387     1315.505      946.500      985.127        1.741        0.162      174.455       14.404        0.007      345.503       23.078      860.636
09/02/2013  01:07:00      137.804       68.763       -1.098       42.183       33.149       27.747     1779.395     1098.878      769.908        1.368        0.182      154.008       15.836        0.011      345.476       23.032      860.649
09/02/2013  01:08:00      107.349       64.787       10.518       32.719       23.889       25.258     1070.532      570.702      637.944        0.906        0.114      125.384        7.598        0.004      345.391       22.887      860.651
09/02/2013  01:09:00       94.462       49.326       14.612       45.893       34.574       24.110     2106.198     1195.376      581.306        0.773        0.194      106.565       13.650        0.016      345.375       22.862      860.661
09/02/2013  01:10:00       33.467       45.081       -0.564       37.382       34.989       24.332     1397.389     1224.248      592.041        0.318        0.161       56.145       19.352        0.119      345.398       22.899      860.691
09/02/2013  01:11:00        8.604       51.835       -0.173       22.265       37.368       20.116      495.736     1396.342      404.662        0.253        0.115       52.544       19.675        0.140      345.408       22.916      860.744
09/02/2013  01:12:00       47.994       20.741       15.254       24.923       13.218       15.367      621.137      174.717      236.142        0.200        0.052       52.284       11.519        0.049      345.400       22.904      860.791
09/02/2013  01:13:00      148.878       82.289       30.717       44.453       48.035       31.698     1976.069     2307.319     1004.772        1.758        0.264      170.106       23.597        0.019      345.335       22.792      860.815
09/02/2013  01:14:00      132.868       86.943       31.832       38.088       25.857       28.248     1450.710      668.608      797.926        1.457        0.146      158.786       17.189        0.012      345.254       22.654      860.817
09/02/2013  01:15:00      136.807       88.764       40.627       48.932       37.027       38.569     2394.355     1370.989     1487.585        1.675        0.263      163.081       18.115        0.012      345.218       22.589      860.797
09/02/2013  01:16:00      125.228       49.283       13.371       50.712       37.621       33.210     2571.715     1415.374     1102.923        1.169        0.255      134.577       23.545        0.031      345.186       22.533      860.770
09/02/2013  01:17:00      140.984       88.063       18.596       46.995       41.458       33.387     2208.526     1718.772     1114.661        1.651        0.252      166.228       21.634        0.017      345.236       22.619      860.744
09/02/2013  01:18:00       84.849       60.608       14.759       65.325       30.590       28.890     4267.361      935.771      834.618        0.856        0.302      104.272       15.146        0.021      345.235       22.618      860.729
09/02/2013  01:19:00        7.847        0.361       13.758       28.744       46.630       25.568      826.226     2174.310      653.709        0.195        0.183        7.855       14.117        3.230      345.117       22.418      860.719
09/02/2013  01:20:00       -0.462       -8.460        3.073       14.394       16.282       13.819      207.189      265.110      190.962        0.037        0.033        8.473        9.723        1.317      345.104       22.397      860.722
09/02/2013  01:21:00       -2.953       -9.290        4.857       12.833       10.632       10.075      164.683      113.035      101.515        0.025        0.019        9.748       11.328        1.351      345.146       22.470      860.718
09/02/2013  01:22:00      -31.237      -11.035       10.732       16.371       15.219       10.587      268.017      231.604      112.087        0.091        0.031       33.129        9.353        0.080      345.170       22.509      860.730
09/02/2013  01:23:00       22.561       -4.223        4.592       17.985       16.165       15.789      323.461      261.317      249.285        0.069        0.042       22.953       11.780        0.263      344.808       21.890      860.743
09/02/2013  01:24:00        0.534       -8.716        0.042       11.061       13.572       11.317      122.343      184.192      128.072        0.026        0.022        8.732        8.392        0.924      345.056       22.314      860.746
09/02/2013  01:25:00       14.404       30.742      -10.446       17.502       23.251       10.324      306.325      540.606      106.581        0.111        0.048       33.950        5.949        0.031      345.259       22.662      860.746
09/02/2013  01:26:00        5.192       48.954       -7.545       20.125       14.501       15.909      405.000      210.289      253.112        0.167        0.043       49.228        8.787        0.032      345.286       22.709      860.741
09/02/2013  01:27:00        0.201       86.531      -36.107       27.878       28.374       16.602      777.195      805.096      275.639        0.532        0.093       86.531        9.061        0.011      345.343       22.806      860.720
09/02/2013  01:28:00       53.415       35.233        0.477       29.559       23.462       18.296      873.728      550.472      334.738        0.293        0.088       63.988        6.019        0.009      345.285       22.707      860.688
09/02/2013  01:29:00       40.430       33.046       29.055       39.546       26.561       28.012     1563.876      705.510      784.689        0.331        0.153       52.217       18.953        0.132      345.167       22.504      860.668
09/02/2013  01:30:00       31.841       18.953        5.886       42.797       13.086       17.853     1831.596      171.231      318.737        0.186        0.116       37.055       15.291        0.170      345.226       22.605      860.664
09/02/2013  01:31:00       33.059        3.846        1.239       29.494       22.410       15.710      869.922      502.196      246.812        0.136        0.081       33.282       12.626        0.144      345.247       22.640      860.669
09/02/2013  01:32:00       67.206       71.813       18.036       43.947       43.883       35.863     1931.337     1925.685     1286.184        0.757        0.257       98.356       22.548        0.053      345.277       22.693      860.686
09/02/2013  01:33:00       97.092       72.978        5.161       42.496       23.737       20.967     1805.930      563.426      439.606        0.879        0.140      121.461       17.203        0.020      345.293       22.718      860.725
09/02/2013  01:34:00       81.018       50.634        7.918       19.990       20.395       20.388      399.609      415.953      415.673        0.521        0.062       95.539        4.791        0.003      345.282       22.700      860.749
09/02/2013  01:35:00       56.123       38.350       10.875       15.535       21.106       14.021      241.322      445.482      196.575        0.281        0.044       67.974        8.124        0.014      345.389       22.882      860.754
09/02/2013  01:36:00       15.403       43.618       -1.984       17.582       26.415       14.857      309.112      697.746      220.735        0.169        0.061       46.258       16.064        0.121      345.351       22.817      860.727
09/02/2013  01:37:00        4.270       42.744       -3.514       14.869       13.658       10.566      221.095      186.528      111.636        0.119        0.026       42.956        8.584        0.040      345.328       22.779      860.698
09/02/2013  01:38:00       23.079       12.511       -0.155       10.082       10.084        8.046      101.640      101.693       64.741        0.048        0.013       26.252        5.387        0.042      345.320       22.765      860.696
09/02/2013  01:39:00       39.706       20.375        3.947       11.126       16.726        7.564      123.788      279.773       57.210        0.123        0.023       44.629        5.218        0.014      345.338       22.798      860.717
09/02/2013  01:40:00       53.248       18.112       13.380       15.841       11.192       13.452      250.922      125.270      180.945        0.195        0.028       56.244        7.439        0.017      345.292       22.717      860.732
09/02/2013  01:41:00       51.715       36.792       18.311       10.701        7.638       10.613      114.502       58.341      112.645        0.232        0.014       63.467        2.141        0.001      345.355       22.825      860.713
09/02/2013  01:42:00       32.805       31.201       21.665       17.201       13.173       15.987      295.885      173.530      255.575        0.162        0.036       45.273       12.036        0.071      345.312       22.750      860.689
09/02/2013  01:43:00       20.476       12.803       26.754       28.098       17.043       12.112      789.485      290.476      146.696        0.126        0.061       24.149       14.318        0.352      345.313       22.755      860.675
09/02/2013  01:44:00       -3.621        9.530       29.054       12.171       21.444        9.903      148.130      459.835       98.076        0.083        0.035       10.195       12.594        1.526      345.422       22.942      860.679
09/02/2013  01:45:00       18.480       25.065       15.755       24.424       12.127       12.602      596.522      147.054      158.808        0.106        0.045       31.141        8.475        0.074      345.320       22.765      860.679
09/02/2013  01:46:00      -14.858       45.800       -3.824        9.824        9.387        6.942       96.506       88.117       48.198        0.128        0.012       48.150        4.915        0.010      345.313       22.753      860.672
09/02/2013  01:47:00      -43.407       39.190       -9.586       12.014        8.285        4.773      144.334       68.644       22.781        0.187        0.012       58.481        3.584        0.004      345.282       22.700      860.638
09/02/2013  01:48:00      -52.195       43.577       -9.071       12.551       15.034        8.836      157.519      226.029       78.077        0.258        0.023       67.994        6.121        0.008      345.313       22.753      860.592
09/02/2013  01:49:00      -37.988       37.796       -8.199       17.281       14.415        8.635      298.623      207.787       74.561        0.176        0.029       53.588        6.775        0.016      345.276       22.689      860.569
09/02/2013  01:50:00       -6.557       44.625        1.057       31.452       26.699       20.638      989.240      712.827      425.932        0.208        0.106       45.104       22.044        0.239      345.290       22.715      860.580
09/02/2013  01:51:00        8.137       17.410       11.153       18.708       19.633       15.386      349.976      385.463      236.724        0.073        0.049       19.218       12.800        0.444      345.276       22.690      860.583
09/02/2013  01:52:00       22.621       41.270       -6.366       13.881       18.295        7.571      192.678      334.698       57.318        0.142        0.029       47.064        4.784        0.010      345.273       22.689      860.569
09/02/2013  01:53:00       18.844        6.939       -0.002        9.897       10.772        7.901       97.960      116.031       62.419        0.034        0.014       20.081        6.336        0.100      345.263       22.665      860.535
09/02/2013  01:54:00        1.795        1.588        2.457       14.121        5.059        7.579      199.416       25.597       57.442        0.015        0.014        2.397        5.014        4.376      345.273       22.685      860.521
09/02/2013  01:55:00      -67.078        0.239       -6.562       20.093       14.684        8.911      403.726      215.612       79.406        0.262        0.035       67.079        9.072        0.018      345.212       22.580      860.527
09/02/2013  01:56:00      -84.372      -42.552       -3.758       21.740       19.936       10.003      472.607      397.448      100.069        0.496        0.049       94.495        4.239        0.002      345.189       22.540      860.549
09/02/2013  01:57:00      -40.372      -45.554        4.699       43.072       25.759       21.061     1855.229      663.520      443.549        0.334        0.148       60.870       20.764        0.116      345.234       22.618      860.565
09/02/2013  01:58:00      -85.300      -12.415       -3.285       34.058       41.509       18.244     1159.971     1722.978      332.857        0.533        0.161       86.199       16.865        0.038      345.180       22.528      860.569
09/02/2013  01:59:00      -68.314       -4.981       -4.081       38.230       18.306       12.849     1461.533      335.108      165.084        0.333        0.098       68.495       16.361        0.057      345.130       22.442      860.562
09/02/2013  02:00:00        1.100       -1.743        9.720        7.134        6.293        5.473       50.898       39.600       29.956        0.011        0.006        2.062        2.260        1.201      345.083       22.362      860.547
09/02/2013  02:01:00        8.123       -0.525        5.689        7.356        5.736        5.449       54.115       32.900       29.693        0.011        0.006        8.140        3.332        0.168      345.062       22.325      860.548
09/02/2013  02:02:00       11.239        8.373        8.870        6.767        5.549        4.920       45.790       30.793       24.211        0.019        0.005       14.015        4.040        0.083      345.006       22.230      860.570
09/02/2013  02:03:00       24.511       29.155        9.505        7.903        6.108        6.474       62.459       37.313       41.916        0.084        0.007       38.089        4.158        0.012      345.070       22.338      860.596
09/02/2013  02:04:00       34.582       20.316        4.515       12.068        9.206        6.740      145.647       84.743       45.425        0.095        0.014       40.107        5.605        0.020      345.080       22.356      860.610
09/02/2013  02:05:00       27.544       10.096        1.074       11.003        7.943        8.509      121.057       63.096       72.411        0.056        0.013       29.336        5.525        0.035      345.083       22.361      860.620
09/02/2013  02:06:00       42.669       26.162        0.407        8.604        7.106        6.505       74.034       50.494       42.315        0.134        0.008       50.050        4.104        0.007      345.121       22.425      860.621
09/02/2013  02:07:00       74.472       23.160        2.790       14.729       12.933       11.139      216.945      167.250      124.081        0.330        0.025       77.991        6.042        0.006      345.094       22.378      860.611
09/02/2013  02:08:00       81.233       26.531       15.682       24.500       17.523       19.216      600.272      307.065      369.257        0.441        0.064       85.456       11.279        0.017      345.108       22.401      860.607
09/02/2013  02:09:00       79.659       31.477       11.226       26.629       23.342       23.604      709.081      544.842      557.134        0.464        0.091       85.652       12.645        0.022      345.035       22.278      860.593
09/02/2013  02:10:00      106.126       40.955       13.250       26.233       19.464       19.340      688.146      378.861      374.026        0.728        0.072      113.754       14.063        0.015      345.040       22.288      860.589
09/02/2013  02:11:00       91.422       47.454        3.926       31.198       24.702       16.022      973.310      610.177      256.719        0.623        0.092      103.004        8.928        0.008      344.994       22.209      860.586
09/02/2013  02:12:00       59.003       43.373       12.381       26.607       21.808       18.765      707.907      475.587      352.117        0.353        0.077       73.229       11.661        0.025      344.895       22.037      860.583
09/02/2013  02:13:00       72.385       43.242       15.331       15.139       12.951       11.239      229.186      167.722      126.307        0.393        0.026       84.317        6.143        0.005      344.898       22.044      860.582
09/02/2013  02:14:00       68.426       37.099       13.300       19.044       12.454       14.966      362.677      155.107      223.980        0.349        0.037       77.837        8.035        0.011      344.968       22.163      860.602
09/02/2013  02:15:00       54.230       21.378       16.118       16.327       17.708       13.317      266.569      313.578      177.348        0.221        0.038       58.291       10.951        0.035      344.897       22.041      860.639
09/02/2013  02:16:00       29.538       13.414       17.179       27.752       13.045       13.735      770.191      170.175      188.651        0.124        0.056       32.441       12.327        0.144      344.879       22.012      860.667
09/02/2013  02:17:00       51.966       18.572       11.170       17.539       10.090       13.974      307.606      101.817      195.277        0.189        0.030       55.185        6.692        0.015      344.896       22.038      860.676
09/02/2013  02:18:00       59.824        8.206        7.515       17.066       22.946       15.802      291.239      526.539      249.692        0.238        0.053       60.384       10.442        0.030      344.945       22.124      860.653
09/02/2013  02:19:00       36.933       -9.312        1.527       24.461       24.287       20.957      598.361      589.882      439.210        0.154        0.081       38.089        9.725        0.065      344.958       22.147      860.628
09/02/2013  02:20:00       30.725       36.331        6.788       31.126       20.405       13.694      968.805      416.378      187.515        0.194        0.079       47.582       13.704        0.083      344.973       22.172      860.597
09/02/2013  02:21:00       31.369       41.840        0.820       14.992       10.676       10.248      224.774      113.981      105.030        0.159        0.022       52.293        7.348        0.020      344.969       22.166      860.561
09/02/2013  02:22:00       10.421       70.536       -8.148       14.780       15.497       12.006      218.461      240.171      144.140        0.288        0.030       71.302        8.043        0.013      344.985       22.193      860.539
09/02/2013  02:23:00        5.380       77.760      -12.225       10.759       14.573        9.476      115.746      212.371       89.804        0.332        0.021       77.945        6.543        0.007      345.044       22.294      860.540
09/02/2013  02:24:00       17.572       84.613      -10.464       17.017       21.784       12.922      289.581      474.547      166.966        0.425        0.047       86.418       10.051        0.014      344.960       22.148      860.561
09/02/2013  02:25:00       23.465       32.545        6.739       24.965       21.473       15.083      623.237      461.074      227.496        0.148        0.066       40.123       11.308        0.079      344.955       22.142      860.582
09/02/2013  02:26:00       32.375       15.034        9.229       24.564       15.052       18.525      603.384      226.557      343.179        0.127        0.059       35.696        8.212        0.053      344.908       22.061      860.593
09/02/2013  02:27:00       25.035       22.166       17.067       17.420       24.780       18.712      303.439      614.045      350.138        0.134        0.063       33.438        7.113        0.045      344.634       21.592      860.589
09/02/2013  02:28:00       32.489       26.080       15.899       22.942       28.554       25.894      526.335      815.309      670.498        0.200        0.101       41.662        9.726        0.054      344.606       21.543      860.578
09/02/2013  02:29:00       19.933       12.292       26.221       19.641       23.852       18.645      385.778      568.907      347.624        0.127        0.065       23.418       11.158        0.227      344.532       21.417      860.565
09/02/2013  02:30:00       11.121        2.820       -8.427       17.861       21.096       17.255      318.998      445.047      297.745        0.063        0.053       11.473        9.755        0.723      344.427       21.238      860.551
09/02/2013  02:31:00       -9.450       14.947       11.764       11.045       16.571       13.927      121.983      274.583      193.951        0.052        0.030       17.684        8.127        0.211      344.409       21.209      860.546
09/02/2013  02:32:00       29.203        8.907       10.656       16.776       13.274       16.797      281.417      176.187      282.135        0.089        0.037       30.531        9.557        0.098      344.464       21.302      860.532
09/02/2013  02:33:00       11.375       29.370        5.378       16.075       14.843       14.341      258.414      220.323      205.652        0.085        0.034       31.496        9.643        0.094      344.408       21.205      860.525
09/02/2013  02:34:00       -2.228       35.879        1.039        6.594        9.405        6.522       43.485       88.463       42.543        0.073        0.009       35.948        5.330        0.022      344.865       21.991      860.513
09/02/2013  02:35:00       -1.918       59.354        1.527       11.649       12.838        7.619      135.693      164.810       58.048        0.194        0.018       59.385        5.179        0.008      344.897       22.044      860.504
09/02/2013  02:36:00       18.206       49.833        0.829       15.567       20.166       12.396      242.323      406.648      153.662        0.181        0.040       53.054       11.632        0.048      344.818       21.904      860.494
09/02/2013  02:37:00        8.014       60.852       -2.988       17.356       15.851       10.444      301.242      251.239      109.077        0.222        0.033       61.377       10.048        0.027      344.896       22.040      860.489
09/02/2013  02:38:00      -20.494       49.902       -6.351       18.836       22.354        6.922      354.791      499.720       47.911        0.193        0.045       53.947        9.064        0.028      344.883       22.018      860.482
09/02/2013  02:39:00      -77.346       24.837       -7.719       22.036       14.713       15.058      485.600      216.478      226.733        0.379        0.046       81.236       12.911        0.025      344.736       21.767      860.466
09/02/2013  02:40:00     -103.968        7.906       -4.943       26.595       21.265       16.780      707.293      452.213      281.565        0.617        0.072      104.268       16.205        0.024      344.720       21.738      860.441
09/02/2013  02:41:00      -82.036       -4.309       -8.156       24.497       19.959       12.531      600.116      398.352      157.023        0.398        0.058       82.149        7.005        0.007      344.709       21.721      860.443
09/02/2013  02:42:00      -72.353      -13.701       -3.837       25.408       20.746       15.331      645.549      430.402      235.027        0.337        0.066       73.638       13.803        0.035      344.718       21.737      860.468
09/02/2013  02:43:00      -72.968       -4.426      -11.717       16.111       25.079       11.065      259.570      628.940      122.426        0.325        0.051       73.102        9.388        0.016      344.748       21.788      860.490
09/02/2013  02:44:00      -43.849      -15.711       -0.162       19.977       11.994        9.887      399.096      143.866       97.752        0.141        0.032       46.579       11.444        0.060      344.737       21.768      860.504
09/02/2013  02:45:00      -48.875      -14.076       -0.336        9.381        8.668        7.599       87.999       75.137       57.738        0.140        0.011       50.862        5.430        0.011      344.760       21.808      860.498
09/02/2013  02:46:00      -22.115        2.706        2.297       16.532       10.355        8.393      273.311      107.230       70.445        0.048        0.023       22.280        9.326        0.175      344.740       21.775      860.486
09/02/2013  02:47:00       -6.564       19.930        4.920        9.746       16.397        7.521       94.980      268.847       56.567        0.044        0.021       20.983        7.469        0.127      344.668       21.650      860.475
09/02/2013  02:48:00       13.411       36.319       -6.138       17.169       16.546       13.239      294.765      273.756      175.264        0.114        0.037       38.716       11.693        0.091      344.665       21.644      860.461
09/02/2013  02:49:00        9.219       53.874       -9.903       17.794       14.077       12.825      316.628      198.159      164.476        0.188        0.034       54.657        7.713        0.020      344.604       21.541      860.459
09/02/2013  02:50:00       -9.210       26.744       -5.767       16.340       15.894        5.541      267.011      252.629       30.701        0.069        0.028       28.286        5.302        0.035      344.608       21.550      860.451
09/02/2013  02:51:00      -22.915        6.562       -3.070       15.121        9.258        6.511      228.639       85.714       42.393        0.047        0.018       23.836        6.927        0.084      344.638       21.600      860.447
09/02/2013  02:52:00      -48.379       -6.253       -7.593       14.842       20.220        9.599      220.287      408.857       92.146        0.158        0.036       48.782        4.485        0.008      344.709       21.720      860.451
09/02/2013  02:53:00      -55.215      -12.268      -10.658       13.682       13.261        7.911      187.189      175.849       62.584        0.187        0.021       56.562        2.441        0.002      344.671       21.653      860.464
09/02/2013  02:54:00      -45.507      -22.267       -7.182        8.041        8.242        6.363       64.662       67.925       40.484        0.140        0.009       50.663        1.998        0.002      344.691       21.691      860.459
09/02/2013  02:55:00      -31.811      -11.467       -5.989       11.188        9.123        5.209      125.167       83.221       27.136        0.071        0.012       33.815        3.334        0.010      344.664       21.643      860.464
09/02/2013  02:56:00        9.445      -30.686        1.939       25.865       33.652       18.528      669.019     1132.449      343.285        0.159        0.107       32.107       22.372        0.486      344.742       21.774      860.483
09/02/2013  02:57:00       56.109      -56.144       -1.420       50.093       56.060       33.860     2509.300     3142.738     1146.498        0.655        0.340       79.374       32.973        0.173      344.736       21.763      860.495
09/02/2013  02:58:00       59.638      -66.596        4.539       37.542       53.828       28.006     1409.375     2897.503      784.357        0.655        0.255       89.396       24.404        0.075      344.654       21.626      860.477
09/02/2013  02:59:00       19.062      -48.132        7.436       20.933       23.084       21.563      438.202      532.877      464.982        0.209        0.072       51.769       14.189        0.075      344.681       21.671      860.455
09/02/2013  03:00:00       20.048        6.827        0.879       24.411       20.241       18.818      595.905      409.680      354.123        0.090        0.068       21.179       10.073        0.226      344.736       21.765      860.418
09/02/2013  03:01:00       21.899       39.053        7.017       20.449       21.336       17.705      418.150      455.208      313.471        0.162        0.059       44.774       14.132        0.100      344.745       21.781      860.374
09/02/2013  03:02:00        0.253       47.800       -7.580       19.372       21.046       13.938      375.286      442.941      194.268        0.168        0.051       47.801       13.349        0.078      344.691       21.688      860.320
09/02/2013  03:03:00       -5.469       86.223      -11.056       16.562       18.004       10.545      274.298      324.139      111.200        0.415        0.035       86.396        7.873        0.008      344.745       21.780      860.282
09/02/2013  03:04:00        0.231       80.190      -11.643       10.079       13.266        7.732      101.591      175.982       59.783        0.345        0.017       80.190        4.003        0.002      344.774       21.833      860.263
09/02/2013  03:05:00       10.329       59.237       -3.949       12.911       16.701       10.843      166.693      278.918      117.568        0.210        0.028       60.130        9.590        0.025      344.733       21.760      860.253
09/02/2013  03:06:00       21.147       23.884        4.444       16.593       13.180       10.810      275.325      173.711      116.851        0.080        0.028       31.901        8.309        0.068      344.656       21.628      860.247
09/02/2013  03:07:00       39.973       23.013        6.589       17.029       17.164       12.615      289.987      294.596      159.151        0.146        0.037       46.124        6.251        0.018      344.652       21.625      860.237
09/02/2013  03:08:00       10.920       28.556       28.431       18.236       18.003       13.625      332.565      324.100      185.654        0.129        0.042       30.573        8.918        0.085      344.607       21.548      860.220
09/02/2013  03:09:00       22.522       12.987       12.301       19.491       21.811       17.299      379.918      475.706      299.267        0.099        0.058       25.998       12.847        0.244      344.545       21.438      860.199
09/02/2013  03:10:00       44.414       40.991       22.164       35.738       25.934       18.890     1277.208      672.590      356.815        0.322        0.115       60.439       14.675        0.059      344.576       21.493      860.181
09/02/2013  03:11:00       89.330       50.696       17.119       16.589       15.106       18.941      275.183      228.194      358.769        0.585        0.043      102.713        7.582        0.005      344.637       21.597      860.166
09/02/2013  03:12:00       71.661       51.792       20.883       24.159       17.658       20.293      583.668      311.795      411.791        0.478        0.065       88.418        9.356        0.011      344.473       21.316      860.155
09/02/2013  03:13:00       75.742       58.104       43.041       20.376       15.911       19.101      415.199      253.170      364.856        0.600        0.052       95.462        9.299        0.009      344.614       21.559      860.161
09/02/2013  03:14:00       53.025       63.063       45.441       28.855       21.251       28.352      832.612      451.592      803.851        0.547        0.104       82.393       18.747        0.052      344.543       21.437      860.166
09/02/2013  03:15:00       47.499       58.896       49.027       44.580       27.714       33.948     1987.402      768.048     1152.453        0.602        0.195       75.663       32.711        0.187      344.433       21.247      860.177
09/02/2013  03:16:00       50.718       60.218       53.177       35.885       38.207       28.213     1287.709     1459.787      795.947        0.628        0.177       78.731       24.304        0.095      344.400       21.192      860.189
09/02/2013  03:17:00       65.579       32.663       55.729       51.067       36.119       26.346     2607.837     1304.615      694.110        0.654        0.230       73.263       27.416        0.140      344.416       21.219      860.195
09/02/2013  03:18:00       64.064       27.071       50.016       44.829       34.133       27.180     2009.650     1165.093      738.747        0.563        0.196       69.549       16.528        0.056      344.493       21.350      860.200
09/02/2013  03:19:00       61.690       27.510       41.701       31.299       33.183       25.510      979.631     1101.116      650.752        0.452        0.137       67.547       18.425        0.074      344.469       21.310      860.208
09/02/2013  03:20:00      111.248       41.849       17.942       31.248       26.581       31.381      976.408      706.555      984.743        0.856        0.133      118.859       21.477        0.033      344.532       21.417      860.208
09/02/2013  03:21:00      103.754       69.798       42.186       47.621       29.555       37.064     2267.757      873.490     1373.722        1.096        0.226      125.047       29.483        0.056      344.569       21.481      860.192
09/02/2013  03:22:00      116.646       48.579       26.484       54.227       42.015       31.807     2940.550     1765.276     1011.716        1.119        0.286      126.357       24.722        0.038      344.582       21.503      860.169
09/02/2013  03:23:00       80.432       47.884       16.751       50.673       32.543       32.041     2567.741     1059.046     1026.601        0.685        0.233       93.606       29.844        0.102      344.523       21.403      860.157
09/02/2013  03:24:00       69.216       52.033       20.116       29.151       16.629       22.654      849.785      276.532      513.215        0.477        0.082       86.593       11.259        0.017      344.450       21.279      860.147
09/02/2013  03:25:00       88.653       49.719       12.408       29.792       28.873       20.260      887.574      833.675      410.460        0.631        0.107      101.644        7.375        0.005      344.494       21.352      860.127
09/02/2013  03:26:00       41.681       30.157        5.881       26.802       22.084       20.799      718.368      487.684      432.603        0.216        0.082       51.447       16.575        0.104      344.473       21.315      860.098
09/02/2013  03:27:00       -4.575       40.508       -3.478       34.475       19.295       17.199     1188.495      372.293      295.805        0.176        0.093       40.766       20.006        0.241      344.486       21.335      860.061
09/02/2013  03:28:00      -41.201        6.480      -11.157       13.794       15.197        5.718      190.278      230.959       32.699        0.116        0.023       41.707        3.769        0.008      344.451       21.278      860.046
09/02/2013  03:29:00      -53.691        3.433      -14.119       17.869       22.490       14.299      319.300      505.813      204.448        0.206        0.051       53.801        9.106        0.029      344.403       21.196      860.038
09/02/2013  03:30:00      -64.430      -11.934      -10.679       23.853       27.871       14.922      568.965      776.775      222.652        0.299        0.078       65.526       13.047        0.040      344.407       21.204      860.038
09/02/2013  03:31:00      -81.317      -12.975      -10.660       29.119       19.110       17.129      847.935      365.184      293.391        0.420        0.075       82.346       16.038        0.038      344.441       21.263      860.042
09/02/2013  03:32:00     -100.050        8.431      -12.169       30.298       28.259       15.665      917.972      798.591      245.379        0.610        0.098      100.404        9.812        0.010      344.515       21.387      860.034
09/02/2013  03:33:00     -109.840       13.409      -12.470       39.601       33.073       17.475     1568.242     1093.835      305.385        0.768        0.148      110.656       18.335        0.027      344.562       21.468      860.018
09/02/2013  03:34:00     -124.168       -2.936      -13.293       27.169       23.985       19.552      738.170      575.295      382.300        0.865        0.085      124.202       14.024        0.013      344.575       21.494      859.992
09/02/2013  03:35:00      -99.087       -8.501       -3.980       22.018       27.840       16.015      484.774      775.092      256.478        0.571        0.076       99.451       11.772        0.014      344.545       21.439      859.964
09/02/2013  03:36:00      -78.500       22.116       -3.459       28.825       19.277       10.619      830.899      371.602      112.761        0.399        0.066       81.556        6.063        0.006      344.556       21.459      859.939
09/02/2013  03:37:00     -101.300       18.236       -9.560       28.046       18.083       14.311      786.590      327.007      204.816        0.600        0.066      102.928       12.636        0.015      344.540       21.434      859.928
09/02/2013  03:38:00      -76.964      -37.664       -2.588       38.174       36.464       23.539     1457.274     1329.601      554.103        0.534        0.167       85.686       21.908        0.065      344.511       21.382      859.927
09/02/2013  03:39:00      -89.218      -38.895       -1.816       38.368       25.878       16.709     1472.125      669.663      279.176        0.595        0.121       97.328       19.412        0.040      344.484       21.335      859.943
09/02/2013  03:40:00      -35.171      -28.033        3.611       31.951       18.469       15.960     1020.889      341.105      254.730        0.183        0.081       44.976       12.597        0.078      344.510       21.380      859.968
09/02/2013  03:41:00       -0.730      -13.175       -4.434       18.881       12.145       12.123      356.503      147.510      146.965        0.042        0.033       13.195       10.041        0.579      344.560       21.466      859.969
09/02/2013  03:42:00       10.202       -3.488        0.580        7.018        6.356        7.617       49.252       40.397       58.026        0.013        0.007       10.782        5.383        0.249      344.566       21.475      859.955
09/02/2013  03:43:00      -35.482        5.165       -6.269       22.706        9.646       13.867      515.541       93.047      192.298        0.106        0.040       35.856       14.460        0.163      344.543       21.439      859.931
09/02/2013  03:44:00      -46.153        2.763       -5.417       16.295       10.412        8.900      265.538      108.405       79.212        0.131        0.023       46.235        6.650        0.021      344.556       21.460      859.935
09/02/2013  03:45:00      -60.731       -9.089      -10.268       11.029       12.706       10.485      121.642      161.442      109.937        0.213        0.020       61.407        6.890        0.013      344.603       21.541      859.949
09/02/2013  03:46:00      -70.534      -28.223       -9.902       13.665       12.679        9.562      186.728      160.760       91.438        0.315        0.022       75.971        6.314        0.007      344.565       21.474      859.968
09/02/2013  03:47:00     -104.261      -32.732      -11.197       13.139       11.883        8.651      172.621      141.210       74.839        0.623        0.019      109.279        2.982        0.001      344.597       21.529      859.972
09/02/2013  03:48:00     -112.878      -28.189      -13.687       23.978       18.599       10.184      574.947      345.920      103.710        0.737        0.051      116.345        9.607        0.007      344.552       21.453      859.953
09/02/2013  03:49:00     -134.928      -25.758       -7.423       37.012       20.522       17.221     1369.908      421.142      296.555        1.051        0.104      137.365       18.158        0.017      344.507       21.373      859.941
09/02/2013  03:50:00     -194.195        7.702      -21.038       35.675       25.513       18.186     1272.697      650.917      330.720        2.023        0.113      194.347       13.344        0.005      344.460       21.292      859.942
09/02/2013  03:51:00     -166.371       -1.801      -19.207       46.497       37.163       25.469     2161.960     1381.112      648.680        1.612        0.210      166.381       19.586        0.014      344.409       21.207      859.955
09/02/2013  03:52:00     -176.171      -11.216      -12.909       33.590       23.380       18.899     1128.307      546.641      357.176        1.668        0.102      176.527       19.507        0.012      344.396       21.186      859.956
09/02/2013  03:53:00     -125.729      -24.117       -7.982       43.166       31.251       20.273     1863.302      976.644      410.989        0.985        0.163      128.021       20.411        0.025      344.420       21.226      859.951
09/02/2013  03:54:00     -157.597       -6.082      -14.630       35.195       31.791       20.244     1238.703     1010.684      409.829        1.387        0.133      157.714       20.939        0.018      344.387       21.171      859.935
09/02/2013  03:55:00     -194.060        9.062      -23.588       35.876       27.342       21.444     1287.105      747.558      459.865        2.040        0.125      194.271       18.678        0.009      344.400       21.192      859.928
09/02/2013  03:56:00     -176.996      -14.698      -21.480       32.180       23.894       20.451     1035.573      570.908      418.263        1.701        0.101      177.605       16.627        0.009      344.439       21.256      859.922
09/02/2013  03:57:00     -156.334        4.111      -10.344       26.038       27.530       22.534      677.958      757.919      507.787        1.325        0.097      156.388       10.583        0.005      344.479       21.327      859.926
09/02/2013  03:58:00      -95.887        8.114      -16.275       29.334       23.302       13.416      860.491      542.976      179.982        0.555        0.079       96.229        9.729        0.010      344.461       21.296      859.931
09/02/2013  03:59:00      -45.093       43.998      -18.811       16.355       35.932        9.329      267.484     1291.091       87.032        0.298        0.082       63.001        3.966        0.004      344.456       21.288      859.931
09/02/2013  04:00:00      -93.278      -31.029      -16.220       24.312       17.872       14.804      591.074      319.403      219.173        0.553        0.056       98.303       13.663        0.019      344.430       21.242      859.926
09/02/2013  04:01:00      -88.810      -27.329       -8.072       23.776       41.256       14.768      565.308     1702.054      218.081        0.559        0.124       92.920       16.821        0.033      344.423       21.232      859.920
09/02/2013  04:02:00      -74.961      -24.679       -7.231       23.511       22.667       14.952      552.753      513.771      223.559        0.379        0.065       78.919       13.311        0.028      344.434       21.250      859.921
09/02/2013  04:03:00      -70.371      -19.798       -5.013       28.435       23.752       15.278      808.565      564.165      233.414        0.349        0.080       73.103       14.150        0.037      344.422       21.228      859.925
09/02/2013  04:04:00      -77.896      -21.092       -3.558       42.832       25.398       14.966     1834.580      645.053      223.993        0.461        0.135       80.701       21.903        0.074      344.546       21.440      859.946
09/02/2013  04:05:00      -78.058      -44.284       -5.634       26.421       15.574       11.538      698.076      242.539      133.121        0.458        0.054       89.745        6.463        0.005      344.614       21.557      859.965
09/02/2013  04:06:00      -43.432      -27.598       -0.426       33.652       20.392       16.034     1132.482      415.841      257.105        0.223        0.090       51.459       14.341        0.078      344.612       21.557      859.956
09/02/2013  04:07:00      -67.069        3.328       -3.344       30.719       16.496       12.878      943.666      272.132      165.834        0.295        0.069       67.151       13.899        0.043      344.531       21.417      859.913
09/02/2013  04:08:00      -55.564       19.820       -8.919       27.249       30.127       19.515      742.511      907.660      380.839        0.279        0.102       58.993       14.338        0.059      344.591       21.516      859.846
09/02/2013  04:09:00      -54.094       49.877      -12.158       19.387       19.434       14.224      375.853      377.697      202.333        0.326        0.048       73.579        7.607        0.011      344.700       21.706      859.791
09/02/2013  04:10:00      -63.040       55.867       -7.877       22.066       22.368       15.183      486.904      500.344      230.521        0.419        0.061       84.233        9.157        0.012      344.698       21.703      859.750
09/02/2013  04:11:00      -70.154       66.127      -17.234       17.770       23.936       13.618      315.780      572.916      185.457        0.533        0.054       96.407       11.704        0.015      344.711       21.723      859.728
09/02/2013  04:12:00      -56.299       44.203      -15.647       21.200       23.867       13.469      449.420      569.622      181.415        0.328        0.060       71.579        9.415        0.017      344.664       21.645      859.718
09/02/2013  04:13:00      -56.596       22.876       -7.332       15.399       15.500        9.794      237.123      240.243       95.928        0.218        0.029       61.044        7.108        0.014      344.760       21.807      859.727
09/02/2013  04:14:00      -32.047       15.507       -1.669       13.582       11.890       10.244      184.479      141.374      104.930        0.085        0.022       35.602        8.618        0.059      344.704       21.711      859.748
09/02/2013  04:15:00      -13.233      -20.380        4.450        9.965       11.491        7.980       99.301      132.036       63.680        0.045        0.015       24.299        4.225        0.030      344.691       21.690      859.768
09/02/2013  04:16:00       -1.250      -16.597       -3.683       12.144        7.749        7.941      147.478       60.040       63.062        0.028        0.014       16.644        5.046        0.092      344.748       21.786      859.781
09/02/2013  04:17:00       -3.951       22.447       36.323       11.804       20.595       21.651      139.344      424.146      468.778        0.144        0.052       22.793       17.932        0.619      344.627       21.580      859.778
09/02/2013  04:18:00       13.481        1.120       -2.091       14.057       16.888        8.068      197.610      285.210       65.093        0.037        0.027       13.528        5.966        0.195      344.620       21.566      859.769
09/02/2013  04:19:00        8.502        3.443       15.953       11.130       12.660        8.193      123.867      160.277       67.120        0.034        0.018        9.173        9.281        1.024      344.589       21.517      859.772
09/02/2013  04:20:00        0.985      -12.977        6.755        8.490        8.873        7.737       72.081       78.725       59.863        0.021        0.011       13.015        5.904        0.206      344.612       21.556      859.784
09/02/2013  04:21:00        1.657      -37.153        2.816       10.537       14.545        8.400      111.021      211.559       70.560        0.089        0.020       37.190        4.956        0.018      344.688       21.686      859.796
09/02/2013  04:22:00       -4.847      -12.445       -2.825        8.927        7.285        6.757       79.693       53.075       45.656        0.018        0.009       13.356        5.246        0.154      344.768       21.818      859.806
09/02/2013  04:23:00        3.806        4.126       14.794        7.620        6.149        7.050       58.059       37.807       49.700        0.020        0.007        5.614        3.297        0.345      344.654       21.626      859.808
09/02/2013  04:24:00        4.020       16.754        5.535        9.824       11.905        9.755       96.512      141.734       95.162        0.033        0.017       17.229        8.332        0.234      344.663       21.640      859.809
09/02/2013  04:25:00      -39.801       -9.111       -0.961       15.226       10.155        5.022      231.819      103.126       25.219        0.101        0.018       40.830        4.890        0.014      344.739       21.774      859.805
09/02/2013  04:26:00      -65.943      -10.560      -10.651        4.126        6.476        4.590       17.023       41.934       21.068        0.233        0.004       66.783        3.918        0.003      344.606       21.548      859.795
09/02/2013  04:27:00      -74.751      -30.889      -11.837        8.117       13.645        6.478       65.887      186.193       41.966        0.349        0.015       80.882        3.836        0.002      344.582       21.501      859.783
09/02/2013  04:28:00      -83.862      -16.056      -10.480        9.560       15.178       10.539       91.386      230.363      111.075        0.392        0.022       85.385        7.517        0.008      344.555       21.458      859.772
09/02/2013  04:29:00     -119.965       -2.125      -12.749       31.164       19.460       14.563      971.213      378.679      212.075        0.806        0.078      119.984       10.782        0.008      344.516       21.390      859.765
09/02/2013  04:30:00     -122.953        2.319       -7.315       26.265       13.916       16.499      689.836      193.663      272.218        0.817        0.058      122.975       15.797        0.017      344.428       21.241      859.770
09/02/2013  04:31:00     -155.153       -6.260       -7.819       52.717       44.392       24.732     2779.121     1970.678      611.656        1.477        0.268      155.279       18.730        0.015      344.349       21.103      859.766
09/02/2013  04:32:00     -183.018      -17.287      -18.094       56.439       57.899       24.489     3185.345     3352.280      599.705        2.063        0.357      183.833       25.914        0.020      344.292       21.005      859.765
09/02/2013  04:33:00     -165.753       10.435      -12.150       25.862       28.603       16.844      668.824      818.153      283.712        1.475        0.089      166.081       12.812        0.006      344.258       20.950      859.775
09/02/2013  04:34:00     -120.123       21.356       -7.684       35.164       19.362       14.127     1236.529      374.889      199.581        0.838        0.091      122.006       13.606        0.012      344.304       21.027      859.785
09/02/2013  04:35:00      -62.461       24.096        8.034       39.071       21.938       13.118     1526.569      481.298      172.093        0.336        0.109       66.947       17.085        0.065      344.278       20.985      859.803
09/02/2013  04:36:00      -67.022        6.449       -6.155       25.360       31.118       16.118      643.152      968.338      259.776        0.322        0.094       67.332        7.838        0.014      344.304       21.029      859.811
09/02/2013  04:37:00      -84.915       -7.812       -7.770       36.512       38.102       22.016     1333.113     1451.778      484.718        0.530        0.163       85.273       12.055        0.020      344.265       20.961      859.812
09/02/2013  04:38:00      -77.181      -38.310       -5.674       21.517       33.640       15.163      462.977     1131.645      229.910        0.464        0.091       86.167       16.423        0.036      344.235       20.912      859.807
09/02/2013  04:39:00      -27.249      -11.041        2.665       32.205       19.466       20.798     1037.157      378.911      432.574        0.136        0.092       29.401       15.277        0.270      344.232       20.905      859.806
09/02/2013  04:40:00        9.799       -1.945       15.994       18.373       15.565        9.726      337.552      242.267       94.586        0.051        0.034        9.990        8.547        0.732      344.177       20.812      859.803
09/02/2013  04:41:00       12.371      -30.868       -0.562       19.416       25.679       11.422      376.974      659.430      130.451        0.114        0.058       33.255        2.100        0.004      344.335       21.084      859.791
09/02/2013  04:42:00       11.823      -51.752      -11.479       31.352       29.195       21.553      982.924      852.367      464.510        0.262        0.115       53.085       14.149        0.071      344.106       20.689      859.780
09/02/2013  04:43:00       13.969      -36.295       -6.906       23.198       21.626       16.295      538.157      467.691      265.522        0.142        0.064       38.890       11.599        0.089      344.011       20.527      859.774
09/02/2013  04:44:00      -11.345      -14.344       -7.447       13.702        9.257       10.036      187.756       85.698      100.729        0.038        0.019       18.289        6.559        0.129      344.328       21.070      859.768
09/02/2013  04:45:00       -0.086      -20.796       15.124        7.223       15.579        9.604       52.172      242.699       92.238        0.052        0.019       20.796        7.698        0.137      344.077       20.640      859.775
09/02/2013  04:46:00      -57.266       28.348      -10.329       25.509       23.047        9.782      650.731      531.166       95.684        0.273        0.064       63.898       12.350        0.037      344.148       20.760      859.789
09/02/2013  04:47:00     -105.647       25.237      -12.436       29.322       19.116       16.111      859.785      365.423      259.572        0.672        0.074      108.619       14.252        0.017      344.264       20.960      859.800
09/02/2013  04:48:00     -137.868       32.446       -6.883       29.534       21.366       15.406      872.236      456.511      237.343        1.084        0.078      141.635       13.538        0.009      344.273       20.974      859.807
09/02/2013  04:49:00     -131.877        1.798       -9.523       28.055       31.184       19.600      787.073      972.419      384.173        0.981        0.107      131.890       15.147        0.013      344.244       20.927      859.816
09/02/2013  04:50:00     -110.923       -2.168       -6.731       34.426       35.147       21.950     1185.178     1235.294      481.797        0.763        0.145      110.944       15.857        0.020      344.170       20.798      859.833
09/02/2013  04:51:00     -143.093        3.599      -17.992       17.327       18.083       10.562      300.216      327.000      111.547        1.078        0.037      143.138        7.795        0.003      344.199       20.848      859.846
09/02/2013  04:52:00      -71.635      -27.155       -4.505       25.350       23.908       11.597      642.633      571.600      134.481        0.362        0.067       76.609       12.540        0.027      344.212       20.871      859.837
09/02/2013  04:53:00      -32.267       -2.437       -2.836       24.064       23.308       17.384      579.091      543.268      302.193        0.124        0.071       32.359       16.461        0.259      344.307       21.033      859.848
09/02/2013  04:54:00      -35.959      -10.810      -10.425       12.710       12.828       11.051      161.550      164.546      122.118        0.098        0.022       37.548        7.073        0.035      344.449       21.274      859.855
09/02/2013  04:55:00      -44.889      -28.866      -10.265       13.272       20.114        9.364      176.142      404.563       87.678        0.181        0.033       53.370        7.551        0.020      344.405       21.199      859.861
09/02/2013  04:56:00      -51.529      -14.802       -5.220       16.481       14.048        7.371      271.634      197.350       54.331        0.171        0.026       53.613        6.026        0.013      344.465       21.305      859.859
09/02/2013  04:57:00      -70.880      -10.585       -7.584       10.740        8.926        7.639      115.343       79.671       58.361        0.272        0.013       71.666        4.204        0.003      344.417       21.219      859.850
09/02/2013  04:58:00      -92.824      -24.742       -9.023       13.632       13.954        9.308      185.836      194.706       86.631        0.489        0.023       96.065        7.636        0.006      344.454       21.284      859.842
09/02/2013  04:59:00      -95.955      -31.350       -6.997        9.115       10.656        6.108       83.090      113.554       37.310        0.524        0.012      100.946        4.673        0.002      344.426       21.236      859.838
09/02/2013  05:00:00      -83.804      -34.664       -9.756       14.011       10.259        6.369      196.308      105.238       40.568        0.433        0.017       90.690        6.692        0.005      344.348       21.104      859.832
09/02/2013  05:01:00      -69.914      -12.366       -6.528       22.526       13.540        9.151      507.434      183.322       83.739        0.293        0.039       70.999        9.693        0.019      344.337       21.084      859.819
09/02/2013  05:02:00     -104.953        7.388      -13.715       17.485       14.715       12.075      305.729      216.546      145.802        0.596        0.033      105.213        8.227        0.006      344.309       21.035      859.791
09/02/2013  05:03:00     -141.129       28.417      -13.052       27.355       18.566       15.411      748.306      344.684      237.511        1.111        0.067      143.962       13.145        0.008      344.294       21.010      859.776
09/02/2013  05:04:00     -154.240       46.678      -15.929       38.994       21.266       17.486     1520.515      452.260      305.763        1.425        0.114      161.149        7.280        0.002      344.372       21.142      859.774
09/02/2013  05:05:00     -146.870       24.314      -17.568       35.070       31.788       20.215     1229.879     1010.494      408.647        1.256        0.132      148.869       13.012        0.008      344.388       21.170      859.785
09/02/2013  05:06:00     -116.567       47.051      -18.347       29.092       21.132       16.600      846.363      446.542      275.557        0.885        0.078      125.704        9.825        0.006      344.478       21.323      859.788
09/02/2013  05:07:00     -108.438        8.394      -18.372       31.148       38.956       21.830      970.171     1517.584      476.569        0.756        0.148      108.763       14.092        0.017      344.463       21.299      859.789
09/02/2013  05:08:00      -76.310       45.673      -15.061       31.149       27.363       20.532      970.289      748.758      421.582        0.514        0.107       88.934       22.711        0.065      344.463       21.300      859.785
09/02/2013  05:09:00      -56.699       63.892      -21.219       20.118       27.268       20.637      404.750      743.525      425.889        0.466        0.079       85.423       14.210        0.028      344.524       21.404      859.775
09/02/2013  05:10:00      -32.451       49.407       -2.147       28.328       28.080       22.689      802.455      788.495      514.797        0.280        0.105       59.111       14.636        0.061      344.471       21.313      859.781
09/02/2013  05:11:00      -42.909       26.401      -10.872       17.966       33.353       12.470      322.766     1112.449      155.505        0.212        0.080       50.381       12.744        0.064      344.523       21.403      859.794
09/02/2013  05:12:00      -36.149       35.118      -11.748       14.169       19.667       10.362      200.761      386.775      107.365        0.169        0.035       50.399        8.981        0.032      344.584       21.504      859.819
09/02/2013  05:13:00      -46.929       73.916      -12.936       22.000       21.323       12.250      484.004      454.652      150.057        0.446        0.054       87.555        9.564        0.012      344.631       21.586      859.832
09/02/2013  05:14:00      -45.114       11.530       -4.857       13.059       22.713       10.517      170.545      515.894      110.606        0.149        0.040       46.564        8.762        0.035      344.635       21.593      859.845
09/02/2013  05:15:00      -50.777       32.695       -8.869       12.563       12.684       10.777      157.838      160.894      116.148        0.208        0.022       60.393        9.143        0.023      344.656       21.629      859.858
09/02/2013  05:16:00      -36.250       27.919        0.462       24.661       15.662       11.985      608.188      245.294      143.646        0.155        0.050       45.755        8.988        0.039      344.574       21.490      859.863
09/02/2013  05:17:00      -51.278       51.460       -9.588       19.305       36.668       14.098      372.677     1344.509      198.748        0.364        0.096       72.647       13.525        0.035      344.648       21.616      859.864
09/02/2013  05:18:00      -55.644       51.344      -15.147       14.176       14.475       11.600      200.972      209.530      134.552        0.325        0.027       75.712        8.203        0.012      344.640       21.601      859.871
09/02/2013  05:19:00      -62.424       16.323       -7.829       28.598       33.227       17.469      817.823     1104.024      305.169        0.323        0.111       64.523       14.532        0.051      344.585       21.509      859.877
09/02/2013  05:20:00      -51.792       21.439       -5.124       26.528       20.859       19.283      703.711      435.114      371.831        0.234        0.076       56.054       18.067        0.104      344.604       21.541      859.874
09/02/2013  05:21:00      -45.846       74.486       -4.919       38.208       29.383       25.311     1459.877      863.368      640.666        0.532        0.148       87.465       25.838        0.087      344.565       21.474      859.882
09/02/2013  05:22:00      -11.589       18.909       -1.176       21.923       16.172       15.709      480.627      261.530      246.781        0.074        0.049       22.178       13.379        0.364      344.547       21.443      859.889
09/02/2013  05:23:00      -48.987       15.000       -3.405       14.650       15.667       11.762      214.615      245.454      138.347        0.162        0.030       51.232        8.372        0.027      344.545       21.440      859.888
09/02/2013  05:24:00      -45.045        2.218      -11.263       15.843        8.743        9.003      251.014       76.435       81.051        0.128        0.020       45.099        7.504        0.028      344.614       21.557      859.892
09/02/2013  05:25:00      -38.705       -7.523       -3.912       13.909        8.285       10.459      193.458       68.635      109.391        0.097        0.019       39.429        6.588        0.028      344.688       21.682      859.892
09/02/2013  05:26:00      -43.594      -19.478       -7.216       18.192       17.531       11.974      330.951      307.352      143.375        0.156        0.039       47.748        8.943        0.035      344.681       21.674      859.893
09/02/2013  05:27:00      -38.917       -3.188      -10.206       20.623       16.438       15.746      425.325      270.201      247.930        0.129        0.047       39.047       14.960        0.147      344.658       21.632      859.883
09/02/2013  05:28:00      -80.532      -18.373      -14.701       18.557       28.531       13.088      344.344      813.991      171.298        0.418        0.066       82.602        7.781        0.009      344.655       21.627      859.876
09/02/2013  05:29:00      -73.615        5.246       -8.493       16.325       30.176       14.733      266.513      910.588      217.076        0.346        0.070       73.802       11.455        0.024      344.635       21.595      859.866
09/02/2013  05:30:00      -43.230      -11.952       -4.506       17.840       10.082        9.275      318.275      101.637       86.026        0.127        0.025       44.851        9.112        0.041      344.594       21.521      859.865
09/02/2013  05:31:00      -41.716      -28.174       -7.613       12.128        9.088        8.527      147.079       82.594       72.710        0.145        0.015       50.339        4.373        0.008      344.579       21.496      859.859
09/02/2013  05:32:00      -16.677       -8.412       -1.538        7.955        6.661        8.003       63.279       44.368       64.041        0.026        0.009       18.679        6.565        0.124      344.594       21.525      859.851
09/02/2013  05:33:00      -49.460      -24.404       -3.057       12.703       17.921        9.109      161.379      321.169       82.979        0.181        0.028       55.153        8.270        0.022      344.579       21.498      859.847
09/02/2013  05:34:00      -63.588      -35.032       -4.843       10.678       13.718        8.011      114.019      188.197       64.182        0.283        0.018       72.599        6.136        0.007      344.536       21.427      859.849
09/02/2013  05:35:00      -55.683      -34.920       -5.324       12.600        9.102       10.080      158.755       82.850      101.605        0.235        0.017       65.726        7.183        0.012      344.542       21.435      859.859
09/02/2013  05:36:00      -20.599      -26.872        4.468       23.713       18.057       14.771      562.319      326.057      218.171        0.114        0.055       33.859       14.325        0.179      344.556       21.458      859.865
09/02/2013  05:37:00      -38.053      -28.836       -2.781       26.169       18.272       14.791      684.825      333.865      218.768        0.176        0.062       47.745       11.463        0.058      344.550       21.446      859.871
09/02/2013  05:38:00      -84.980       12.132      -10.489       33.207       25.900       17.634     1102.736      670.787      310.955        0.478        0.104       85.842       15.391        0.032      344.618       21.561      859.865
09/02/2013  05:39:00      -39.539      -13.897       -0.167       21.943       14.581       13.594      481.480      212.599      184.793        0.132        0.044       41.910       11.685        0.078      344.611       21.553      859.864
09/02/2013  05:40:00       -3.667       12.933       16.473       31.659       31.833       15.073     1002.278     1013.339      227.192        0.135        0.112       13.443       17.522        1.699      344.543       21.437      859.863
09/02/2013  05:41:00      -70.628       32.343       -9.763       27.232       22.549       19.448      741.589      508.450      378.227        0.388        0.081       77.681       14.267        0.034      344.690       21.687      859.873
09/02/2013  05:42:00      -52.483       42.477      -11.654       19.386       24.384       16.422      375.799      594.592      269.680        0.297        0.062       67.519       13.879        0.042      344.698       21.701      859.875
09/02/2013  05:43:00      -37.490       26.025       -1.981       16.344       21.554       12.877      267.141      464.573      165.810        0.149        0.045       45.638       10.186        0.050      344.694       21.694      859.888
09/02/2013  05:44:00      -41.708       -4.128       -2.769       29.339       18.296        9.018      860.778      334.731       81.327        0.152        0.064       41.912        7.014        0.028      344.658       21.632      859.897
09/02/2013  05:45:00      -57.690      -38.612       -3.694       34.699       29.214       20.614     1204.011      853.485      424.917        0.366        0.124       69.419       11.122        0.026      344.600       21.535      859.906
09/02/2013  05:46:00     -108.001        6.404       -1.676       28.065       28.195       17.548      787.638      794.986      307.925        0.680        0.095      108.190       15.716        0.021      344.625       21.577      859.902
09/02/2013  05:47:00      -48.903       -9.295        0.853       20.729       16.183       10.001      429.701      261.881      100.023        0.163        0.040       49.779        6.269        0.016      344.615       21.560      859.901
09/02/2013  05:48:00      -77.125      -26.054       -6.609       14.868       13.227        8.695      221.045      174.942       75.596        0.357        0.024       81.406        7.360        0.008      344.598       21.531      859.897
09/02/2013  05:49:00      -67.579      -13.884       -1.497       26.572       22.108       11.162      706.057      488.785      124.598        0.304        0.066       68.990       13.897        0.041      344.558       21.461      859.903
09/02/2013  05:50:00      -22.343        4.206        4.481       17.734       14.386        9.176      314.505      206.970       84.195        0.057        0.030       22.735        6.163        0.073      344.617       21.563      859.921
09/02/2013  05:51:00       21.791      -26.398        4.423       21.325       17.941       10.282      454.741      321.865      105.724        0.104        0.044       34.230        5.905        0.030      344.552       21.451      859.944
09/02/2013  05:52:00       11.331      -23.719       -6.093       14.542       14.953        9.535      211.473      223.579       90.913        0.063        0.026       26.287        4.762        0.033      344.621       21.569      859.969
09/02/2013  05:53:00       -4.995      -22.753       -3.338       15.348       14.581       15.701      235.569      212.609      246.519        0.062        0.035       23.295        9.398        0.163      344.671       21.656      859.979
09/02/2013  05:54:00      -30.783      -45.470       -7.186       21.097       21.324       15.179      445.068      454.730      230.411        0.210        0.057       54.910       10.552        0.037      344.617       21.563      859.977
09/02/2013  05:55:00      -12.747       -8.245        7.478       23.103       13.167       11.309      533.763      173.377      127.895        0.056        0.042       15.181        9.795        0.416      344.609       21.550      859.957
09/02/2013  05:56:00      -11.874      -22.438        5.233       34.193       18.934       16.170     1169.162      358.494      261.477        0.123        0.089       25.386       12.331        0.236      344.282       20.988      859.923
09/02/2013  05:57:00       28.011      -23.836        2.718       27.082       18.020       23.036      733.410      324.708      530.636        0.147        0.079       36.780        9.096        0.061      343.834       20.224      859.893
09/02/2013  05:58:00      -60.712      -18.752       -0.702       23.144       24.321       11.557      535.667      591.509      133.561        0.265        0.063       63.543        9.799        0.024      344.309       21.035      859.857
09/02/2013  05:59:00      -64.529      -30.555        0.870       19.782       16.120       11.702      391.346      259.844      136.941        0.294        0.039       71.398       11.903        0.028      344.297       21.016      859.836
09/02/2013  06:00:00      -22.766       -4.825       15.852       39.461       34.493       23.035     1557.135     1189.786      530.633        0.203        0.164       23.272       24.951        1.149      344.095       20.670      859.837
09/02/2013  06:01:00      -61.793      -38.209       -1.871       33.695       26.460       15.171     1135.370      700.124      230.167        0.367        0.103       72.652       16.565        0.052      344.198       20.850      859.847
09/02/2013  06:02:00      -71.903      -44.728       -1.851       34.090       24.508       15.605     1162.145      600.627      243.523        0.459        0.100       84.680       14.785        0.030      344.339       21.088      859.856
09/02/2013  06:03:00      -61.847      -47.570        5.999       45.281       26.366       25.849     2050.359      695.163      668.154        0.477        0.171       78.025       26.256        0.113      344.291       21.004      859.861
09/02/2013  06:04:00     -102.541      -58.711       -2.880       26.488       28.414       14.320      701.638      807.364      205.056        0.784        0.086      118.159        6.037        0.003      344.306       21.032      859.852
09/02/2013  06:05:00      -72.550      -19.656        1.985       29.910       25.974       15.978      894.597      674.655      255.294        0.374        0.091       75.165       15.144        0.041      344.258       20.950      859.827
09/02/2013  06:06:00     -106.155       -9.566       -8.224       30.715       14.145       11.412      943.408      200.087      130.223        0.635        0.064      106.585        9.504        0.008      344.244       20.926      859.800
09/02/2013  06:07:00      -79.475        3.018       -9.891       27.827       17.474       14.919      774.318      305.324      222.575        0.386        0.065       79.532       12.645        0.025      344.188       20.827      859.777
09/02/2013  06:08:00      -45.475       -2.409       -1.560       15.617       16.895       10.913      243.878      285.446      119.095        0.136        0.032       45.539        8.735        0.037      344.207       20.864      859.768
09/02/2013  06:09:00      -36.882      -11.992       -1.529       15.981       15.439        6.956      255.394      238.348       48.381        0.102        0.027       38.782        6.304        0.026      344.310       21.038      859.772
09/02/2013  06:10:00      -15.595      -14.564       -5.413       12.889       12.011        4.995      166.137      144.256       24.950        0.041        0.017       21.338        1.792        0.007      344.303       21.029      859.779
09/02/2013  06:11:00       -2.043       -5.540       -3.047       11.946       10.796        7.638      142.710      116.551       58.340        0.018        0.016        5.904        3.468        0.345      344.316       21.048      859.771
09/02/2013  06:12:00       13.432      -12.634      -10.070       14.130       15.449       18.380      199.652      238.664      337.817        0.061        0.039       18.440       10.560        0.328      344.211       20.869      859.755
09/02/2013  06:13:00      -12.264        5.494        7.227        7.688        8.082        6.791       59.102       65.314       46.118        0.020        0.009       13.438        3.453        0.066      344.314       21.045      859.740
09/02/2013  06:14:00      -18.117      -11.912       -3.765       13.725       14.985        9.826      188.375      224.540       96.544        0.050        0.025       21.683        8.028        0.137      344.320       21.054      859.736
09/02/2013  06:15:00      -30.413      -22.525       -4.019        6.598        9.982        5.483       43.530       99.640       30.062        0.081        0.009       37.846        3.444        0.008      344.349       21.107      859.734
09/02/2013  06:16:00      -30.966      -25.958       -7.178       17.005       12.855        7.459      289.153      165.250       55.637        0.110        0.026       40.407        6.743        0.028      344.365       21.134      859.737
09/02/2013  06:17:00      -33.910      -16.864       -5.497       20.093       23.891       10.221      403.727      570.785      104.469        0.127        0.054       37.872       10.955        0.084      344.346       21.102      859.746
09/02/2013  06:18:00        8.482        3.962       -2.196       15.613       18.188       11.580      243.772      330.799      134.095        0.040        0.035        9.362        8.996        0.923      344.298       21.020      859.753
09/02/2013  06:19:00       36.043       -9.605        1.632       19.961       17.477       14.937      398.446      305.457      223.124        0.116        0.046       37.301        7.795        0.044      344.041       20.578      859.750
09/02/2013  06:20:00       34.146       -8.295        9.723       26.964       27.861       20.302      727.058      776.227      412.178        0.162        0.096       35.139       12.687        0.130      343.944       20.412      859.735
09/02/2013  06:21:00       44.157       23.060        2.235       28.276       24.864       24.254      799.554      618.208      588.235        0.225        0.100       49.816       10.765        0.047      343.974       20.464      859.723
09/02/2013  06:22:00       42.592       13.164       -7.233       21.198       23.108       20.680      449.371      533.960      427.681        0.173        0.071       44.580       16.906        0.144      344.189       20.832      859.727
09/02/2013  06:23:00        6.400      -11.989        1.691       18.189       21.392       17.406      330.845      457.613      302.969        0.064        0.055       13.591        6.757        0.247      344.032       20.564      859.761
09/02/2013  06:24:00       -3.026      -40.107       -7.514       24.486       24.035       18.481      599.579      577.705      341.537        0.160        0.076       40.221       14.340        0.127      343.927       20.385      859.795
09/02/2013  06:25:00       -6.989      -32.983       -7.951       25.313       21.411       14.885      640.761      458.446      221.550        0.126        0.066       33.715       13.216        0.154      344.038       20.574      859.825
09/02/2013  06:26:00      -51.520      -11.087       -7.029       17.077       12.198       13.279      291.618      148.795      176.335        0.172        0.031       52.700        8.562        0.026      344.242       20.922      859.858
09/02/2013  06:27:00      -33.468      -24.620       -1.324       17.138       18.625       10.408      293.715      346.886      108.317        0.124        0.037       41.548        8.759        0.044      344.374       21.145      859.891
09/02/2013  06:28:00      -84.506      -40.036       -8.315       18.987       13.050        8.911      360.497      170.296       79.403        0.471        0.031       93.510        5.853        0.004      344.287       20.999      859.928
09/02/2013  06:29:00      -81.779      -56.057        0.779       40.332       19.557       19.794     1626.670      382.461      391.800        0.612        0.120       99.147       23.760        0.057      344.286       20.997      859.972
09/02/2013  06:30:00     -107.972     -100.121        1.062       69.457       67.224       27.229     4824.265     4519.083      741.431        1.588        0.504      147.248       29.600        0.040      344.321       21.056      860.019
09/02/2013  06:31:00     -175.983     -104.887        1.516       68.374       50.799       38.849     4674.952     2580.559     1509.241        2.537        0.438      204.869       38.467        0.035      344.287       20.996      860.061
09/02/2013  06:32:00     -236.688      -67.363       -3.652       81.940       62.093       38.269     6714.202     3855.571     1464.509        3.630        0.602      246.088       40.614        0.027      344.207       20.858      860.097
09/02/2013  06:33:00     -238.990      -67.800        4.975      102.935       69.816       42.094    10595.513     4874.211     1771.893        3.949        0.862      248.421       49.245        0.039      344.072       20.628      860.139
09/02/2013  06:34:00     -163.048      -76.975        4.005       73.352       60.650       37.535     5380.583     3678.386     1408.841        2.149        0.523      180.305       38.752        0.046      344.033       20.563      860.187
09/02/2013  06:35:00     -200.348      -72.703       -3.561       65.154       56.500       37.048     4245.023     3192.197     1372.531        2.712        0.440      213.131       34.841        0.027      344.090       20.659      860.215
09/02/2013  06:36:00     -177.490       -6.888       -6.052       74.615       60.948       34.700     5567.328     3714.639     1204.105        2.103        0.524      177.624       39.125        0.049      344.143       20.750      860.222
09/02/2013  06:37:00     -107.802       27.556       -1.815       45.157       38.423       22.310     2039.182     1476.316      497.719        0.820        0.201      111.268       24.306        0.048      344.142       20.751      860.221
09/02/2013  06:38:00     -100.099       54.999      -16.040       35.192       49.341       25.505     1238.490     2434.495      650.524        0.881        0.216      114.213       28.604        0.063      344.274       20.977      860.230
09/02/2013  06:39:00      -44.774       18.913       -9.287       29.956       32.522       20.609      897.389     1057.679      424.744        0.241        0.119       48.605       14.597        0.090      344.381       21.158      860.245
09/02/2013  06:40:00      -43.395        6.074       -7.061       41.910       24.840       21.789     1756.474      617.004      474.756        0.241        0.142       43.818       18.619        0.181      344.348       21.104      860.284
09/02/2013  06:41:00      -72.808        3.192      -11.599       16.552       30.891       15.803      273.979      954.234      249.747        0.346        0.074       72.878       12.397        0.029      344.414       21.214      860.309
09/02/2013  06:42:00      -57.194       -9.009      -12.423       17.568       23.735        9.130      308.628      563.327       83.353        0.223        0.048       57.899        7.215        0.016      344.406       21.198      860.322
09/02/2013  06:43:00      -26.186      -14.826        0.562       11.317       14.127        8.413      128.084      199.579       70.783        0.065        0.020       30.092        5.185        0.030      344.424       21.233      860.312
09/02/2013  06:44:00      -53.866       -1.525       -8.419        9.326       13.827        8.630       86.969      191.183       74.478        0.166        0.018       53.888        3.478        0.004      344.386       21.166      860.290
09/02/2013  06:45:00      -38.674        0.084      -12.614       18.534        8.128        6.582      343.511       66.072       43.326        0.105        0.023       38.674        5.754        0.022      344.405       21.202      860.276
09/02/2013  06:46:00      -25.986       -5.863       -7.508       13.461       14.553        8.172      181.192      211.784       66.783        0.061        0.023       26.639        8.313        0.097      344.387       21.170      860.259
09/02/2013  06:47:00      -61.230        7.246      -12.180       15.918       14.636        9.988      253.379      214.217       99.755        0.226        0.028       61.657        8.909        0.021      344.436       21.255      860.249
09/02/2013  06:48:00      -75.593        3.762       -7.640       13.390       12.139        9.642      179.297      147.353       92.978        0.310        0.021       75.686        9.022        0.014      344.424       21.230      860.250
09/02/2013  06:49:00      -86.380        6.499       -7.499       16.557       13.547       10.784      274.136      183.528      116.295        0.407        0.029       86.624        5.096        0.003      344.445       21.269      860.251
09/02/2013  06:50:00      -85.141        8.400      -14.959       18.331       16.989       11.539      336.029      288.618      133.156        0.415        0.038       85.554        9.921        0.013      344.501       21.365      860.247
09/02/2013  06:51:00      -66.369       -9.745      -10.597       23.914       24.807       12.816      571.879      615.367      164.253        0.298        0.068       67.081        7.845        0.014      344.501       21.366      860.247
09/02/2013  06:52:00      -83.912      -37.494       -3.110       17.660       11.836       10.315      311.893      140.079      106.392        0.451        0.028       91.908        2.291        0.001      344.378       21.155      860.249
09/02/2013  06:53:00      -71.303      -13.337       -4.571       13.841       13.777        7.904      191.567      189.813       62.468        0.286        0.022       72.540        5.773        0.006      344.390       21.175      860.256
09/02/2013  06:54:00      -66.413       -7.849       -6.080       16.389       11.679        9.324      268.604      136.406       86.940        0.250        0.025       66.875        9.611        0.021      344.387       21.172      860.256
09/02/2013  06:55:00      -77.151      -17.849       -3.628       15.384       17.890        9.181      236.667      320.041       84.293        0.346        0.032       79.189        6.812        0.007      344.408       21.204      860.260
09/02/2013  06:56:00     -111.065      -40.484       -9.306       15.509       16.422       11.371      240.518      269.666      129.293        0.735        0.032      118.214       10.269        0.008      344.430       21.244      860.256
09/02/2013  06:57:00     -101.914      -33.597        0.344       23.049       21.812       16.411      531.271      475.752      269.319        0.640        0.064      107.308       13.503        0.016      344.405       21.199      860.253
09/02/2013  06:58:00      -67.569      -11.746        2.109       30.538       23.503       17.232      932.554      552.381      296.929        0.324        0.089       68.583       15.920        0.054      344.403       21.196      860.264
09/02/2013  06:59:00      -54.750      -18.057        6.937       39.683       29.163       17.286     1574.777      850.469      298.805        0.305        0.136       57.651       15.672        0.074      344.402       21.193      860.265
09/02/2013  07:00:00     -104.852      -21.326       -3.227       30.434       26.626       15.635      926.199      708.938      244.460        0.667        0.094      106.999        9.299        0.008      344.450       21.275      860.256
09/02/2013  07:01:00      -61.430      -17.227        4.274       25.908       22.619       14.358      671.223      511.604      206.156        0.274        0.069       63.799       11.222        0.031      344.419       21.223      860.265
09/02/2013  07:02:00      -58.590      -27.283        3.290       42.769       19.858       14.711     1829.207      394.330      216.413        0.331        0.122       64.631       19.905        0.095      344.455       21.286      860.282
09/02/2013  07:03:00      -26.791      -33.482        5.487       21.576       16.378       10.986      465.506      268.234      120.690        0.136        0.043       42.881       11.262        0.069      344.510       21.382      860.299
09/02/2013  07:04:00       11.263      -19.757        8.981       22.316       16.650       11.795      498.017      277.222      139.133        0.076        0.046       22.742        8.250        0.132      344.467       21.307      860.299
09/02/2013  07:05:00        1.295      -14.937       11.030       14.249       13.765       12.873      203.026      189.473      165.719        0.045        0.028       14.993       11.105        0.549      344.317       21.051      860.293
09/02/2013  07:06:00       20.733       -7.420       17.639       19.142       22.586       18.006      366.402      510.112      324.205        0.100        0.060       22.021       14.530        0.435      344.301       21.024      860.310
09/02/2013  07:07:00        1.191       11.330       30.052       15.849       21.251       12.659      251.190      451.588      160.258        0.095        0.043       11.392        9.824        0.744      344.366       21.134      860.339
09/02/2013  07:08:00        3.814      -75.642        6.138       18.346       28.887       24.101      336.561      834.452      580.859        0.376        0.088       75.738       14.910        0.039      344.624       21.574      860.380
09/02/2013  07:09:00        1.407      -61.289      -12.652       19.798       25.227       14.077      391.941      636.387      198.169        0.257        0.061       61.305       13.504        0.049      344.646       21.613      860.414
09/02/2013  07:10:00      -33.794      -17.338       -4.613       19.082       15.399       11.991      364.132      237.115      143.787        0.110        0.037       37.982       10.046        0.070      344.623       21.573      860.432
09/02/2013  07:11:00      -66.716      -34.032       -0.736       24.601       14.529        9.726      605.200      211.079       94.598        0.326        0.046       74.895        7.907        0.011      344.558       21.462      860.446
09/02/2013  07:12:00      -83.877      -11.947       -2.654       22.798       21.233       14.020      519.737      450.861      196.547        0.418        0.058       84.724       10.699        0.016      344.455       21.285      860.451
09/02/2013  07:13:00      -85.619      -10.125       -4.873       24.672       18.955       13.405      608.701      359.308      179.688        0.430        0.057       86.216       12.106        0.020      344.421       21.225      860.457
09/02/2013  07:14:00     -128.917      -13.523       -6.215       43.182       22.608       19.553     1864.659      511.138      382.332        0.980        0.138      129.625       20.790        0.026      344.351       21.109      860.461
09/02/2013  07:15:00     -129.342      -52.915       -8.235       40.583       33.894       23.938     1647.014     1148.788      573.032        1.148        0.168      139.748       16.681        0.014      344.403       21.195      860.471
09/02/2013  07:16:00      -98.572      -67.232        1.490       44.856       33.031       24.662     2012.094     1091.072      608.192        0.897        0.186      119.317       18.734        0.025      344.387       21.170      860.479
09/02/2013  07:17:00      -94.322      -23.022        1.305       35.132       34.639       19.753     1234.261     1199.847      390.191        0.613        0.141       97.091       16.806        0.030      344.454       21.283      860.484
09/02/2013  07:18:00      -63.476      -49.606       -0.259       28.031       23.065       15.560      785.738      532.007      242.127        0.402        0.078       80.560       11.342        0.020      344.463       21.297      860.485
09/02/2013  07:19:00      -44.323       -7.773        1.069       19.634       19.160       13.380      385.499      367.089      179.014        0.148        0.047       44.999       11.465        0.065      344.452       21.280      860.486
09/02/2013  07:20:00      -16.935        6.909      -11.148       22.193       17.078       11.752      492.514      291.662      138.121        0.069        0.046       18.290        5.263        0.083      344.424       21.233      860.488
09/02/2013  07:21:00       -8.068       10.238      -11.699       18.975       20.604       12.081      360.064      424.524      145.954        0.062        0.047       13.035        8.105        0.387      344.430       21.243      860.484
09/02/2013  07:22:00       14.425        6.108       10.232       11.700       12.484        8.866      136.896      155.839       78.604        0.036        0.019       15.665        7.387        0.222      344.425       21.234      860.487
09/02/2013  07:23:00       23.090       23.993        5.247       18.447       19.072       14.134      340.295      363.741      199.776        0.102        0.045       33.299       11.478        0.119      344.365       21.137      860.488
09/02/2013  07:24:00        1.589        8.766        7.571        8.844        9.915        9.223       78.208       98.300       85.059        0.020        0.013        8.909        4.364        0.240      344.402       21.197      860.483
09/02/2013  07:25:00       32.004       34.776       13.037       10.654        9.718       10.929      113.518       94.434      119.451        0.137        0.016       47.261        4.785        0.010      344.386       21.165      860.474
09/02/2013  07:26:00       33.117       18.675        0.196       12.067       16.244       10.061      145.604      263.868      101.224        0.098        0.026       38.020        4.380        0.013      344.419       21.219      860.460
09/02/2013  07:27:00       27.878       22.005        2.403        9.245       15.605        9.001       85.462      243.510       81.011        0.084        0.020       35.516        2.661        0.006      344.417       21.218      860.452
09/02/2013  07:28:00       26.255        5.814       10.762       14.202       11.330       11.220      201.693      128.370      125.880        0.065        0.023       26.891        8.896        0.109      344.449       21.275      860.452
09/02/2013  07:29:00       38.667       11.106        5.127       14.385       16.004        9.164      206.935      256.143       83.974        0.110        0.027       40.230        4.632        0.013      344.488       21.342      860.440
09/02/2013  07:30:00       32.967       29.298        4.036       19.104       18.447       13.886      364.957      340.298      192.829        0.143        0.045       44.104        5.409        0.015      344.525       21.405      860.426
09/02/2013  07:31:00       54.976       40.567       19.536       19.954       17.158       20.109      398.175      294.401      404.354        0.307        0.055       68.324       12.275        0.032      344.612       21.554      860.418
09/02/2013  07:32:00       37.587       44.452       10.333       15.824       14.555       13.449      250.403      211.842      180.879        0.207        0.032       58.213        9.466        0.026      344.698       21.698      860.413
09/02/2013  07:33:00       26.552       37.093       14.517       18.449       18.331       16.400      340.366      336.012      268.954        0.162        0.047       45.617        9.615        0.044      344.734       21.763      860.417
09/02/2013  07:34:00       -2.287       39.823       -1.276       10.810       19.360       11.663      116.858      374.823      136.022        0.111        0.031       39.888       11.959        0.090      344.737       21.768      860.430
09/02/2013  07:35:00        3.322       50.688       -6.802       29.350       17.836        7.791      861.408      318.111       60.705        0.193        0.062       50.797        9.706        0.037      344.752       21.792      860.435
09/02/2013  07:36:00      -12.102       25.393        3.878       16.744       14.795       13.044      280.376      218.882      170.144        0.074        0.033       28.129       11.185        0.158      344.700       21.702      860.439
09/02/2013  07:37:00       14.163       12.943       -1.123       13.787       16.688       10.540      190.072      278.496      111.094        0.047        0.029       19.187        5.564        0.084      344.398       21.189      860.428
09/02/2013  07:38:00       12.367        6.576       -2.417       24.605       22.060       11.402      605.391      486.662      130.013        0.071        0.061       14.007        7.377        0.277      344.339       21.088      860.415
09/02/2013  07:39:00       52.128      -15.008        8.458       24.849       20.166       21.379      617.485      406.655      457.072        0.225        0.074       54.245       15.574        0.082      344.017       20.539      860.393
09/02/2013  07:40:00       42.949       -5.721       19.971       25.096       16.100       23.147      629.807      259.205      535.770        0.185        0.071       43.328       11.589        0.072      344.045       20.584      860.384
09/02/2013  07:41:00       44.463      -23.598       -1.551       32.471       24.206       23.450     1054.390      585.932      549.897        0.236        0.110       50.337       15.615        0.096      344.011       20.527      860.383
09/02/2013  07:42:00       35.150      -24.737        0.338       35.147       28.739       22.048     1235.290      825.952      486.121        0.220        0.127       42.982       11.079        0.066      343.992       20.495      860.391
09/02/2013  07:43:00       10.690      -25.337       -5.986       12.376       14.063        9.204      153.154      197.768       84.717        0.061        0.022       27.500        6.253        0.052      344.284       20.993      860.425
09/02/2013  07:44:00       26.573      -33.658      -18.671       20.047       22.601       16.207      401.873      510.792      262.660        0.168        0.059       42.884       13.202        0.095      344.259       20.951      860.453
09/02/2013  07:45:00       45.602      -21.646        7.364       28.728       18.336       20.196      825.315      336.210      407.887        0.209        0.078       50.479       12.329        0.060      344.185       20.824      860.477
09/02/2013  07:46:00       28.105       -5.612       16.079       18.010       20.258       17.136      324.348      410.384      293.632        0.105        0.051       28.659       10.811        0.142      344.063       20.616      860.495
09/02/2013  07:47:00       20.699       14.549       28.132       20.989       16.990       12.958      440.522      288.651      167.898        0.116        0.045       25.301        5.002        0.039      344.077       20.641      860.509
09/02/2013  07:48:00       33.441       10.330        8.403       20.726       15.093       18.956      429.584      227.789      359.315        0.116        0.051       35.001       12.731        0.132      344.165       20.790      860.514
09/02/2013  07:49:00       11.764        3.946       12.266       11.637       11.554       11.243      135.417      133.496      126.411        0.035        0.020       12.408        6.054        0.238      344.331       21.074      860.515
09/02/2013  07:50:00       40.231       -7.358       12.877       27.281       12.614       18.060      744.255      159.100      326.162        0.153        0.061       40.898       12.089        0.087      344.156       20.774      860.521
09/02/2013  07:51:00       22.864      -21.105       -0.882       17.488       31.715       24.469      305.836     1005.855      598.755        0.144        0.096       31.115       12.974        0.174      344.423       21.230      860.535
09/02/2013  07:52:00      -27.697       -4.264        1.110       18.563        7.484       15.067      344.577       56.012      227.011        0.071        0.031       28.023       13.058        0.217      344.463       21.301      860.553
09/02/2013  07:53:00      -68.681       -7.444      -13.084       12.984       10.504        9.312      168.590      110.340       86.709        0.265        0.018       69.084        8.805        0.016      344.492       21.350      860.577
09/02/2013  07:54:00      -76.046      -15.331      -15.364        6.517       13.464        6.244       42.474      181.277       38.982        0.326        0.013       77.576        3.283        0.002      344.612       21.556      860.597
09/02/2013  07:55:00      -57.826       -4.248       -3.521       17.699       10.298       11.907      313.248      106.052      141.782        0.197        0.028       57.982        2.215        0.001      344.946       22.129      860.626
09/02/2013  07:56:00      -54.642      -14.168       -6.596       12.514       12.963        9.713      156.602      168.040       94.345        0.182        0.021       56.449        7.427        0.017      344.803       21.879      860.642
09/02/2013  07:57:00      -29.955      -10.181       -2.793        9.804       12.852        6.078       96.128      165.174       36.945        0.065        0.015       31.638        6.186        0.038      344.822       21.914      860.652
09/02/2013  07:58:00       -5.009        1.819        6.698        7.875       12.486        8.713       62.021      155.907       75.908        0.018        0.015        5.329        5.767        1.171      344.805       21.884      860.657
09/02/2013  07:59:00        9.850        8.438        7.258       14.068       19.793       17.282      197.917      391.757      298.680        0.055        0.044       12.971       15.399        1.409      344.658       21.634      860.648
09/02/2013  08:00:00       13.053      -38.111        5.936       28.987       40.022       25.002      840.269     1601.732      625.117        0.236        0.153       40.285       15.240        0.143      344.286       20.997      860.631
09/02/2013  08:01:00        7.844      -58.490       10.478       17.323       22.965       20.155      300.095      527.372      406.237        0.241        0.062       59.013        6.004        0.010      344.452       21.281      860.629
09/02/2013  08:02:00       18.875      -37.041       -7.744       19.081       23.458       13.990      364.096      550.261      195.723        0.145        0.056       41.572        9.685        0.054      344.505       21.373      860.616
09/02/2013  08:03:00       10.124       -7.656        8.344       10.088        6.707       10.297      101.764       44.987      106.029        0.024        0.013       12.693        5.630        0.197      344.679       21.669      860.619
09/02/2013  08:04:00        9.097      -26.893       -0.775        9.175       14.373       11.363       84.186      206.579      129.125        0.061        0.021       28.389        8.999        0.100      344.695       21.697      860.629
09/02/2013  08:05:00       12.016      -15.408       -0.979        9.864        8.786       13.406       97.298       77.185      179.729        0.037        0.018       19.540        9.857        0.254      344.806       21.886      860.651
09/02/2013  08:06:00        1.840      -44.169       -3.351       17.334       15.652       10.336      300.476      244.981      106.827        0.131        0.033       44.207        7.074        0.026      344.763       21.811      860.677
09/02/2013  08:07:00       -1.916      -44.047       -6.205       18.562       12.384       10.364      344.537      153.362      107.420        0.129        0.030       44.089        5.137        0.014      344.817       21.904      860.705
09/02/2013  08:08:00      -12.291      -29.378      -10.358       26.718       20.300       10.831      713.862      412.095      117.319        0.118        0.062       31.846       13.015        0.167      344.860       21.980      860.736
09/02/2013  08:09:00      -28.720      -46.948        4.405       27.295       24.066       16.587      745.002      579.172      275.119        0.232        0.080       55.036       15.464        0.079      344.889       22.029      860.755
09/02/2013  08:10:00      -59.401      -74.178       -3.593       20.963       19.145       18.773      439.450      366.523      352.430        0.510        0.058       95.031       13.897        0.021      344.801       21.877      860.755
09/02/2013  08:11:00      -74.466      -46.184       -7.461       18.721       19.350       11.840      350.460      374.413      140.183        0.430        0.043       87.625        8.678        0.010      344.858       21.975      860.766
09/02/2013  08:12:00      -66.968      -70.720       -3.973       28.469       29.350       16.910      810.459      861.397      285.955        0.573        0.098       97.396       17.324        0.032      344.863       21.984      860.775
09/02/2013  08:13:00      -69.169      -65.429       -0.673       39.255       31.150       21.959     1540.920      970.340      482.195        0.603        0.150       95.212       23.746        0.062      344.871       21.996      860.780
09/02/2013  08:14:00      -65.074      -87.091       -1.129       28.484       34.875       17.693      811.365     1216.269      313.046        0.708        0.117      108.718       12.891        0.014      344.866       21.989      860.799
09/02/2013  08:15:00       -3.746      -91.813        2.305       37.928       37.511       24.934     1438.569     1407.093      621.707        0.596        0.173       91.890       12.918        0.020      344.908       22.060      860.824
09/02/2013  08:16:00      -61.553     -121.514       -0.321       33.980       28.707       22.883     1154.629      824.081      523.649        1.053        0.125      136.214       19.864        0.021      344.801       21.879      860.834
09/02/2013  08:17:00      -73.432     -124.512       -4.730       29.207       30.216       18.734      853.021      913.029      350.944        1.152        0.106      144.553       13.161        0.008      344.804       21.884      860.846
09/02/2013  08:18:00      -32.138      -49.416       11.997       41.026       34.116       20.277     1683.093     1163.890      411.166        0.344        0.163       58.947       25.169        0.182      344.884       22.020      860.844
09/02/2013  08:19:00      -55.128      -61.273        6.737       49.364       42.721       22.759     2436.785     1825.093      517.979        0.581        0.239       82.422       20.997        0.065      344.801       21.878      860.833
09/02/2013  08:20:00      -61.323      -68.449       -0.302       40.647       27.388       22.205     1652.209      750.108      493.050        0.567        0.145       91.901       22.452        0.060      344.785       21.849      860.824
09/02/2013  08:21:00      -96.549      -71.976      -11.890       23.655       31.202       19.909      559.560      973.556      396.361        0.829        0.096      120.425       13.119        0.012      344.844       21.951      860.809
09/02/2013  08:22:00      -77.640      -61.812        1.475       34.309       26.864       19.192     1177.087      721.669      368.330        0.606        0.113       99.240       20.883        0.044      344.889       22.026      860.820
09/02/2013  08:23:00      -88.233      -60.027       -2.322       24.260       32.995       17.754      588.542     1088.677      315.205        0.669        0.100      106.716       16.105        0.023      344.896       22.041      860.815
09/02/2013  08:24:00      -60.418      -32.433        7.471       36.851       25.998       18.336     1357.964      675.902      336.210        0.356        0.119       68.573       22.524        0.108      344.943       22.120      860.833
09/02/2013  08:25:00      -93.175      -75.043       -5.703       40.052       29.200       17.077     1604.184      852.636      291.641        0.855        0.137      119.637       13.976        0.014      344.865       21.988      860.835
09/02/2013  08:26:00      -71.931      -54.570        4.612       32.762       30.119       18.940     1073.376      907.134      358.712        0.526        0.117       90.288       17.683        0.038      344.885       22.023      860.829
09/02/2013  08:27:00      -53.234      -47.456        2.785       18.961       28.357       14.264      359.524      804.124      203.474        0.323        0.068       71.315       10.070        0.020      344.876       22.007      860.817
09/02/2013  08:28:00      -86.754       -7.756      -10.383       20.139       21.907       13.942      405.566      479.923      194.388        0.439        0.054       87.100       10.733        0.015      344.896       22.041      860.809
09/02/2013  08:29:00      -72.796      -37.423       -3.765       16.827       19.408       14.881      283.134      376.684      221.447        0.380        0.044       81.852       11.901        0.021      344.891       22.033      860.816
09/02/2013  08:30:00      -79.030      -19.668        1.133       18.916       23.359       12.236      357.799      545.666      149.729        0.384        0.053       81.441        9.847        0.015      344.922       22.085      860.820
09/02/2013  08:31:00      -99.371      -23.898       -0.605       24.613       25.339       13.280      605.796      642.079      176.356        0.593        0.071      102.204        9.542        0.009      344.935       22.106      860.833
09/02/2013  08:32:00      -75.567      -27.529       -0.303       38.338       33.372       19.527     1469.787     1113.659      381.294        0.472        0.148       80.425       21.529        0.072      344.901       22.051      860.841
09/02/2013  08:33:00      -51.314      -13.464        4.677       27.444       20.166       18.759      753.188      406.662      351.912        0.217        0.076       53.051       17.801        0.113      344.928       22.092      860.847
09/02/2013  08:34:00      -11.773       -8.242        6.017       12.991       16.569       10.071      168.766      274.518      101.422        0.039        0.027       14.371        8.720        0.368      345.026       22.263      860.836
09/02/2013  08:35:00        0.959        6.937       10.354       15.342       10.635       11.565      235.375      113.113      133.754        0.032        0.024        7.003        6.721        0.921      345.095       22.382      860.828
09/02/2013  08:36:00        0.457        5.080       -1.948        8.444       10.711        9.481       71.299      114.721       89.896        0.015        0.014        5.101        5.401        1.121      345.179       22.524      860.819
09/02/2013  08:37:00       -3.546       19.411        5.990       22.641       23.206       14.367      512.596      538.503      206.407        0.084        0.063       19.732       12.853        0.424      345.235       22.620      860.800
09/02/2013  08:38:00       14.608       12.744       -7.182       20.633       14.950       13.048      425.735      223.500      170.258        0.062        0.041       19.386       12.594        0.422      345.229       22.609      860.811
09/02/2013  08:39:00      -17.578       -4.869      -11.940       18.579       12.421        9.698      345.173      154.275       94.055        0.053        0.030       18.240        5.595        0.094      345.115       22.415      860.829
09/02/2013  08:40:00       20.531       12.604       12.372       18.871       12.190       17.350      356.112      148.588      301.028        0.077        0.040       24.091       10.951        0.207      345.060       22.319      860.835
09/02/2013  08:41:00       22.748      -27.405        1.092       19.976       15.707       10.578      399.023      246.724      111.901        0.101        0.038       35.616        9.269        0.068      344.952       22.135      860.845
09/02/2013  08:42:00        2.299      -35.431       -0.564       11.524       11.188       14.812      132.806      125.182      219.384        0.087        0.024       35.506        5.989        0.028      344.925       22.090      860.869
09/02/2013  08:43:00       24.343      -15.482       -5.484       16.708       10.918       11.213      279.164      119.199      125.739        0.069        0.026       28.849        5.038        0.030      344.974       22.172      860.890
09/02/2013  08:44:00       14.541       -6.842        7.677       19.969       16.163       22.836      398.752      261.237      521.499        0.075        0.059       16.070       17.682        1.211      345.091       22.374      860.890
09/02/2013  08:45:00        3.883       -0.251       23.243       10.857       24.162       13.652      117.885      583.820      186.389        0.072        0.044        3.891        7.728        3.945      345.157       22.486      860.899
09/02/2013  08:46:00       23.253        0.221       16.082       24.481       19.543       19.567      599.308      381.910      382.865        0.108        0.068       23.254       15.158        0.425      345.039       22.284      860.906
09/02/2013  08:47:00       11.522       12.929       27.408       28.123       21.772       17.692      790.926      474.019      312.994        0.131        0.079       17.318        7.721        0.199      345.075       22.345      860.904
09/02/2013  08:48:00       21.808       -6.822       15.533       23.384       20.271       20.006      546.789      410.906      400.238        0.106        0.068       22.850       16.615        0.529      345.077       22.350      860.895
09/02/2013  08:49:00       35.531      -12.778       -0.278       20.622       18.388       21.391      425.272      338.125      457.556        0.132        0.061       37.759       14.288        0.143      344.942       22.120      860.896
09/02/2013  08:50:00       33.801      -24.407       -4.746       24.108       17.686       20.702      581.212      312.803      428.572        0.154        0.066       41.691       12.551        0.091      344.910       22.064      860.911
09/02/2013  08:51:00       24.650      -19.553       11.003       21.149       25.088       21.386      447.260      629.406      457.356        0.132        0.077       31.463       13.045        0.172      345.110       22.406      860.934
09/02/2013  08:52:00        1.751       -9.710       32.400       10.816       21.786       10.080      116.985      474.621      101.614        0.092        0.035        9.867        2.116        0.046      345.337       22.794      860.979
09/02/2013  08:53:00        2.815       -8.324       36.209       11.618       21.647       11.309      134.982      468.614      127.883        0.106        0.037        8.787        8.099        0.850      345.420       22.936      861.030
09/02/2013  08:54:00        0.141      -25.682       18.928       10.986       24.606       16.545      120.684      605.444      273.739        0.101        0.050       25.683       14.456        0.317      345.373       22.856      861.060
09/02/2013  08:55:00       -1.889      -24.515       -5.477       13.878       20.962       15.444      192.599      439.420      238.519        0.075        0.044       24.588        8.160        0.110      345.266       22.673      861.071
09/02/2013  08:56:00       -2.609        2.315      -10.577       16.535       17.664       14.711      273.410      312.013      216.415        0.046        0.040        3.488       13.811       15.678      345.228       22.608      861.081
09/02/2013  08:57:00        0.770       -8.705       -6.282       11.615       10.876        8.500      134.900      118.286       72.256        0.022        0.016        8.739        5.383        0.379      345.305       22.740      861.091
09/02/2013  08:58:00       -0.845      -25.728       -1.017       17.412       17.449        7.893      303.188      304.475       62.296        0.067        0.033       25.742        6.353        0.061      345.286       22.707      861.093
09/02/2013  08:59:00       10.312      -28.837       14.886       14.206       22.832       11.437      201.823      521.321      130.812        0.101        0.043       30.626        9.602        0.098      345.343       22.805      861.085
09/02/2013  09:00:00       68.370      -23.231        6.587       14.835       13.656       13.038      220.068      186.484      169.991        0.292        0.029       72.209        8.513        0.014      345.229       22.608      861.071
09/02/2013  09:01:00       23.429       -7.368       14.743       23.217       17.092       16.698      539.034      292.151      278.831        0.097        0.056       24.560       13.439        0.299      345.306       22.742      861.058
09/02/2013  09:02:00       38.991      -15.051        8.475       20.766       17.487       25.439      431.237      305.798      647.155        0.160        0.069       41.795       14.541        0.121      345.024       22.257      861.041
09/02/2013  09:03:00       35.700       -4.004       13.816       23.697       14.687       17.592      561.545      215.708      309.478        0.128        0.054       35.924       11.413        0.101      345.083       22.360      861.035
09/02/2013  09:04:00        7.745      -10.672       11.621       15.564       17.313       15.776      242.251      299.740      248.891        0.055        0.040       13.187       11.815        0.803      345.352       22.822      861.054
09/02/2013  09:05:00       24.479      -36.428        0.147       22.365       17.705       18.699      500.180      313.484      349.653        0.154        0.058       43.888        9.113        0.043      345.046       22.299      861.060
09/02/2013  09:06:00       15.542        8.085        2.011       11.277       11.776       13.004      127.181      138.664      169.099        0.037        0.022       17.519        8.669        0.245      345.154       22.484      861.071
09/02/2013  09:07:00       28.272       10.883       12.783       18.768       19.975       14.929      352.224      399.008      222.869        0.103        0.049       30.294        7.301        0.058      345.140       22.458      861.066
09/02/2013  09:08:00        4.059      -13.125        7.134        8.943       10.327       10.711       79.974      106.644      114.721        0.027        0.015       13.738        6.060        0.195      345.144       22.465      861.071
09/02/2013  09:09:00       28.636      -13.411       12.900       13.076       17.615       15.986      170.976      310.277      255.551        0.095        0.037       31.621       12.514        0.157      344.774       21.832      861.074
09/02/2013  09:10:00       42.284       26.775       23.712       23.706       23.953       20.808      561.988      573.723      432.992        0.232        0.078       50.048       10.743        0.046      344.963       22.155      861.059
09/02/2013  09:11:00       37.070        1.279        5.082       13.892       16.634       17.120      192.993      276.697      293.100        0.108        0.038       37.092       12.258        0.109      344.876       22.005      861.051
09/02/2013  09:12:00       27.640       -5.667        5.006       19.084       13.059       13.660      364.199      170.536      186.593        0.077        0.036       28.215        4.798        0.029      344.965       22.158      861.055
09/02/2013  09:13:00       13.406       -5.290        1.988       15.898       12.299       16.224      252.749      151.273      263.207        0.044        0.033       14.412        9.058        0.395      345.144       22.464      861.049
09/02/2013  09:14:00       10.989       -0.572       21.994       14.788        7.961       10.466      218.688       63.382      109.536        0.050        0.020       11.004        6.832        0.385      345.437       22.967      861.051
09/02/2013  09:15:00       34.879       -0.502       28.083       27.225       19.175       19.529      741.176      367.694      381.389        0.175        0.075       34.882       13.420        0.148      345.079       22.354      861.056
09/02/2013  09:16:00       41.353      -11.138       32.599       33.619       14.934       17.682     1130.251      223.026      312.665        0.228        0.083       42.827       12.371        0.083      344.967       22.162      861.055
09/02/2013  09:17:00       30.354       -5.309        5.108       26.213       24.769       17.325      687.112      613.507      300.152        0.129        0.080       30.815       13.309        0.187      344.996       22.211      861.045
09/02/2013  09:18:00       50.814      -11.082       -4.894       24.802       29.545       37.713      615.119      872.908     1422.273        0.282        0.146       52.008       15.605        0.090      345.018       22.250      861.044
09/02/2013  09:19:00       43.910       -7.879       -3.010       24.910       34.135       21.169      620.503     1165.203      448.137        0.212        0.112       44.611       22.244        0.249      344.901       22.049      861.037
09/02/2013  09:20:00       35.806      -66.661       -0.809       33.450       20.703       23.742     1118.885      428.597      563.671        0.392        0.106       75.669       12.256        0.026      344.816       21.903      861.027
09/02/2013  09:21:00       32.791      -20.671       18.630       32.530       34.571       24.774     1058.214     1195.181      613.757        0.236        0.143       38.762       22.988        0.352      344.941       22.116      861.009
09/02/2013  09:22:00       25.193       26.086       25.376       41.900       40.844       28.473     1755.631     1668.271      810.708        0.310        0.212       36.265       16.899        0.217      345.290       22.715      860.989
09/02/2013  09:23:00       79.561       65.027       31.547       59.089       38.182       36.444     3491.520     1457.840     1328.182        0.891        0.314      102.755       18.775        0.033      345.489       23.057      860.960
09/02/2013  09:24:00      128.434       87.143       51.249       51.610       30.641       32.613     2663.548      938.857     1063.597        1.569        0.233      155.207       15.515        0.010      345.606       23.256      860.950
09/02/2013  09:25:00       77.712       53.972       31.915       62.673       35.797       31.447     3927.863     1281.438      988.943        0.808        0.310       94.616       26.830        0.080      345.735       23.478      860.943
09/02/2013  09:26:00       83.688       33.510        7.048       47.145       35.509       27.759     2222.688     1260.910      770.582        0.621        0.213       90.148       21.963        0.059      345.783       23.560      860.926
09/02/2013  09:27:00       93.401       71.896       27.284       54.986       31.427       30.387     3023.417      987.685      923.376        0.978        0.247      117.867       19.620        0.028      345.677       23.379      860.909
09/02/2013  09:28:00      114.789       76.127       18.294       48.876       44.485       46.090     2388.875     1978.885     2124.293        1.290        0.325      137.739       11.256        0.007      345.930       23.812      860.901
09/02/2013  09:29:00       59.818        8.710       14.198       52.255       48.681       33.312     2730.591     2369.851     1109.690        0.503        0.311       60.449       30.597        0.256      346.076       24.063      860.881
09/02/2013  09:30:00       59.679       37.973       26.137       48.031       48.704       29.563     2306.984     2372.053      873.999        0.562        0.278       70.735       19.775        0.078      346.193       24.264      860.876
09/02/2013  09:31:00       71.866       45.779        7.508       47.483       38.671       31.925     2254.636     1495.442     1019.212        0.604        0.238       85.208       17.592        0.043      346.022       23.971      860.861
09/02/2013  09:32:00       73.171       76.786       16.677       60.417       47.051       42.193     3650.236     2213.808     1780.245        0.958        0.382      106.067       21.869        0.043      346.073       24.058      860.856
09/02/2013  09:33:00       78.610       66.496       19.176       36.278       31.638       32.400     1316.122     1000.949     1049.741        0.717        0.168      102.962       11.076        0.012      346.075       24.061      860.859
09/02/2013  09:34:00       64.098       53.171       22.996       36.737       31.324       29.585     1349.579      981.190      875.286        0.533        0.160       83.281       19.495        0.055      346.113       24.127      860.851
09/02/2013  09:35:00       43.412       41.074       30.838       40.870       38.706       33.638     1670.335     1498.158     1131.532        0.441        0.215       59.764       23.807        0.159      346.045       24.010      860.847
09/02/2013  09:36:00      129.116       90.863       14.056       50.648       32.063       29.119     2565.234     1028.035      847.940        1.478        0.222      157.883       25.053        0.025      346.034       23.992      860.843
09/02/2013  09:37:00      163.638      110.000        5.216       32.310       31.126       33.192     1043.934      968.799     1101.741        2.101        0.156      197.173       15.236        0.006      346.005       23.940      860.847
09/02/2013  09:38:00      145.667      111.421       22.667       50.745       40.550       39.669     2575.105     1644.270     1573.666        1.997        0.290      183.394       15.836        0.007      346.082       24.072      860.830
09/02/2013  09:39:00      152.238      108.630       12.209       61.749       54.797       42.172     3812.923     3002.742     1778.471        2.186        0.430      187.021       33.991        0.033      346.002       23.933      860.826
09/02/2013  09:40:00      112.050       93.012       24.054       43.446       34.689       39.279     1887.532     1203.341     1542.851        1.321        0.232      145.624       21.880        0.023      346.104       24.113      860.808
09/02/2013  09:41:00       36.026       30.324       21.386       35.122       30.570       26.777     1233.583      934.496      716.998        0.278        0.144       47.089       14.329        0.093      346.434       24.681      860.793
09/02/2013  09:42:00       93.882       74.904       60.083       71.885       48.933       38.173     5167.492     2394.411     1457.197        1.352        0.451      120.102       30.289        0.064      346.426       24.663      860.775
09/02/2013  09:43:00       85.790       62.157       61.695       80.540       52.873       45.202     6486.762     2795.591     2043.240        1.318        0.566      105.940       34.972        0.109      346.386       24.596      860.767
09/02/2013  09:44:00      129.179       81.535       25.414       59.084       60.269       39.921     3490.897     3632.359     1593.684        1.635        0.436      152.759       23.112        0.023      346.192       24.262      860.764
09/02/2013  09:45:00       85.494       75.966       21.613       45.669       34.171       38.753     2085.676     1167.652     1501.792        0.915        0.238      114.368       26.297        0.053      346.344       24.525      860.760
09/02/2013  09:46:00       91.777       64.009       11.287       37.739       36.113       29.931     1424.254     1304.132      895.845        0.814        0.181      111.894        9.435        0.007      346.329       24.498      860.765
09/02/2013  09:47:00       63.115       28.085       10.052       46.899       31.926       33.127     2199.480     1019.252     1097.426        0.459        0.216       69.082       25.541        0.137      346.580       24.929      860.770
09/02/2013  09:48:00       95.906       77.367       18.796       61.524       42.370       31.881     3785.239     1795.192     1016.419        1.107        0.330      123.222       23.920        0.038      346.200       24.275      860.775
09/02/2013  09:49:00       60.390       50.224       21.464       40.899       44.033       35.679     1672.742     1938.928     1273.013        0.576        0.244       78.545       14.999        0.036      346.364       24.557      860.771
09/02/2013  09:50:00       74.923       26.326       43.820       50.260       60.573       38.662     2526.086     3669.123     1494.766        0.796        0.384       79.413       33.146        0.174      346.323       24.487      860.765
09/02/2013  09:51:00      138.546       81.398       28.575       58.213       39.786       34.453     3388.730     1582.957     1187.010        1.640        0.308      160.688       15.138        0.009      346.256       24.371      860.758
09/02/2013  09:52:00      138.750       89.130       34.523       46.839       34.099       39.910     2193.846     1162.746     1592.790        1.667        0.247      164.911       27.275        0.027      346.146       24.182      860.760
09/02/2013  09:53:00      120.126       91.916       40.739       37.675       30.325       24.951     1419.394      919.585      622.531        1.375        0.148      151.258       11.319        0.006      346.151       24.191      860.747
09/02/2013  09:54:00       58.160       55.130        6.581       23.285       20.900       22.913      542.199      436.828      525.018        0.398        0.075       80.137       11.498        0.021      346.473       24.747      860.737
09/02/2013  09:55:00       63.568       54.875       15.021       42.255       30.209       28.306     1785.525      912.554      801.240        0.539        0.175       83.977       15.785        0.035      346.441       24.693      860.730
09/02/2013  09:56:00       30.711       44.934        6.174       21.452       28.770       23.052      460.208      827.700      531.385        0.241        0.091       54.426       16.533        0.092      346.496       24.784      860.726
09/02/2013  09:57:00       13.323       18.147       12.675       29.433       20.193       19.677      866.306      407.757      387.181        0.116        0.083       22.512       16.312        0.525      346.875       25.438      860.719
09/02/2013  09:58:00       56.653       46.421       20.494       37.207       27.231       24.650     1384.365      741.536      607.637        0.426        0.137       73.243       15.055        0.042      346.581       24.934      860.726
09/02/2013  09:59:00       21.842       51.547        3.885       25.390       32.054       22.396      644.662     1027.457      501.586        0.266        0.109       55.983       17.830        0.101      346.777       25.270      860.734
09/02/2013  10:00:00       49.678       35.662        8.048       30.777       24.683       28.499      947.207      609.242      812.210        0.309        0.118       61.153       16.592        0.074      346.705       25.144      860.750
09/02/2013  10:01:00       38.517       44.048       10.316       34.313       24.106       23.221     1177.373      581.115      539.209        0.291        0.115       58.513       10.757        0.034      346.769       25.254      860.757
09/02/2013  10:02:00       59.369       43.421       21.982       40.227       30.968       33.056     1618.249      958.994     1092.667        0.478        0.183       73.553       19.405        0.070      346.843       25.382      860.760
09/02/2013  10:03:00       49.570       44.116       13.918       24.602       26.745       20.512      605.281      715.284      420.751        0.317        0.087       66.358       12.836        0.037      346.727       25.182      860.749
09/02/2013  10:04:00       76.801       69.839       16.709       30.296       30.707       28.389      917.823      942.922      805.938        0.686        0.133      103.807       19.922        0.037      346.841       25.379      860.746
09/02/2013  10:05:00       64.442       56.635       21.768       40.764       23.477       26.353     1661.722      551.190      694.468        0.537        0.145       85.792       17.930        0.044      346.551       24.880      860.740
09/02/2013  10:06:00        5.671       26.030       20.339       19.965       27.485       21.922      398.618      755.443      480.564        0.138        0.082       26.640       19.838        0.555      347.131       25.878      860.751
09/02/2013  10:07:00       -1.407       38.722       13.360       23.623       28.614       22.577      558.035      818.741      509.740        0.178        0.094       38.748       21.650        0.312      346.997       25.647      860.755
09/02/2013  10:08:00       -6.345       19.016       16.739       13.918       15.601       13.122      193.708      243.378      172.178        0.065        0.030       20.047        7.216        0.130      347.262       26.103      860.758
09/02/2013  10:09:00        0.120       11.384       13.855       11.150       24.476       19.928      124.328      599.064      397.110        0.072        0.056       11.385       14.555        1.634      347.205       26.005      860.769
09/02/2013  10:10:00       12.369       71.876       -7.107       51.895       36.065       32.544     2693.088     1300.712     1059.101        0.521        0.253       72.932       20.493        0.079      346.933       25.539      860.768
09/02/2013  10:11:00       81.914       70.248       12.241       64.043       44.451       41.993     4101.507     1975.929     1763.446        0.982        0.392      107.910       30.105        0.078      346.874       25.436      860.753
09/02/2013  10:12:00       49.281       47.323       37.693       44.553       38.199       42.088     1984.928     1459.180     1771.423        0.565        0.261       68.324       30.977        0.206      347.124       25.866      860.742
09/02/2013  10:13:00      151.482      102.763       51.269       48.865       43.724       40.306     2387.784     1911.826     1624.543        2.103        0.296      183.049       25.002        0.019      346.613       24.986      860.723
09/02/2013  10:14:00       96.703       71.022        8.122       50.028       48.543       44.738     2502.810     2356.416     2001.528        1.066        0.343      119.982       32.620        0.074      346.855       25.403      860.708
09/02/2013  10:15:00       16.303      126.767       -9.400       61.431       48.817       28.343     3773.771     2383.076      803.305        1.169        0.348      127.811       21.694        0.029      346.922       25.517      860.704
09/02/2013  10:16:00       47.391       79.926       36.723       52.099       58.095       47.320     2714.340     3375.004     2239.217        0.915        0.416       92.920       33.389        0.129      347.296       26.162      860.683
09/02/2013  10:17:00       38.082       32.094       18.591       48.467       46.000       24.370     2349.069     2115.981      593.878        0.394        0.253       49.802       17.925        0.130      347.419       26.375      860.673
09/02/2013  10:18:00       -2.164       -4.328       19.451       29.720       31.089       20.961      883.250      966.540      439.366        0.134        0.114        4.838       11.630        5.778      347.484       26.487      860.662
09/02/2013  10:19:00        6.255       -3.432       10.243       20.832       28.099       22.547      433.989      789.558      508.353        0.094        0.087        7.135       19.759        7.669      346.983       25.624      860.646
09/02/2013  10:20:00      -15.390      -17.817        7.921       14.744       20.320       16.540      217.397      412.912      273.570        0.076        0.045       23.544        8.490        0.130      346.904       25.489      860.632
09/02/2013  10:21:00       11.145       59.860       18.422       37.233       49.679       27.811     1386.288     2468.015      773.473        0.434        0.231       60.889       31.864        0.274      347.216       26.024      860.614
09/02/2013  10:22:00       65.901       57.517       10.379       38.552       44.234       33.613     1486.265     1956.620     1129.847        0.616        0.229       87.470       21.543        0.061      346.975       25.611      860.606
09/02/2013  10:23:00       77.336       55.320      -11.711       40.285       33.797       26.646     1622.857     1142.218      710.034        0.633        0.174       95.085       27.311        0.082      346.658       25.063      860.606
09/02/2013  10:24:00       16.280      -14.381       -1.583       14.917       34.770       15.634      222.522     1208.985      244.421        0.107        0.084       21.722       13.052        0.361      347.028       25.699      860.606
09/02/2013  10:25:00       10.229      -62.028       -7.690       24.505       35.099       21.857      600.497     1231.971      477.718        0.316        0.116       62.866       13.741        0.048      346.701       25.137      860.606
09/02/2013  10:26:00       51.047      -44.647       19.311       73.471       88.182       53.919     5398.037     7776.087     2907.246        1.052        0.804       67.817       61.782        0.830      347.333       26.226      860.578
09/02/2013  10:27:00       54.456       37.763       79.440       56.350       69.831       65.699     3175.314     4876.330     4316.299        1.153        0.618       66.268       56.304        0.722      347.200       25.997      860.558
09/02/2013  10:28:00       15.607       22.671       55.836       47.568       70.300       38.831     2262.718     4942.083     1507.865        0.629        0.436       27.524       44.600        2.626      347.172       25.948      860.537
09/02/2013  10:29:00       24.655      -27.907       46.942       41.509       87.019       46.395     1723.023     7572.233     2152.526        0.752        0.572       37.238       34.375        0.852      347.431       26.394      860.513
09/02/2013  10:30:00       24.649       49.596       56.645       42.813       42.053       37.721     1832.919     1768.421     1422.870        0.565        0.251       55.384       17.438        0.099      347.138       25.892      860.514
09/02/2013  10:31:00       23.911      -27.614       24.747       43.252       43.900       37.692     1870.769     1927.249     1420.711        0.358        0.261       36.528       30.448        0.695      347.248       26.080      860.522
09/02/2013  10:32:00       -4.730       27.456       46.998       31.419       23.794       23.181      987.152      566.160      537.345        0.254        0.105       27.861       19.657        0.498      347.117       25.854      860.512
09/02/2013  10:33:00       17.990        2.416        1.189       17.299       17.777       26.017      299.248      316.022      676.862        0.081        0.065       18.152       15.805        0.758      346.919       25.513      860.511
09/02/2013  10:34:00       20.908      -24.531       -2.466       35.940       24.034       22.986     1291.703      577.655      528.371        0.172        0.120       32.233       13.698        0.181      346.944       25.556      860.496
09/02/2013  10:35:00       19.180      -35.266       13.225       31.232       35.113       24.318      975.412     1232.944      591.388        0.229        0.140       40.145       20.988        0.273      347.365       26.281      860.492
09/02/2013  10:36:00       43.883      -67.212        5.889       39.190       46.335       36.924     1535.850     2146.979     1363.355        0.576        0.252       80.269       23.795        0.088      346.962       25.588      860.490
09/02/2013  10:37:00      -30.227       -1.643        4.691       27.957       17.904       27.037      781.595      320.543      730.994        0.139        0.092       30.271       16.809        0.308      347.267       26.115      860.484
09/02/2013  10:38:00      -14.734      -12.991        3.686       21.894       17.135       15.435      479.334      293.594      238.251        0.071        0.051       19.643       10.309        0.275      347.254       26.089      860.490
09/02/2013  10:39:00       20.740       16.921       -8.573       34.328       37.220       25.036     1178.429     1385.323      626.778        0.199        0.160       26.766       12.908        0.233      346.853       25.399      860.484
09/02/2013  10:40:00       35.595       20.613       14.074       44.417       27.365       25.433     1972.873      748.871      646.845        0.263        0.168       41.132       28.094        0.467      346.937       25.544      860.483
09/02/2013  10:41:00       57.021       25.266        9.828       39.536       38.266       28.458     1563.076     1464.307      809.872        0.391        0.192       62.368       11.498        0.034      346.860       25.411      860.484
09/02/2013  10:42:00       -0.059       74.359       18.252       41.059       52.942       28.341     1685.813     2802.810      803.230        0.558        0.265       74.359       28.954        0.152      347.290       26.152      860.486
09/02/2013  10:43:00       50.124       37.418       10.701       36.577       28.034       24.271     1337.888      785.903      589.101        0.337        0.136       62.550       14.341        0.053      347.041       25.723      860.483
09/02/2013  10:44:00       27.054       30.783       -0.484       44.630       45.427       31.771     1991.805     2063.625     1009.407        0.337        0.253       40.982       13.689        0.112      347.103       25.830      860.479
09/02/2013  10:45:00       55.762      120.439       -3.433       75.895       60.883       46.112     5760.052     3706.746     2126.345        1.461        0.580      132.721       40.671        0.094      347.035       25.712      860.457
09/02/2013  10:46:00       33.814      126.008        0.807       55.426       92.282       44.830     3072.036     8515.940     2009.771        1.531        0.680      130.466       44.421        0.116      347.029       25.700      860.452
09/02/2013  10:47:00        6.881       29.512       19.293       30.852       40.713       28.976      951.823     1657.537      839.605        0.237        0.172       30.303       21.914        0.523      347.454       26.437      860.439
09/02/2013  10:48:00      -28.579      113.803       -3.126       42.227       56.353       36.765     1783.125     3175.628     1351.681        1.004        0.316      117.336       31.048        0.070      347.128       25.873      860.438
09/02/2013  10:49:00        7.527       46.077       -4.441       39.283       67.414       25.480     1543.123     4544.624      649.216        0.447        0.337       46.688       33.448        0.513      347.531       26.569      860.429
09/02/2013  10:50:00       71.624       40.068       23.502       41.237       44.177       37.028     1700.528     1951.566     1371.062        0.615        0.251       82.070       21.352        0.068      347.450       26.429      860.432
09/02/2013  10:51:00       16.358        9.340       39.273       39.535       36.479       40.527     1562.989     1330.735     1642.400        0.322        0.227       18.836       27.025        2.058      347.155       25.920      860.433
09/02/2013  10:52:00       89.388       82.901       27.633       55.295       33.428       43.809     3057.562     1117.455     1919.226        1.086        0.305      121.913       23.417        0.037      346.965       25.593      860.432
09/02/2013  10:53:00       40.228      -25.228       -2.824       50.587       54.385       21.518     2559.047     2957.684      463.008        0.412        0.299       47.484       24.423        0.265      346.812       25.329      860.440
09/02/2013  10:54:00       21.503      -12.948        7.157       38.405       42.268       29.146     1474.944     1786.565      849.465        0.240        0.206       25.100       16.308        0.422      346.933       25.537      860.440
09/02/2013  10:55:00       34.839      -23.366       14.967       57.130      100.527       47.390     3263.818    10105.615     2245.816        0.880        0.781       41.949       41.560        0.982      347.454       26.436      860.440
09/02/2013  10:56:00       61.215      -23.835       30.776       73.405       99.804       41.555     5388.225     9960.797     1726.778        1.117        0.854       65.692       57.063        0.755      347.405       26.350      860.472
09/02/2013  10:57:00       56.915      -13.534       40.910       51.097       35.651       34.726     2610.878     1270.981     1205.910        0.509        0.254       58.502       28.489        0.237      347.242       26.068      860.492
09/02/2013  10:58:00       83.270       -0.257       55.839       42.920       42.325       28.223     1842.164     1791.436      796.542        0.724        0.222       83.270       19.561        0.055      347.105       25.833      860.504
09/02/2013  10:59:00       -1.714       -8.102        9.199       28.552       28.138       27.092      815.191      791.729      733.970        0.125        0.117        8.281       24.139        8.497      347.191       25.981      860.485
09/02/2013  11:00:00       14.724      -13.724       22.059       24.769       18.024       21.585      613.520      324.852      465.900        0.115        0.070       20.128       15.953        0.628      347.429       26.393      860.474
09/02/2013  11:01:00       -4.504       -4.876       19.243       27.783       33.774       25.165      771.887     1140.691      633.270        0.148        0.127        6.638       18.184        7.505      347.206       26.008      860.470
09/02/2013  11:02:00       18.133       41.068       61.895       37.069       37.907       26.091     1374.125     1436.932      680.758        0.467        0.175       44.893        7.806        0.030      347.585       26.660      860.472
09/02/2013  11:03:00       83.079       96.555       83.374       96.756       54.079       44.667     9361.769     2924.565     1995.161        1.873        0.714      127.377       32.882        0.067      347.473       26.465      860.477
09/02/2013  11:04:00      148.505      113.167       29.542       86.158       52.908       57.859     7423.256     2799.243     3347.715        2.465        0.679      186.710       25.654        0.019      347.297       26.161      860.487
09/02/2013  11:05:00      138.646       97.145       34.638       76.258       47.365       35.097     5815.277     2243.465     1231.798        1.957        0.465      169.293       27.245        0.026      347.277       26.128      860.476
09/02/2013  11:06:00      118.860       77.323       13.058       65.017       58.600       41.041     4227.150     3433.911     1684.341        1.481        0.467      141.798       27.217        0.037      347.349       26.252      860.476
09/02/2013  11:07:00       90.961       49.260       23.725       69.521       54.439       45.559     4833.182     2963.593     2075.628        1.057        0.494      103.443       35.978        0.121      347.734       26.918      860.472
09/02/2013  11:08:00       50.993       11.920       42.400       67.166       66.480       39.583     4511.230     4419.648     1566.836        0.752        0.525       52.368       39.146        0.559      347.400       26.342      860.488
09/02/2013  11:09:00       70.937      -18.935       14.605       57.737       38.591       31.964     3333.506     1489.256     1021.670        0.572        0.292       73.421       19.090        0.068      347.132       25.878      860.493
09/02/2013  11:10:00       34.432       41.956       21.234       37.130       43.042       31.636     1378.647     1852.578     1000.808        0.381        0.212       54.276       20.030        0.136      347.161       25.931      860.504
09/02/2013  11:11:00       10.871      -11.237       26.271       72.162       69.689       44.515     5207.331     4856.616     1981.587        0.649        0.602       15.635       49.856       10.168      347.778       26.994      860.509
09/02/2013  11:12:00        7.502       -5.522       35.116       40.636       63.509       34.915     1651.284     4033.395     1219.089        0.411        0.345        9.315       28.758        9.531      348.093       27.539      860.525
09/02/2013  11:13:00       57.438      -77.780       13.876       44.996       59.460       35.551     2024.607     3535.541     1263.863        0.818        0.341       96.689       25.534        0.070      347.794       27.021      860.526
09/02/2013  11:14:00       33.013      -69.019       30.093       37.661      106.549       38.081     1418.333    11352.729     1450.161        1.049        0.711       76.508       41.025        0.288      347.698       26.855      860.529
09/02/2013  11:15:00       56.778       32.049       34.803       53.586       62.048       38.691     2871.419     3850.001     1496.975        0.684        0.411       65.199       30.450        0.218      347.593       26.674      860.503
09/02/2013  11:16:00       35.903       28.012       43.519       51.059       55.864       31.768     2607.030     3120.744     1009.223        0.535        0.337       45.538       22.324        0.240      348.061       27.485      860.475
09/02/2013  11:17:00       82.646      -77.216        8.386       78.528      117.411       57.449     6166.641    13785.391     3300.375        1.805        1.163      113.104       80.759        0.510      347.616       26.713      860.449
09/02/2013  11:18:00       73.086      -44.827       26.903       70.771       97.877       50.765     5008.529     9579.888     2577.059        1.262        0.858       85.738       52.593        0.376      347.879       27.168      860.432
09/02/2013  11:19:00       39.929      -34.893       42.581       74.792       92.437       60.689     5593.898     8544.631     3683.136        1.122        0.891       53.026       61.237        1.334      347.952       27.294      860.411
09/02/2013  11:20:00       94.576      -48.183       69.254      105.099      158.332       90.544    11045.778    25068.866     8198.265        3.018        2.216      106.143      103.623        0.953      348.055       27.469      860.396
09/02/2013  11:21:00      147.821      -51.803       49.074      119.663      200.205      120.192    14319.228    40082.014    14446.074        4.788        3.442      156.635      137.288        0.768      347.693       26.845      860.393
09/02/2013  11:22:00       54.808      -41.474       19.876       75.284      109.439       64.836     5667.739    11976.934     4203.672        1.348        1.092       68.732       75.846        1.218      347.869       27.150      860.406
09/02/2013  11:23:00      -39.404      -66.947       -2.330       78.257       52.025       40.531     6124.189     2706.610     1642.749        0.825        0.524       77.682       31.499        0.164      347.646       26.766      860.401
09/02/2013  11:24:00       32.316      -38.071        9.872       38.231       46.276       31.010     1461.644     2141.464      961.620        0.358        0.228       49.938       26.666        0.285      347.917       27.233      860.390
09/02/2013  11:25:00       -3.347     -193.265      -11.321       95.015       70.194       45.508     9027.906     4927.193     2070.991        2.676        0.801      193.294       34.395        0.032      347.708       26.871      860.386
09/02/2013  11:26:00       -4.351      -13.349       50.474       48.767       71.212       48.264     2378.197     5071.156     2329.387        0.626        0.489       14.040       49.752       12.557      348.028       27.428      860.367
09/02/2013  11:27:00       16.806      -79.655       30.911       77.959      137.794       62.402     6077.613    18987.105     3893.984        1.826        1.448       81.408       70.999        0.761      347.845       27.109      860.367
09/02/2013  11:28:00       64.406      -79.944       52.326       78.469      139.583       73.209     6157.442    19483.364     5359.588        2.213        1.550      102.660       90.619        0.779      348.000       27.376      860.333
09/02/2013  11:29:00      144.861     -105.307       21.535      119.875      166.589      135.706    14369.981    27751.940    18415.997        4.653        3.027      179.092      134.256        0.562      348.045       27.453      860.323
09/02/2013  11:30:00      144.898     -200.592      -25.307      103.781      159.074       96.202    10770.434    25304.629     9254.896        5.359        2.266      247.452      100.663        0.165      347.691       26.840      860.380
09/02/2013  11:31:00      -41.820     -197.653      -17.718      131.145      125.945       48.641    17199.130    15862.168     2365.980        3.827        1.771      202.029       37.778        0.035      347.568       26.627      860.415
09/02/2013  11:32:00      -57.104      -71.060       -3.609       45.144       42.725       22.280     2037.954     1825.460      496.396        0.634        0.218       91.161       16.626        0.033      347.523       26.555      860.391
09/02/2013  11:33:00        5.302      -63.438       14.908       54.014       85.001       57.220     2917.508     7225.113     3274.143        0.884        0.671       63.660       61.466        0.932      347.780       26.998      860.359
09/02/2013  11:34:00     -142.306     -122.440       -5.574      125.856       84.196       50.572    15839.791     7088.995     2557.486        3.037        1.274      187.730       61.320        0.107      347.601       26.684      860.345
09/02/2013  11:35:00      -33.903      -62.365      -10.383       83.356       86.010       59.711     6948.205     7397.758     3565.439        1.153        0.896       70.985       57.773        0.662      347.935       27.265      860.330
09/02/2013  11:36:00      -41.143      -36.651       -8.520       40.262       58.226       35.155     1621.014     3390.250     1235.894        0.468        0.312       55.100       21.677        0.155      347.742       26.932      860.330
09/02/2013  11:37:00      -27.827      -68.398       -6.237       54.830       67.121       45.305     3006.284     4505.231     2052.499        0.753        0.478       73.842       32.496        0.194      348.152       27.641      860.309
09/02/2013  11:38:00      104.057     -126.648       16.719      102.812       95.764       78.081    10570.249     9170.793     6096.681        2.649        1.292      163.913       63.500        0.150      347.906       27.214      860.310
09/02/2013  11:39:00      -31.916      -94.596       25.917       64.935       63.184       58.743     4216.493     3992.203     3450.727        1.115        0.583       99.835       43.402        0.189      348.206       27.731      860.299
09/02/2013  11:40:00      -69.622      -41.831       12.812       89.021       45.801       44.776     7924.790     2097.706     2004.864        0.939        0.601       81.223       31.232        0.148      348.310       27.912      860.296
09/02/2013  11:41:00     -150.153      -99.527       14.288       96.244       69.714       45.518     9262.956     4860.021     2071.857        2.442        0.810      180.143       41.549        0.053      347.785       27.004      860.305
09/02/2013  11:42:00     -147.860     -165.973        3.445       79.996       89.192       41.010     6399.425     7955.192     1681.796        3.273        0.802      222.283       41.184        0.034      347.565       26.621      860.287
09/02/2013  11:43:00     -126.051     -110.496       -0.065       65.213       71.353       44.997     4252.698     5091.204     2024.766        1.973        0.568      167.625       31.195        0.035      347.686       26.834      860.279
09/02/2013  11:44:00      -80.059     -108.256        0.750       60.476       60.631       31.173     3657.313     3676.131      971.740        1.322        0.415      134.644       29.037        0.047      347.633       26.743      860.289
09/02/2013  11:45:00        0.912      -39.476       22.621       61.314       66.620       43.976     3759.466     4438.233     1933.928        0.610        0.507       39.487       35.388        0.803      348.433       28.126      860.280
09/02/2013  11:46:00      129.253        9.585       97.059      120.949      128.176       95.267    14628.565    16429.066     9075.870        3.317        2.007      129.608       92.511        0.509      348.308       27.906      860.260
09/02/2013  11:47:00       85.872     -103.575       38.753       84.622      127.779       83.611     7160.864    16327.558     6990.873        2.504        1.524      134.543       77.094        0.328      348.071       27.499      860.285
09/02/2013  11:48:00      142.179     -203.603      -27.550       63.345       63.845       44.391     4012.606     4076.201     1970.533        3.624        0.503      248.332       33.954        0.019      347.848       27.112      860.267
09/02/2013  11:49:00       19.408      -48.103       21.000       52.054       90.957       54.102     2709.577     8273.146     2927.021        0.852        0.695       51.871       52.144        1.011      348.418       28.099      860.278
09/02/2013  11:50:00      -26.947      -61.510        0.855       80.749       84.499       54.314     6520.360     7140.139     2950.025        1.056        0.831       67.154       45.394        0.457      348.189       27.704      860.270
09/02/2013  11:51:00       -1.381      -25.261       55.747       53.273       60.094       44.773     2838.062     3611.326     2004.581        0.610        0.423       25.298       30.948        1.497      348.485       28.216      860.250
09/02/2013  11:52:00        5.229      -35.827       36.403       54.916       67.807       35.404     3015.747     4597.788     1253.413        0.575        0.443       36.207       13.639        0.142      348.247       27.805      860.236
09/02/2013  11:53:00       42.385       57.278       90.726       68.518       81.648       54.916     4694.763     6666.317     3015.766        1.384        0.719       71.255       43.969        0.381      348.264       27.834      860.218
09/02/2013  11:54:00      207.523     -206.469      -50.317      100.131      108.128       61.923    10026.137    11691.740     3834.478        5.688        1.278      292.737       65.604        0.050      347.813       27.051      860.227
09/02/2013  11:55:00       80.613      -94.429      -10.407       58.506       86.652       54.461     3422.937     7508.495     2965.964        1.471        0.695      124.158       51.184        0.170      347.781       26.996      860.257
09/02/2013  11:56:00        3.211       -3.648       25.642       37.728       76.135       54.760     1423.402     5796.597     2998.617        0.545        0.511        4.860       46.612       92.001      348.257       27.820      860.238
09/02/2013  11:57:00       74.734      -80.904       15.593       81.830      105.792       72.856     6696.079    11191.919     5307.933        1.778        1.160      110.139       72.536        0.434      348.038       27.442      860.230
09/02/2013  11:58:00      125.193     -118.927        8.869      102.191      141.035       93.122    10442.928    19890.764     8671.709        3.444        1.950      172.676      108.890        0.398      347.737       26.921      860.233
09/02/2013  11:59:00       18.020     -120.631      -19.228       63.880       75.495       34.095     4080.711     5699.430     1162.502        1.309        0.547      121.969       24.034        0.039      347.761       26.964      860.214
09/02/2013  12:00:00       80.462     -201.972        8.371       53.818       81.447       53.229     2896.334     6633.635     2833.287        2.985        0.618      217.409       45.731        0.044      347.941       27.271      860.185
09/02/2013  12:01:00       52.028       65.667      124.109       80.413      111.906       83.527     6466.325    12523.040     6976.764        2.419        1.298       83.780       70.260        0.703      348.316       27.921      860.161
09/02/2013  12:02:00      198.661     -246.872      -63.945       85.126       85.707       55.799     7246.403     7345.637     3113.572        6.110        0.885      316.878       40.747        0.017      347.818       27.059      860.181
09/02/2013  12:03:00      168.436     -245.176      -51.127       87.599       95.899       46.377     7673.564     9196.689     2150.796        5.505        0.951      297.459       45.602        0.024      347.658       26.784      860.221
09/02/2013  12:04:00       88.417     -109.986      -12.555       55.661       65.890       42.846     3098.117     4341.450     1835.776        1.467        0.464      141.119       42.140        0.089      347.693       26.846      860.257
09/02/2013  12:05:00      -35.768       -8.467      -15.924       77.304       54.562       28.646     5975.949     2976.991      820.616        0.569        0.489       36.757       20.627        0.315      347.679       26.822      860.243
09/02/2013  12:06:00       -0.828      -35.343        4.599       48.832       38.714       31.888     2384.551     1498.736     1016.876        0.308        0.245       35.353       30.238        0.732      347.963       27.314      860.219
09/02/2013  12:07:00      -22.264        3.598       -9.172       33.010       36.909       22.574     1089.629     1362.281      509.605        0.178        0.148       22.553       15.637        0.481      348.074       27.506      860.206
09/02/2013  12:08:00        3.843       67.171        5.359       22.230       44.219       31.971      494.177     1955.319     1022.139        0.401        0.174       67.281        5.346        0.006      347.943       27.280      860.193
09/02/2013  12:09:00      -21.981       42.250       28.842       41.524       28.554       24.761     1724.271      815.319      613.109        0.313        0.158       47.625       26.933        0.320      348.022       27.416      860.192
09/02/2013  12:10:00       21.300        9.231       14.479       27.883       23.026       32.811      777.454      530.178     1076.567        0.157        0.119       23.214       13.766        0.352      348.007       27.389      860.196
09/02/2013  12:11:00       25.412       43.175       13.968       33.272       40.126       33.338     1107.049     1610.131     1111.419        0.327        0.191       50.098       19.690        0.154      347.847       27.115      860.191
09/02/2013  12:12:00       41.412       11.384        9.351       31.258       26.508       28.710      977.032      702.668      824.280        0.222        0.125       42.949       13.661        0.101      347.692       26.846      860.195
09/02/2013  12:13:00       33.275       12.171       42.741       36.333       34.669       24.000     1320.078     1201.927      576.018        0.309        0.155       35.431       17.360        0.240      347.855       27.127      860.196
09/02/2013  12:14:00       48.655       43.692       53.267       67.241       83.677       54.574     4521.344     7001.795     2978.312        1.080        0.725       65.393       58.806        0.809      348.097       27.544      860.180
09/02/2013  12:15:00       87.958       75.686       78.150       91.041       52.271       38.863     8288.544     2732.299     1510.309        1.605        0.627      116.039       31.565        0.074      348.224       27.761      860.173
09/02/2013  12:16:00       73.734       64.084       89.870      105.072       80.471       65.139    11040.101     6475.604     4243.071        1.969        1.088       97.691       32.967        0.114      348.173       27.675      860.150
09/02/2013  12:17:00       11.774      -85.687        2.219       64.852       89.537       42.631     4205.734     8016.822     1817.431        1.076        0.702       86.492       25.811        0.089      347.707       26.871      860.151
09/02/2013  12:18:00      -40.497      -30.548        7.107       49.259       38.400       32.892     2426.441     1474.595     1081.903        0.380        0.249       50.727       31.275        0.380      347.842       27.104      860.138
09/02/2013  12:19:00      -27.074       34.172        1.189       24.696       33.348       23.862      609.917     1112.114      569.386        0.210        0.115       43.598       16.035        0.135      347.974       27.332      860.110
09/02/2013  12:20:00      -12.037      -14.472       16.527       17.026       14.713       12.912      289.870      216.470      166.727        0.065        0.034       18.824       11.976        0.405      348.385       28.043      860.096
09/02/2013  12:21:00       -6.717      -18.558       -4.891       13.961       13.145       14.367      194.897      172.794      206.401        0.049        0.029       19.736       10.299        0.272      348.034       27.436      860.075
09/02/2013  12:22:00       15.489       12.192       34.943       24.365       21.484       24.024      593.644      461.582      577.144        0.162        0.082       19.712       14.841        0.567      348.720       28.622      860.052
09/02/2013  12:23:00       86.998       79.244       39.319       68.588       47.008       64.384     4704.302     2209.714     4145.239        1.322        0.553      117.679       53.050        0.203      348.074       27.505      860.052
09/02/2013  12:24:00      164.519       97.151       31.032       63.084       38.132       52.169     3979.563     1454.045     2721.587        2.281        0.408      191.062       27.361        0.021      348.068       27.493      860.058
09/02/2013  12:25:00      116.272       74.902       61.480       67.734       58.892       53.018     4587.942     3468.307     2810.880        1.689        0.543      138.310       41.569        0.090      348.185       27.696      860.034
09/02/2013  12:26:00      178.119       65.413       77.181      118.829      111.676       81.891    14120.293    12471.470     6706.212        3.762        1.665      189.751       47.318        0.062      348.141       27.618      859.989
09/02/2013  12:27:00      168.074      -39.426       59.535       99.203      135.224       88.839     9841.237    18285.456     7892.295        3.468        1.801      172.636       86.298        0.250      348.084       27.519      859.953
09/02/2013  12:28:00      101.815       38.494      138.860      143.908      215.233      126.812    20709.651    46325.454    16081.172        5.711        4.156      108.849      148.760        1.868      348.327       27.938      859.935
09/02/2013  12:29:00      253.019     -212.195        6.944      157.994      174.145       98.359    24962.159    30326.334     9674.401        8.702        3.248      330.220      115.363        0.122      348.095       27.537      859.906
09/02/2013  12:30:00      181.198     -170.997        0.022      121.417      165.146       89.915    14742.177    27273.316     8084.676        5.608        2.505      249.144      101.711        0.167      348.077       27.507      859.914
09/02/2013  12:31:00       45.327      -12.501       27.102       55.958       68.958       42.042     3131.286     4755.154     1767.566        0.630        0.483       47.020       43.873        0.871      348.298       27.892      859.888
09/02/2013  12:32:00       88.736      -70.564        6.696       99.394      102.199       42.470     9879.135    10444.683     1803.732        1.751        1.106      113.373       54.773        0.233      348.251       27.811      859.878
09/02/2013  12:33:00      236.363     -122.396       62.342      181.735      182.966      107.474    33027.477    33476.402    11550.608        7.638        3.903      266.174      122.632        0.212      348.375       28.022      859.852
09/02/2013  12:34:00      126.651      -22.434      111.193      161.449      240.861      142.399    26065.928    58014.114    20277.378        6.661        5.218      128.622      184.735        2.063      348.405       28.075      859.847
09/02/2013  12:35:00      199.641     -169.555        2.772      121.654      173.884       87.733    14799.661    30235.717     7697.016        6.066        2.637      261.927      100.089        0.146      348.336       27.955      859.825
09/02/2013  12:36:00      138.633      105.696       77.710      118.239       88.153       80.532    13980.460     7770.964     6485.363        3.233        1.412      174.330       66.670        0.146      348.375       28.022      859.805
09/02/2013  12:37:00      140.200       75.459      138.567      156.908      159.740      115.065    24620.007    25517.016    13240.040        5.395        3.169      159.217      123.184        0.599      348.305       27.901      859.761
09/02/2013  12:38:00      142.429     -275.005       -2.224      177.942      161.909       92.864    31663.353    26214.603     8623.748        8.120        3.325      309.700       74.276        0.058      348.172       27.669      859.805
09/02/2013  12:39:00      -75.165      -88.650        3.098      146.517       82.776       56.973    21467.208     6851.850     3245.957        2.254        1.578      116.227       42.888        0.136      348.300       27.894      859.751
09/02/2013  12:40:00       16.674     -104.021      -12.444       78.567       67.114       41.403     6172.767     4504.255     1714.190        1.182        0.620      105.349       31.944        0.092      348.189       27.702      859.752
09/02/2013  12:41:00       40.200       -6.728       41.727       50.088       47.006       32.547     2508.788     2209.590     1059.320        0.459        0.289       40.759       29.793        0.534      348.206       27.733      859.736
09/02/2013  12:42:00      -24.210       10.873      -17.276       67.841       38.290       19.774     4602.448     1466.144      391.014        0.373        0.323       26.540       20.487        0.596      347.856       27.127      859.715
09/02/2013  12:43:00      -88.954      -61.208        0.947       59.674       52.467       34.012     3560.995     2752.822     1156.802        0.956        0.374      107.977       32.834        0.092      348.419       28.102      859.698
09/02/2013  12:44:00      -14.946      -46.053       44.544       59.444       91.835       64.091     3533.535     8433.623     4107.613        1.020        0.804       48.417       56.104        1.343      348.677       28.548      859.695
09/02/2013  12:45:00      -40.137     -146.272       -8.774       99.278       83.225       53.247     9856.025     6926.349     2835.191        2.135        0.981      151.679       35.293        0.054      348.387       28.042      859.733
09/02/2013  12:46:00     -270.424     -168.071      -16.726       95.474       85.212       56.271     9115.375     7261.079     3166.475        6.060        0.977      318.397       50.466        0.025      348.185       27.693      859.754
09/02/2013  12:47:00     -140.907     -122.519       -1.945       89.009       58.761       33.851     7922.660     3452.870     1145.891        2.369        0.626      186.724       25.924        0.019      348.155       27.642      859.751
09/02/2013  12:48:00      -96.846      -50.766       10.390       65.207       50.548       37.676     4251.974     2555.135     1419.470        1.014        0.411      109.345       33.031        0.091      348.397       28.062      859.750
09/02/2013  12:49:00     -171.400     -102.861       -9.605      123.745       79.857       49.721    15312.821     6377.134     2472.205        3.210        1.208      199.896       62.481        0.098      348.342       27.966      859.752
09/02/2013  12:50:00      -31.518      -48.752       13.077       88.655       89.980       51.490     7859.754     8096.393     2651.194        1.107        0.930       58.053       49.741        0.734      348.564       28.351      859.762
09/02/2013  12:51:00       -7.630      -89.072       20.817       62.008       70.722       84.481     3845.033     5001.636     7137.050        1.220        0.799       89.398       36.796        0.169      348.318       27.927      859.764
09/02/2013  12:52:00       30.921      -14.045       30.663       51.826       44.858       36.313     2685.923     2012.230     1318.646        0.405        0.301       33.962       32.168        0.897      348.406       28.079      859.790
09/02/2013  12:53:00       30.502       15.718       43.686       55.370       45.569       36.604     3065.791     2076.527     1339.855        0.478        0.324       34.313       38.616        1.267      348.178       27.684      859.757
09/02/2013  12:54:00       29.205       25.968       66.154       69.092       51.721       49.578     4773.714     2675.015     2457.975        0.790        0.495       39.080       39.701        1.032      348.166       27.664      859.718
09/02/2013  12:55:00       65.481     -100.164        1.107       54.811      100.523       43.650     3004.221    10104.950     1905.290        1.467        0.751      119.669       38.225        0.102      347.884       27.175      859.637
09/02/2013  12:56:00       21.190      -93.124        4.715       56.802       56.866       40.652     3226.453     3233.712     1652.588        0.863        0.406       95.505       32.345        0.115      348.365       28.008      859.683
09/02/2013  12:57:00      -55.913      -36.357        4.676       71.330       71.896       47.606     5087.924     5168.978     2266.297        0.849        0.626       66.694       44.177        0.439      348.612       28.436      859.693
09/02/2013  12:58:00      -58.019     -120.527        5.524       73.175       74.432       34.409     5354.517     5540.145     1183.954        1.500        0.604      133.765       40.794        0.093      348.421       28.104      859.703
09/02/2013  12:59:00       21.620      -48.745       22.731       58.754      107.220       63.159     3451.990    11496.221     3989.019        1.114        0.947       53.324       61.157        1.315      348.586       28.390      859.684
09/02/2013  13:00:00       45.245     -162.461      -12.704       89.311       63.507       51.466     7976.532     4033.163     2648.760        2.163        0.733      168.644       42.881        0.065      348.286       27.869      859.690
09/02/2013  13:01:00     -122.073      -81.237       -0.756      115.823       72.360       36.523    13415.072     5235.953     1333.898        2.074        0.999      146.633       28.911        0.039      348.633       28.470      859.708
09/02/2013  13:02:00     -223.052      -79.530        8.774      121.151      140.604       60.163    14677.595    19769.578     3619.644        4.710        1.903      236.806       55.057        0.054      348.448       28.148      859.772
09/02/2013  13:03:00     -183.161      -71.219        3.068      145.075       90.732       60.044    21046.796     8232.270     3605.289        3.575        1.644      196.520       57.036        0.084      348.537       28.303      859.817
09/02/2013  13:04:00     -268.164      -94.231      -11.172      131.469      122.966       64.828    17284.210    15120.749     4202.635        5.875        1.830      284.238       74.900        0.069      348.417       28.094      859.812
09/02/2013  13:05:00     -127.549      -69.488       12.676      115.283      132.429       59.042    13290.086    17537.567     3486.014        2.778        1.716      145.249       61.272        0.178      348.531       28.293      859.778
09/02/2013  13:06:00     -334.831     -193.899       -4.722      149.868      151.185       78.231    22460.350    22856.880     6120.162       10.057        2.572      386.922       62.806        0.026      348.515       28.263      859.780
09/02/2013  13:07:00       36.700     -160.107        9.622      168.829      146.008       89.790    28503.179    21318.347     8062.160        4.247        2.894      164.260       73.630        0.201      348.487       28.217      859.782
09/02/2013  13:08:00      -13.994     -252.359      -10.623      126.706      180.516       83.680    16054.297    32586.126     7002.269        5.981        2.782      252.747       62.870        0.062      348.466       28.179      859.743
09/02/2013  13:09:00       56.038     -179.758        9.398      136.572      104.747       74.501    18651.927    10971.931     5550.388        3.535        1.759      188.290       65.065        0.119      348.408       28.079      859.727
09/02/2013  13:10:00       64.062     -109.776       48.339      188.016      225.799      117.159    35350.138    50985.084    13726.271        5.926        5.003      127.101      140.891        1.229      348.373       28.019      859.724
09/02/2013  13:11:00       42.059     -118.865       32.664      113.664      176.385      108.021    12919.568    31111.815    11668.556        3.632        2.785      126.086      112.152        0.791      348.379       28.030      859.691
09/02/2013  13:12:00      -84.145     -139.328       -9.119       90.851       83.431       55.197     8253.887     6960.797     3046.740        2.241        0.913      162.765       36.238        0.050      348.535       28.300      859.769
09/02/2013  13:13:00     -105.271     -207.711      -12.668      103.169      123.160       59.237    10643.878    15168.339     3508.991        4.185        1.466      232.864       49.900        0.046      348.334       27.950      859.806
09/02/2013  13:14:00      -81.114     -152.139        7.229      123.497      110.937       64.881    15251.440    12307.007     4209.565        3.077        1.588      172.411       52.695        0.093      348.431       28.119      859.808
09/02/2013  13:15:00      -83.350     -106.518       -1.966      103.349      101.534       49.270    10681.114    10309.145     2427.568        2.085        1.171      135.253       43.515        0.104      348.464       28.178      859.803
09/02/2013  13:16:00     -236.688     -150.465       -2.243      112.247       90.289       54.813    12599.298     8152.178     3004.422        5.121        1.188      280.466       52.586        0.035      348.319       27.925      859.831
09/02/2013  13:17:00     -117.487     -235.722       -9.825      141.686      175.320       54.378    20075.014    30736.992     2957.015        6.161        2.688      263.378       64.230        0.059      348.323       27.933      859.889
09/02/2013  13:18:00     -113.386     -121.564      -10.599      108.315       92.652       51.702    11732.184     8584.398     2673.069        2.536        1.149      166.235       43.744        0.069      348.330       27.945      859.834
09/02/2013  13:19:00      -46.570     -100.588        6.833      133.878       96.540       56.693    17923.267     9320.026     3214.081        2.139        1.523      110.845       54.820        0.245      348.401       28.068      859.849
09/02/2013  13:20:00      -78.774     -153.279        3.537      152.096      135.123       88.829    23133.306    18258.118     7890.515        3.949        2.464      172.337       58.413        0.115      348.424       28.108      859.845
09/02/2013  13:21:00      -77.745     -205.760       -5.051      139.102      121.597       93.790    19349.298    14785.796     8796.550        4.566        2.147      219.958       82.034        0.139      348.445       28.143      859.899
09/02/2013  13:22:00      -51.941     -191.697        2.399      100.077       86.766       64.710    10015.433     7528.338     4187.419        3.059        1.087      198.610       42.509        0.046      348.401       28.067      859.875
09/02/2013  13:23:00      -75.860     -109.273       15.222       77.307      114.467       60.358     5976.383    13102.634     3643.070        2.032        1.136      133.024       45.658        0.118      348.412       28.087      859.879
09/02/2013  13:24:00       31.884     -109.701       31.170       73.826      131.682       71.526     5450.285    17340.062     5115.947        2.096        1.395      114.240       64.826        0.322      348.454       28.161      859.917
09/02/2013  13:25:00       73.781     -285.581      -19.769      184.205      148.733       83.747    33931.468    22121.373     7013.519        7.522        3.153      294.958       83.431        0.080      348.209       27.735      859.872
09/02/2013  13:26:00        1.599     -224.947       27.651      121.251      205.730      103.257    14701.766    42324.810    10661.931        5.951        3.384      224.953      107.311        0.228      348.336       27.955      859.856
09/02/2013  13:27:00       47.294     -169.171       21.804      120.185      128.383       98.329    14444.384    16482.151     9668.644        3.595        2.030      175.657       67.736        0.149      348.384       28.037      859.897
09/02/2013  13:28:00      -52.863     -155.165       12.505      123.496      117.046       71.163    15251.370    13699.746     5064.214        3.051        1.701      163.922       50.025        0.093      348.473       28.193      859.908
09/02/2013  13:29:00     -145.466     -265.518      -27.595      175.808      128.938       79.123    30908.483    16625.089     6260.512        7.310        2.690      302.754       66.217        0.048      348.441       28.136      859.938
09/02/2013  13:30:00       72.542     -203.016       14.278      129.305      138.838       64.924    16719.834    19275.972     4215.141        4.344        2.011      215.588       50.618        0.055      348.368       28.011      859.922
09/02/2013  13:31:00       34.907     -208.279        2.353      109.346      177.353       94.069    11956.612    31454.261     8848.890        4.842        2.613      211.184      105.447        0.249      348.454       28.159      859.920
09/02/2013  13:32:00       -0.612     -314.543      -27.577      141.226      134.206       81.405    19944.706    18011.153     6626.774        7.213        2.229      314.543       37.440        0.014      348.359       27.993      859.911
09/02/2013  13:33:00       10.992     -179.000       -6.000      177.418      162.555       84.181    31477.044    26424.083     7086.391        4.858        3.249      179.337       67.802        0.143      348.456       28.161      859.961
09/02/2013  13:34:00      -62.329     -171.598       10.350      124.524      124.220       76.135    15506.225    15430.484     5796.484        3.508        1.837      182.567       56.667        0.096      348.615       28.437      859.973
09/02/2013  13:35:00      -39.719     -127.207        6.968      111.326      110.617       57.469    12393.371    12236.023     3302.636        2.286        1.397      133.263       53.692        0.162      348.481       28.207      859.980
09/02/2013  13:36:00        5.451     -111.252      -10.558       98.077       90.085       42.658     9619.083     8115.309     1819.736        1.603        0.978      111.385       35.855        0.104      348.535       28.301      859.929
09/02/2013  13:37:00       -2.020     -258.704      -31.636      159.160      120.373       58.658    25331.883    14489.574     3440.734        5.559        2.163      258.712       55.036        0.045      348.577       28.369      859.942
09/02/2013  13:38:00     -123.721     -186.455        9.628      159.500      125.503       70.888    25440.221    15750.950     5025.178        4.818        2.311      223.768       59.415        0.071      348.647       28.493      859.948
09/02/2013  13:39:00      -49.922     -157.742       24.190      147.701       97.036       67.903    21815.453     9416.040     4610.829        3.189        1.792      165.453       49.231        0.089      348.467       28.182      859.932
09/02/2013  13:40:00      -17.794     -126.278       19.564       83.805       93.985       55.430     7023.305     8833.129     3072.472        1.778        0.946      127.525       38.926        0.093      348.498       28.237      859.947
09/02/2013  13:41:00       31.112     -149.349       -7.607      177.302      137.809       89.770    31436.123    18991.270     8058.719        4.090        2.924      152.556       64.626        0.179      348.511       28.260      859.922
09/02/2013  13:42:00      -26.138      -10.054       84.682      142.323      197.088      134.890    20255.801    38843.779    18195.417        4.261        3.865       28.004      132.179       22.278      348.473       28.192      859.802
09/02/2013  13:43:00      -68.835     -123.602        1.750      109.068      136.858       69.903    11895.793    18729.982     4886.371        2.776        1.776      141.477       71.628        0.256      348.602       28.418      859.869
09/02/2013  13:44:00      -21.812      -81.569       -9.227       87.398       74.967       33.547     7638.445     5620.100     1125.383        1.080        0.719       84.436       23.247        0.076      348.584       28.387      859.887
09/02/2013  13:45:00       -1.456      -83.793      -11.842       76.664       59.941       42.027     5877.441     3592.914     1766.302        0.920        0.562       83.806       30.722        0.134      348.511       28.259      859.874
09/02/2013  13:46:00      -57.914     -144.355       -9.801      123.699      120.374       64.432    15301.377    14489.892     4151.510        2.911        1.697      155.539       61.687        0.157      348.577       28.372      859.876
09/02/2013  13:47:00     -142.204      -56.873       15.292      123.173       89.766       60.834    15171.560     8057.905     3700.722        2.530        1.347      153.155       66.702        0.190      348.744       28.663      859.871
09/02/2013  13:48:00     -199.841     -218.066       10.356      202.387      162.851       84.048    40960.603    26520.318     7064.026        8.106        3.727      295.786       95.271        0.104      348.527       28.286      859.883
09/02/2013  13:49:00     -133.444     -212.816        9.704      140.049      152.113       68.963    19613.802    23138.316     4755.834        5.534        2.375      251.193       87.859        0.122      348.589       28.393      859.874
09/02/2013  13:50:00      -92.985     -216.293       -2.687      119.880      118.418       61.486    14371.171    14022.753     3780.543        4.380        1.609      235.434       52.226        0.049      348.503       28.243      859.858
09/02/2013  13:51:00     -209.540     -210.090       -1.009      121.642      122.065       62.071    14796.854    14899.754     3852.776        6.079        1.677      296.724       71.354        0.058      348.510       28.255      859.843
09/02/2013  13:52:00     -294.017     -209.167      -31.332      160.111      130.560       70.461    25635.586    17045.928     4964.818        8.940        2.382      360.828       72.493        0.040      348.412       28.086      859.825
09/02/2013  13:53:00     -330.735     -148.287       -6.785      169.977      135.978       74.746    28892.141    18489.882     5587.001        9.218        2.648      362.457       82.337        0.052      348.372       28.016      859.803
09/02/2013  13:54:00     -180.773     -126.025        1.254      128.672      104.181       55.080    16556.499    10853.611     3033.765        3.950        1.522      220.366       57.525        0.068      348.378       28.026      859.817
09/02/2013  13:55:00     -179.431     -117.742       -9.156      120.691      119.752       53.245    14566.275    14340.546     2835.037        3.894        1.587      214.613       53.481        0.062      348.470       28.186      859.835
09/02/2013  13:56:00     -107.924      -91.501       12.609       89.131       62.730       46.061     7944.313     3935.029     2121.602        1.709        0.700      141.492       46.571        0.108      348.599       28.412      859.850
09/02/2013  13:57:00     -127.356     -101.701        2.629      100.260       63.443       50.904    10052.123     4025.038     2591.246        2.162        0.833      162.981       50.405        0.096      348.555       28.334      859.854
09/02/2013  13:58:00     -240.048      -60.055       -1.837      137.047      104.749       55.647    18781.984    10972.426     3096.579        4.704        1.643      247.447       52.299        0.045      348.492       28.226      859.852
09/02/2013  13:59:00     -285.032      -41.785        1.403      148.449       99.204       62.037    22037.133     9841.421     3848.575        5.935        1.786      288.078       68.873        0.057      348.282       27.861      859.860
09/02/2013  14:00:00     -136.085      -89.653       20.531      136.890      116.946       64.060    18738.861    13676.268     4103.733        3.174        1.826      162.962       64.503        0.157      348.400       28.066      859.867
09/02/2013  14:01:00     -260.067     -209.420       -1.401      124.646      108.962       62.688    15536.737    11872.708     3929.786        7.141        1.567      333.903       63.399        0.036      348.271       27.841      859.870
09/02/2013  14:02:00     -336.047     -169.819      -18.437      124.524       98.893       55.101    15506.199     9779.869     3036.092        8.521        1.416      376.519       52.361        0.019      348.137       27.609      859.836
09/02/2013  14:03:00     -168.862      -78.194        9.397      109.206       87.916       47.407    11925.990     7729.207     2247.385        2.831        1.095      186.088       49.461        0.071      348.341       27.964      859.831
09/02/2013  14:04:00     -227.120      -85.667      -18.790      135.658       99.469       59.012    18403.176     9894.045     3482.415        4.552        1.589      242.740       62.213        0.066      348.350       27.980      859.840
09/02/2013  14:05:00     -198.755     -159.784        7.820      148.846      120.869       68.703    22155.250    14609.354     4720.043        5.328        2.074      255.018       69.607        0.075      348.230       27.773      859.835
09/02/2013  14:06:00     -201.363     -145.553       16.365      180.361      144.237       72.051    32529.949    20804.315     5191.343        6.025        2.926      248.461       78.383        0.100      348.316       27.920      859.812
09/02/2013  14:07:00     -339.049     -153.857        8.619      188.091      144.665      100.275    35378.278    20927.876    10055.001       10.252        3.318      372.326       99.781        0.072      348.186       27.695      859.782
09/02/2013  14:08:00     -322.090      -68.726      -20.771      127.779      112.389       67.186    16327.477    12631.376     4513.982        7.118        1.674      329.340       59.589        0.033      348.221       27.754      859.801
09/02/2013  14:09:00     -224.533      -46.167       -4.238      154.695      133.362       82.086    23930.665    17785.306     6738.104        5.050        2.423      229.231       78.658        0.118      348.302       27.895      859.760
09/02/2013  14:10:00     -225.586      -78.867        7.785      168.605      110.149       66.359    28427.494    12132.889     4403.544        5.106        2.248      238.975       78.951        0.109      348.285       27.866      859.766
09/02/2013  14:11:00     -277.246      -53.367       -3.074      177.514      144.370       65.944    31511.364    20842.597     4348.654        6.820        2.835      282.336       72.902        0.067      348.241       27.791      859.746
09/02/2013  14:12:00     -367.945     -106.360      -14.211      233.979      113.256       75.882    54746.018    12827.028     5758.112       11.010        3.667      383.009       91.271        0.057      348.147       27.627      859.733
09/02/2013  14:13:00     -352.728     -216.370        0.696      224.578      184.513       92.747    50435.183    34045.174     8601.949       13.214        4.654      413.803      113.857        0.076      348.148       27.628      859.763
09/02/2013  14:14:00     -277.793     -117.251        9.687      209.297      176.453       91.716    43805.238    31135.605     8411.823        8.716        4.168      301.524      118.453        0.154      348.119       27.579      859.755
09/02/2013  14:15:00     -391.561     -172.132      -21.127      152.909      123.604       73.436    23381.104    15277.908     5392.866       11.371        2.203      427.726       67.835        0.025      348.007       27.386      859.761
09/02/2013  14:16:00     -328.265     -124.895      -17.877      189.996      117.967       60.972    36098.644    13916.219     3717.558        8.869        2.687      351.222       64.060        0.033      348.076       27.505      859.728
09/02/2013  14:17:00     -530.196     -136.144      -22.507      150.492      135.678       72.822    22647.794    18408.595     5303.115       17.325        2.318      547.396       74.994        0.019      347.999       27.372      859.677
09/02/2013  14:18:00     -247.116     -129.373      -10.767      139.743      120.549       75.356    19528.228    14532.095     5678.600        5.882        1.987      278.933       76.787        0.076      348.058       27.474      859.631
09/02/2013  14:19:00     -248.266       19.839       -8.961      128.197       99.678       58.018    16434.429     9935.611     3366.116        4.592        1.487      249.058       53.177        0.046      348.086       27.523      859.605
09/02/2013  14:20:00     -104.351      -56.191       11.953      110.825       89.958       58.492    12282.155     8092.505     3421.372        1.899        1.190      118.519       63.914        0.291      348.243       27.795      859.618
09/02/2013  14:21:00     -210.607     -102.311       12.533      179.747      125.577       85.036    32308.968    15769.676     7231.130        5.513        2.765      234.143       87.791        0.141      348.247       27.800      859.603
09/02/2013  14:22:00     -212.244      -22.779       10.554      190.330      121.866       88.968    36225.584    14851.274     7915.275        5.232        2.950      213.462      107.438        0.253      348.222       27.757      859.597
09/02/2013  14:23:00     -315.787     -146.556       -3.845      163.780      105.496       78.438    26823.943    11129.455     6152.520        8.265        2.205      348.138       77.777        0.050      348.144       27.622      859.609
09/02/2013  14:24:00     -262.310      -86.435       -8.813      155.281      119.750       76.642    24112.214    14340.160     5874.040        6.033        2.216      276.184       74.312        0.072      348.173       27.674      859.599
09/02/2013  14:25:00     -287.602     -156.351      -10.394      212.870      222.179       95.700    45313.821    49363.570     9158.449       10.553        5.192      327.353      102.976        0.099      348.149       27.631      859.585
09/02/2013  14:26:00     -357.518     -252.926      -17.183      232.417      189.443      109.462    54017.752    35888.538    11981.947       14.697        5.094      437.939      132.928        0.092      348.064       27.485      859.576
09/02/2013  14:27:00     -482.175     -101.585      -29.573      197.878      150.946       97.483    39155.666    22784.545     9502.873       15.755        3.572      492.760       82.014        0.028      348.002       27.377      859.604
09/02/2013  14:28:00     -195.774     -107.714       20.616      176.187      128.081       85.791    31041.781    16404.649     7360.151        5.257        2.740      223.450      100.011        0.200      348.113       27.568      859.591
09/02/2013  14:29:00     -291.616     -216.064       -2.358      192.341      177.564       98.818    36994.997    31528.909     9764.944       10.499        3.914      362.937      105.232        0.084      347.945       27.279      859.587
09/02/2013  14:30:00     -229.228     -120.690        1.538      149.599      148.074       72.663    22379.973    21926.023     5279.923        5.834        2.479      259.059       71.859        0.077      347.980       27.340      859.575
09/02/2013  14:31:00     -591.068      -63.012      -28.663      176.878      156.237       88.163    31285.919    24409.994     7772.788       20.880        3.173      594.417       90.940        0.023      347.773       26.983      859.574
09/02/2013  14:32:00     -576.103     -110.112      -12.406      276.026      165.751      102.614    76190.622    27473.428    10529.533       22.916        5.710      586.532      115.858        0.039      347.725       26.898      859.554
09/02/2013  14:33:00     -485.266     -176.790        0.389      212.594      208.377       93.179    45196.316    43421.001     8682.280       18.200        4.865      516.466      113.732        0.048      347.714       26.881      859.558
09/02/2013  14:34:00     -534.503      -44.627      -39.875      228.654      142.734       82.533    52282.790    20372.998     6811.742       18.436        3.973      536.363       77.288        0.021      347.689       26.837      859.561
09/02/2013  14:35:00     -648.058     -201.944      -28.205      250.238      199.961       97.406    62618.985    39984.549     9487.970       28.680        5.605      678.794      108.391        0.025      347.687       26.834      859.532
09/02/2013  14:36:00     -482.831     -148.080      -13.591      271.281      152.457       83.690    73593.119    23243.055     7003.952       17.952        5.192      505.028      119.710        0.056      347.711       26.875      859.547
09/02/2013  14:37:00     -196.753     -102.073        7.979      165.345      110.009       70.492    27338.916    12102.022     4969.161        4.679        2.221      221.654       80.663        0.132      347.852       27.119      859.559
09/02/2013  14:38:00     -284.717     -138.391       -7.341      205.576      146.946       85.290    42261.481    21593.090     7274.410        8.569        3.556      316.569      106.687        0.114      347.797       27.024      859.550
09/02/2013  14:39:00     -233.947      -69.216       -6.459      228.477      129.102       74.504    52201.685    16667.298     5550.778        6.698        3.721      243.971       98.139        0.162      347.790       27.012      859.502
09/02/2013  14:40:00     -441.911     -217.010      -25.799      195.299      163.902       82.373    38141.706    26863.907     6785.243       15.740        3.590      492.319       52.970        0.012      347.788       27.007      859.477
09/02/2013  14:41:00     -565.259      -90.021      -33.275      271.110      200.857      114.845    73500.857    40343.361    13189.295       22.786        6.352      572.382      142.238        0.062      347.778       26.990      859.472
09/02/2013  14:42:00     -398.085     -228.310       12.888      249.351      246.394      115.293    62175.846    60709.973    13292.451       17.344        6.809      458.909      120.840        0.069      347.746       26.935      859.550
09/02/2013  14:43:00     -339.541     -231.284      -27.441      241.878      232.629      112.370    58505.041    54116.036    12626.957       14.737        6.262      410.829      131.093        0.102      347.707       26.867      859.563
09/02/2013  14:44:00     -397.945     -125.790      -11.263      196.014      155.149      102.187    38421.388    24071.105    10442.159       12.361        3.647      417.353      103.263        0.061      347.704       26.864      859.568
09/02/2013  14:45:00     -319.165      -72.775      -17.261      218.684      176.651       94.705    47822.790    31205.506     8968.990        9.771        4.400      327.357      102.915        0.099      347.719       26.890      859.582
09/02/2013  14:46:00     -332.834     -147.443      -22.968      256.163      167.325      108.261    65619.725    27997.684    11720.442       11.917        5.267      364.030      129.933        0.127      347.752       26.946      859.585
09/02/2013  14:47:00     -497.967     -185.935      -37.777      204.739      173.528       87.468    41918.225    30112.049     7650.671       18.181        3.984      531.548       85.323        0.026      347.751       26.943      859.569
09/02/2013  14:48:00     -458.546      -61.466      -11.182      275.426      184.800       91.897    75859.226    34151.168     8445.109       16.629        5.923      462.647      110.432        0.057      347.766       26.968      859.567
09/02/2013  14:49:00     -404.922     -110.369      -18.336      209.625      153.961       73.961    43942.575    23704.127     5470.266       12.478        3.656      419.694       83.467        0.040      347.739       26.924      859.544
09/02/2013  14:50:00     -376.439     -201.402       -0.638      244.356      191.145       93.667    59709.847    36536.378     8773.482       14.362        5.251      426.929      113.712        0.071      347.721       26.892      859.536
09/02/2013  14:51:00     -535.543     -113.758      -40.688      206.687      204.449       94.884    42719.575    41799.397     9002.948       19.744        4.676      547.491      102.970        0.035      347.684       26.828      859.535
09/02/2013  14:52:00     -375.728      -72.366       -5.067      185.282      170.088       81.642    34329.426    28929.834     6665.349       10.816        3.496      382.633       86.267        0.051      347.725       26.899      859.529
09/02/2013  14:53:00     -570.767       17.800      -34.370      261.562      149.324      106.007    68414.614    22297.634    11237.411       21.459        5.097      571.044      120.771        0.045      347.676       26.816      859.548
09/02/2013  14:54:00     -408.621     -162.653      -13.578      229.219      184.546      103.121    52541.510    34057.092    10634.012       14.540        4.862      439.803      121.641        0.076      347.662       26.790      859.539
09/02/2013  14:55:00     -168.019     -120.775        6.175      170.282      148.015       87.840    28995.935    21908.550     7715.851        5.073        2.931      206.922       94.222        0.207      347.755       26.952      859.526
09/02/2013  14:56:00     -334.110        5.334       -5.415      159.189      113.567       67.413    25341.198    12897.397     4544.485        7.723        2.139      334.153       68.171        0.042      347.702       26.860      859.523
09/02/2013  14:57:00     -284.585     -104.532      -13.027      119.470      128.968       56.745    14273.126    16632.667     3220.001        6.310        1.706      303.175       55.379        0.033      347.726       26.900      859.551
09/02/2013  14:58:00     -406.448     -232.490      -25.832      290.349      185.153      100.795    84302.658    34281.743    10159.692       17.431        6.437      468.243      124.839        0.071      347.681       26.823      859.528
09/02/2013  14:59:00     -410.141     -147.318      -12.442      275.281      258.118      113.357    75779.387    66624.740    12849.920       17.263        7.763      435.796      120.894        0.077      347.576       26.641      859.462
09/02/2013  15:00:00     -296.487      -95.500       -9.354      212.343      157.185       89.564    45089.347    24707.259     8021.678        8.745        3.891      311.488      107.558        0.119      347.620       26.718      859.481
09/02/2013  15:01:00     -196.634      -80.652       20.804      179.948      169.990       73.862    32381.158    28896.701     5455.561        5.615        3.337      212.532       93.728        0.194      347.709       26.873      859.507
09/02/2013  15:02:00     -171.377     -172.743       -0.770      149.220      120.821       76.187    22266.488    14597.678     5804.451        5.093        2.133      243.331       77.911        0.103      347.675       26.813      859.485
09/02/2013  15:03:00     -408.746     -104.080      -16.967      164.632      156.370       71.523    27103.732    24451.696     5115.598       11.742        2.834      421.789       78.240        0.034      347.658       26.784      859.481
09/02/2013  15:04:00     -339.076      -62.917        7.978      178.785      156.893       91.789    31964.129    24615.505     8425.299        9.199        3.250      344.864      100.962        0.086      347.705       26.865      859.470
09/02/2013  15:05:00     -417.960     -114.339        0.234      250.128      166.350       87.462    62563.899    27672.462     7649.662       14.281        4.894      433.318      101.796        0.055      347.681       26.823      859.451
09/02/2013  15:06:00     -360.217      -80.372       -0.882      200.902      138.005       71.899    40361.800    19045.351     5169.476       10.038        3.229      369.075       93.060        0.064      347.737       26.919      859.480
09/02/2013  15:07:00     -358.685     -111.805       -8.906      177.442      165.136       78.351    31485.533    27269.907     6138.942       10.305        3.245      375.707       66.065        0.031      347.776       26.986      859.453
09/02/2013  15:08:00     -304.825      -72.005       -4.079      162.436      117.673       69.670    26385.340    13846.929     4853.947        7.159        2.254      313.214       76.353        0.059      347.745       26.933      859.431
09/02/2013  15:09:00     -193.165      -56.236        6.991      113.858      101.895       57.770    12963.706    10382.646     3337.333        3.360        1.334      201.185       58.928        0.086      347.851       27.117      859.441
09/02/2013  15:10:00     -219.207      -79.227        0.008      238.657      164.153       72.262    56957.093    26946.212     5221.844        7.171        4.456      233.086      103.034        0.195      347.838       27.094      859.422
09/02/2013  15:11:00     -379.042     -113.995      -14.641      192.009      184.961       77.291    36867.411    34210.561     5973.966       11.695        3.853      395.813       73.875        0.035      347.717       26.885      859.416
09/02/2013  15:12:00     -411.053      -92.066      -11.869      223.583      140.714       80.252    49989.203    19800.400     6440.410       12.689        3.812      421.237       82.218        0.038      347.625       26.728      859.405
09/02/2013  15:13:00     -258.333     -145.287       -2.631      212.768      158.939      101.645    45270.424    25261.515    10331.648        8.434        4.043      296.385       84.445        0.081      347.716       26.883      859.354
09/02/2013  15:14:00     -240.429      -73.299       -1.019      179.094      126.423       76.153    32074.639    15982.720     5799.304        5.851        2.693      251.354       70.053        0.078      347.781       26.997      859.347
09/02/2013  15:15:00     -353.139      -50.840      -25.504      157.283      123.295       60.630    24738.052    15201.600     3675.946        8.577        2.181      356.780       66.627        0.035      347.822       27.065      859.367
09/02/2013  15:16:00     -453.554     -100.111      -15.448      174.732      140.539       74.465    30531.158    19751.334     5545.042       13.589        2.791      464.471       75.903        0.027      347.758       26.954      859.367
09/02/2013  15:17:00     -479.677     -134.069       -0.675      209.430      173.299       84.475    43860.921    30032.424     7135.944       16.453        4.051      498.061       94.794        0.036      347.746       26.935      859.331
09/02/2013  15:18:00     -399.060     -150.917      -24.352      157.158      102.117       65.888    24698.715    10427.966     4341.225       11.104        1.973      426.644       71.842        0.028      347.751       26.944      859.339
09/02/2013  15:19:00     -229.357      -84.588       20.601      236.718      134.231       92.557    56035.418    18018.046     8566.806        7.139        4.131      244.458      116.314        0.226      347.808       27.044      859.316
09/02/2013  15:20:00     -230.423      -54.714       20.642      215.634      147.671       78.648    46497.879    21806.643     6185.569        6.549        3.725      236.830      104.822        0.196      347.773       26.983      859.329
09/02/2013  15:21:00     -204.527      -84.627       12.805      161.691      189.209       80.534    26143.839    35799.892     6485.669        5.878        3.421      221.344       84.078        0.144      347.783       26.998      859.331
09/02/2013  15:22:00     -407.440     -158.847      -22.519      166.557      181.999       79.807    27741.389    33123.624     6369.149       12.948        3.362      437.310       66.588        0.023      347.660       26.785      859.306
09/02/2013  15:23:00     -470.568     -135.325      -17.482      248.505      158.505       73.868    61754.672    25123.849     5456.461       16.618        4.617      489.640       95.173        0.038      347.679       26.819      859.278
09/02/2013  15:24:00     -430.176     -149.618       -6.008      215.388      192.723       77.213    46392.074    37142.039     5961.915       14.847        4.475      455.453       94.734        0.043      347.680       26.822      859.291
09/02/2013  15:25:00     -373.041      -86.586      -10.312      211.595      244.915      118.068    44772.384    59983.239    13939.999       13.271        5.935      382.958      110.277        0.083      347.708       26.870      859.235
09/02/2013  15:26:00     -361.873     -116.087      -11.241      155.166      127.914       69.575    24076.492    16362.052     4840.645        9.491        2.264      380.037       80.513        0.045      347.744       26.933      859.263
09/02/2013  15:27:00     -283.625      -37.898      -14.139      163.239      124.080       71.600    26646.946    15395.731     5126.502        6.461        2.358      286.146       76.588        0.072      347.743       26.930      859.245
09/02/2013  15:28:00     -185.125      -37.523       14.786      153.979      108.567       72.754    23709.521    11786.855     5293.101        3.834        2.039      188.889       86.165        0.208      347.802       27.033      859.231
09/02/2013  15:29:00     -242.777      -86.520       -9.210      152.623      141.734       63.097    23293.701    20088.567     3981.198        5.693        2.368      257.733       62.614        0.059      347.783       27.000      859.209
09/02/2013  15:30:00     -201.714      -84.880       -8.277      152.211      117.643       56.012    23168.077    13839.963     3137.326        4.405        2.007      218.845       67.167        0.094      347.802       27.033      859.196
09/02/2013  15:31:00     -299.393      -71.535      -28.133      125.794      161.669       55.749    15824.012    26136.783     3107.995        7.030        2.253      307.821       55.475        0.032      347.785       27.002      859.203
09/02/2013  15:32:00     -317.500       50.348      -19.244      161.786       92.961       67.442    26174.592     8641.705     4548.426        7.153        1.968      321.467       56.034        0.030      347.749       26.941      859.205
09/02/2013  15:33:00     -215.331      -24.457      -14.224      110.361      111.231       60.971    12179.457    12372.366     3717.454        3.771        1.413      216.716       55.700        0.066      347.810       27.045      859.187
09/02/2013  15:34:00     -357.555      -22.245      -12.544      239.369      117.203       86.343    57297.561    13736.609     7455.114       10.348        3.924      358.247       92.275        0.066      347.815       27.054      859.173
09/02/2013  15:35:00     -505.022      -89.882       -3.467      287.524      158.859      100.752    82670.277    25236.120    10150.919       19.057        5.903      512.958      125.476        0.060      347.772       26.980      859.125
09/02/2013  15:36:00     -581.167     -145.342      -10.849      234.826      175.323       91.764    55143.107    30738.160     8420.585       22.663        4.715      599.066      100.032        0.028      347.754       26.948      859.102
09/02/2013  15:37:00     -380.463      -70.938       -5.731      164.455      144.165       77.678    27045.528    20783.643     6033.847       10.183        2.693      387.020       77.244        0.040      347.853       27.120      859.110
09/02/2013  15:38:00     -178.044      -24.938       15.989      243.414      151.470       76.835    59250.330    22943.094     5903.623        6.032        4.405      179.782       90.810        0.255      347.901       27.203      859.097
09/02/2013  15:39:00     -336.649     -119.401       -6.760      248.363      153.121       86.944    61684.135    23446.101     7559.214       11.014        4.634      357.196      115.520        0.105      347.850       27.115      859.107
09/02/2013  15:40:00     -301.345       -0.999        0.185      153.956      143.038       64.519    23702.530    20459.813     4162.701        6.956        2.416      301.346       54.898        0.033      347.882       27.170      859.120
09/02/2013  15:41:00     -464.590       32.280      -35.707      163.547      131.961       79.236    26747.776    17413.700     6278.378       13.429        2.522      465.710       84.211        0.033      347.788       27.007      859.110
09/02/2013  15:42:00     -268.864      -26.981       -2.421      165.262      120.012       71.192    27311.648    14402.942     5068.239        5.989        2.339      270.214       74.648        0.076      347.844       27.104      859.079
09/02/2013  15:43:00     -172.574      -53.257        4.414      126.707      106.957       58.399    16054.644    11439.846     3410.499        3.177        1.545      180.605       59.452        0.108      347.874       27.156      859.064
09/02/2013  15:44:00     -376.186       31.479      -24.767      177.914      109.831       59.474    31653.532    12062.754     3537.099        9.518        2.363      377.501       68.640        0.033      347.823       27.068      859.055
09/02/2013  15:45:00     -158.255      -53.349        5.339      152.894      107.066       72.795    23376.583    11463.148     5299.179        3.402        2.007      167.006       72.553        0.189      347.928       27.250      859.043
09/02/2013  15:46:00     -283.969        7.682      -17.160      149.401      123.788       65.727    22320.711    15323.559     4320.097        6.147        2.098      284.073       63.333        0.050      347.870       27.149      859.047
09/02/2013  15:47:00     -449.307      -32.574      -25.179      248.205      181.850       68.010    61605.551    33069.557     4625.293       15.142        4.965      450.486       96.347        0.046      347.804       27.036      859.019
09/02/2013  15:48:00     -342.880     -148.696       -7.833      191.618      133.840       85.848    36717.525    17913.041     7369.829       10.086        3.100      373.734       93.199        0.062      347.821       27.066      858.992
09/02/2013  15:49:00     -299.074     -141.071       -0.443      147.632      113.003       68.305    21795.204    12769.600     4665.571        7.428        1.962      330.675       75.913        0.053      347.840       27.098      858.987
09/02/2013  15:50:00     -225.132     -101.244      -11.653      135.276       98.783       54.237    18299.700     9758.096     2941.640        4.603        1.550      246.850       65.062        0.069      347.912       27.221      858.962
09/02/2013  15:51:00     -390.676     -109.070       -7.154      198.566      121.891       82.236    39428.616    14857.372     6762.693       11.280        3.052      405.615       93.963        0.054      347.870       27.149      858.954
09/02/2013  15:52:00     -268.043      -87.708       -9.008      256.924      137.005       66.195    66009.803    18770.265     4381.840        8.437        4.458      282.027       75.451        0.072      347.899       27.199      858.928
09/02/2013  15:53:00     -554.013      -48.053      -31.256      229.953      184.979       93.180    52878.296    34217.320     8682.496       20.298        4.789      556.093      115.553        0.043      347.832       27.082      858.917
09/02/2013  15:54:00     -457.510      -77.944      -33.750      132.364      157.839       71.468    17520.155    24913.153     5107.635       13.203        2.377      464.102       63.368        0.019      347.853       27.120      858.936
09/02/2013  15:55:00     -471.127      -33.773      -36.031      215.778      202.131       95.994    46560.288    40856.753     9214.835       16.050        4.832      472.336       93.202        0.039      347.837       27.091      858.943
09/02/2013  15:56:00     -402.582      -36.484      -26.779      210.686      127.385       80.962    44388.738    16227.061     6554.855       11.563        3.359      404.232       93.474        0.053      347.858       27.129      858.939
09/02/2013  15:57:00     -260.430      -29.687      -21.847      178.219      126.624       64.585    31762.091    16033.551     4171.262        6.056        2.598      262.116       55.172        0.044      347.908       27.214      858.992
09/02/2013  15:58:00      -72.362      -46.857       -2.720      114.055       90.683       58.212    13008.437     8223.446     3388.586        1.602        1.231       86.208       43.049        0.249      347.935       27.263      858.990
09/02/2013  15:59:00     -392.848     -111.532       -2.457      244.868      139.017       84.504    59960.129    19325.653     7140.844       12.658        4.321      408.374      101.252        0.061      347.889       27.183      858.965
09/02/2013  16:00:00     -458.847     -201.795      -17.600      206.524      173.632       86.874    42652.294    30148.059     7547.161       16.594        4.017      501.260       98.619        0.039      347.914       27.226      858.967
09/02/2013  16:01:00     -242.177     -101.258        9.220      161.686      130.676       86.381    26142.474    17076.329     7461.605        5.982        2.534      262.494       82.815        0.100      347.915       27.228      858.968
09/02/2013  16:02:00     -299.465      -93.773       -3.122      183.375      153.067       77.739    33626.383    23429.366     6043.414        8.078        3.155      313.803       86.338        0.076      347.878       27.163      859.005
09/02/2013  16:03:00     -276.522      -84.994        2.017      162.471      131.286       72.075    26396.718    17235.905     5194.814        6.625        2.441      289.290       85.109        0.087      347.926       27.245      859.001
09/02/2013  16:04:00     -238.519     -149.033       -2.521      214.797      132.000       61.026    46137.707    17424.025     3724.214        7.318        3.364      281.251       71.696        0.065      347.911       27.218      859.012
09/02/2013  16:05:00     -287.801     -217.367       -9.892      196.431      142.398       81.097    38585.246    20277.285     6576.771        9.779        3.272      360.663       96.309        0.071      347.918       27.233      859.006
09/02/2013  16:06:00     -249.251     -141.927        5.607      200.294      126.582       77.114    40117.784    16023.078     5946.573        7.218        3.104      286.827       91.954        0.103      347.899       27.199      858.971
09/02/2013  16:07:00     -221.302     -177.271       -4.745      147.494      131.337       74.577    21754.496    17249.401     5561.787        6.248        2.228      283.548       82.880        0.085      347.923       27.240      858.955
09/02/2013  16:08:00     -220.659     -141.239        3.671      172.272      124.449       73.814    29677.543    15487.624     5448.569        5.962        2.531      261.990       85.064        0.105      347.978       27.337      858.942
09/02/2013  16:09:00     -301.219     -280.354       -9.930      218.771      170.332       75.651    47860.933    29012.851     5723.140       12.600        4.130      411.499       85.879        0.044      347.974       27.329      858.943
09/02/2013  16:10:00     -298.479     -149.952       -8.769      156.566      139.216       71.530    24512.836    19381.098     5116.553        8.032        2.451      334.029       78.152        0.055      347.991       27.358      858.991
09/02/2013  16:11:00     -340.138     -136.061      -14.026      179.436      123.968       70.613    32197.244    15368.179     4986.262        9.347        2.628      366.342       85.451        0.054      347.934       27.259      858.997
09/02/2013  16:12:00     -287.430     -116.998       -4.806      150.338      109.659       60.783    22601.633    12025.096     3694.528        6.732        1.916      310.330       70.604        0.052      347.983       27.346      859.016
09/02/2013  16:13:00     -116.940      -28.074        7.615       98.839      106.591       52.245     9769.237    11361.653     2729.505        1.919        1.193      120.263       46.367        0.149      347.986       27.350      858.996
09/02/2013  16:14:00     -187.772      -69.416       -1.913      103.480       82.000       57.534    10708.076     6724.071     3310.160        3.041        1.037      200.192       47.882        0.057      347.939       27.269      859.004
09/02/2013  16:15:00     -158.778     -118.790       12.752      126.327      106.655       52.640    15958.607    11375.318     2770.947        3.479        1.505      198.297       63.075        0.101      347.955       27.296      859.012
09/02/2013  16:16:00     -184.766      -37.695        1.611       86.794       80.716       47.637     7533.159     6515.048     2269.303        2.594        0.816      188.572       45.348        0.058      347.966       27.314      859.000
09/02/2013  16:17:00     -344.385     -209.503      -12.247      161.580      111.838       62.325    26108.223    12507.739     3884.412       10.256        2.125      403.103       67.218        0.028      347.908       27.214      858.976
09/02/2013  16:18:00     -231.619      -78.917       28.371      159.611      137.175       84.204    25475.518    18816.886     7090.326        5.602        2.569      244.694       83.040        0.115      347.933       27.258      858.955
09/02/2013  16:19:00     -289.645     -126.793      -10.927      199.399      147.204       78.635    39759.894    21669.029     6183.407        8.384        3.381      316.181       97.263        0.095      347.915       27.226      858.976
09/02/2013  16:20:00     -269.854     -167.787       -0.375      190.437      138.476       70.483    36266.261    19175.683     4967.884        8.068        3.020      317.764       80.770        0.065      347.928       27.247      858.996
09/02/2013  16:21:00     -180.917     -128.176       21.842      175.238      180.938       77.425    30708.378    32738.415     5994.581        5.953        3.472      221.721       90.306        0.166      347.968       27.318      859.017
09/02/2013  16:22:00     -209.246     -335.085      -15.189      158.006      189.853       91.935    24965.855    36044.151     8452.049       11.287        3.473      395.052       77.325        0.038      347.909       27.215      859.023
09/02/2013  16:23:00     -141.874     -133.412        8.419      122.637       95.253       66.034    15039.929     9073.203     4360.507        3.323        1.424      194.749       68.902        0.125      347.955       27.297      859.002
09/02/2013  16:24:00     -190.246     -167.140        6.278      112.239      149.455       53.602    12597.592    22336.917     2873.125        5.098        1.890      253.238       52.409        0.043      347.896       27.194      858.981
09/02/2013  16:25:00     -195.647     -121.252       17.878      159.396      116.098       69.295    25406.976    13478.771     4801.774        4.848        2.184      230.174       72.409        0.099      347.934       27.261      858.951
09/02/2013  16:26:00     -217.232     -160.408       -0.325      123.674       67.938       45.706    15295.380     4615.570     2089.031        4.746        1.100      270.037       49.555        0.034      347.953       27.293      858.929
09/02/2013  16:27:00     -162.590     -125.873       -5.748      142.014      104.641       64.437    20167.890    10949.779     4152.134        3.878        1.763      205.620       79.528        0.150      347.985       27.350      858.936
09/02/2013  16:28:00     -186.068     -290.283        2.372      173.112      128.754       64.483    29967.749    16577.718     4158.067        8.479        2.535      344.798       63.838        0.034      347.874       27.155      858.913
09/02/2013  16:29:00     -129.287     -159.763       12.774      139.420      148.755       69.706    19437.927    22128.137     4858.939        4.440        2.321      205.522       78.136        0.145      347.892       27.188      858.892
09/02/2013  16:30:00     -273.477     -175.012       18.544      203.574      137.728       86.487    41442.471    18968.895     7479.916        8.681        3.395      324.682       96.814        0.089      347.850       27.114      858.853
09/02/2013  16:31:00     -182.743      -54.402        9.790      159.342       85.174       59.928    25389.895     7254.646     3591.402        3.634        1.812      190.669       69.686        0.134      347.861       27.134      858.838
09/02/2013  16:32:00     -145.025      -57.213       -0.108      138.385       72.840       63.391    19150.375     5305.728     4018.427        2.638        1.424      155.903       46.534        0.089      347.849       27.116      858.829
09/02/2013  16:33:00     -208.125     -133.671       10.029      175.529      108.633       74.886    30810.259    11801.226     5607.852        5.474        2.411      247.354       79.343        0.103      347.860       27.132      858.818
09/02/2013  16:34:00     -287.105       -9.978        4.886      172.554      125.147       73.482    29774.856    15661.650     5399.574        6.668        2.542      287.279       79.771        0.077      347.813       27.051      858.787
09/02/2013  16:35:00     -299.375     -197.160       -4.548      128.071      146.321       73.716    16402.084    21409.739     5433.992        8.587        2.162      358.465       75.892        0.045      347.839       27.095      858.820
09/02/2013  16:36:00     -377.510     -269.703      -10.898      249.714      190.701      115.265    62357.141    36366.872    13286.122       16.367        5.601      463.954      124.505        0.072      347.777       26.988      858.765
09/02/2013  16:37:00     -389.387     -128.276      -31.283      145.568      128.814       72.492    21190.005    16593.116     5255.019       10.604        2.152      409.972       61.168        0.022      347.746       26.935      858.758
09/02/2013  16:38:00     -220.344     -123.334        8.647      129.477       81.084       62.579    16764.376     6574.638     3916.128        4.554        1.363      252.513       58.070        0.053      347.806       27.038      858.760
09/02/2013  16:39:00     -357.825      -82.351      -12.483      183.831      119.272       90.902    33793.996    14225.728     8263.153        9.562        2.814      367.179       99.090        0.073      347.783       26.999      858.760
09/02/2013  16:40:00     -262.507     -134.539       -3.875      183.267      145.015       70.228    33586.735    21029.324     4931.958        7.327        2.977      294.975       76.210        0.067      347.785       27.002      858.768
09/02/2013  16:41:00     -351.029     -165.898      -14.017      300.185      213.278      103.453    90111.274    45487.573    10702.456       14.859        7.315      388.257      134.560        0.120      347.766       26.969      858.718
09/02/2013  16:42:00     -209.209     -123.835       -2.627      200.204      167.342       85.479    40081.725    28003.294     7306.685        6.724        3.770      243.112       91.615        0.142      347.772       26.982      858.675
09/02/2013  16:43:00     -219.636      -95.984       12.615      142.136      119.587       71.780    20202.557    14300.958     5152.329        4.863        1.983      239.693       67.159        0.079      347.795       27.021      858.685
09/02/2013  16:44:00     -335.806      -86.096      -17.280      170.487      121.101       81.255    29065.822    14665.356     6602.443        8.540        2.517      346.667       89.531        0.067      347.805       27.037      858.695
09/02/2013  16:45:00     -204.305     -114.710       11.954      157.429      121.095       74.117    24784.028    14663.899     5493.295        4.998        2.247      234.305       79.717        0.116      347.836       27.089      858.726
09/02/2013  16:46:00     -394.337     -191.065       -5.561      217.776      135.379       81.247    47426.246    18327.378     6601.093       13.218        3.618      438.187       89.728        0.042      347.758       26.959      858.734
09/02/2013  16:47:00     -371.382     -232.365        1.720      146.278      134.265       70.730    21397.384    18027.202     5002.708       11.817        2.221      438.085       76.866        0.031      347.799       27.028      858.757
09/02/2013  16:48:00     -333.496     -274.580      -15.754      209.677      118.510       99.494    43964.379    14044.624     9899.005       12.737        3.395      431.988      120.801        0.078      347.820       27.063      858.768
09/02/2013  16:49:00     -347.555     -142.907       -7.032      209.629      159.654       81.838    43944.215    25489.324     6697.530       10.868        3.807      375.789      103.666        0.076      347.788       27.009      858.707
09/02/2013  16:50:00     -365.137     -134.996       -6.055      203.456      168.381       78.833    41394.288    28352.109     6214.625       11.376        3.798      389.293      102.676        0.070      347.810       27.047      858.680
09/02/2013  16:51:00     -406.767     -192.743      -22.535      197.658      172.588       84.588    39068.689    29786.571     7155.061       13.955        3.801      450.122       89.931        0.040      347.801       27.030      858.636
09/02/2013  16:52:00     -310.356     -216.744       -5.438      196.777      190.924      108.221    38721.006    36452.092    11711.793       11.509        4.344      378.548      114.902        0.092      347.794       27.018      858.637
09/02/2013  16:53:00     -279.054     -152.905       11.304      178.407      124.344       88.146    31828.927    15461.445     7769.722        7.821        2.753      318.199       93.792        0.087      347.805       27.038      858.690
09/02/2013  16:54:00     -274.785     -196.225      -13.041      181.887      158.748       79.546    33083.006    25201.007     6327.618        8.938        3.231      337.655       85.052        0.063      347.788       27.007      858.707
09/02/2013  16:55:00     -232.254     -150.974       -4.062      156.152      115.972       64.483    24383.447    13449.604     4158.006        5.936        2.100      277.011       55.136        0.040      347.792       27.016      858.683
09/02/2013  16:56:00     -335.943     -127.878       -9.203      181.410      107.632       63.003    32909.505    11584.699     3969.384        8.887        2.423      359.458       60.143        0.028      347.787       27.008      858.703
09/02/2013  16:57:00     -505.892     -113.646      -26.398      290.653      168.216       89.529    84479.015    28296.500     8015.489       19.514        6.040      518.500      121.497        0.055      347.759       26.958      858.682
09/02/2013  16:58:00     -405.939     -156.588       -6.483      217.001      175.899       97.512    47089.444    30940.463     9508.670       13.843        4.377      435.094      105.388        0.059      347.755       26.951      858.672
09/02/2013  16:59:00     -460.443     -138.397      -30.562      231.872      161.113       77.863    53764.595    25957.527     6062.572       15.892        4.289      480.792       79.805        0.028      347.772       26.981      858.656
09/02/2013  17:00:00     -350.447     -105.392       -9.691      167.572      153.168       74.222    28080.318    23460.308     5508.909        9.552        2.852      365.951       84.837        0.054      347.792       27.016      858.668
09/02/2013  17:01:00     -291.768     -109.114        2.362      206.912      126.984       79.432    42812.667    16124.862     6309.387        8.113        3.262      311.503       83.632        0.072      347.793       27.016      858.661
09/02/2013  17:02:00     -411.599     -222.199      -11.311      203.361      181.863       84.436    41355.753    33074.319     7129.453       15.022        4.078      467.746       91.874        0.039      347.771       26.979      858.680
09/02/2013  17:03:00     -456.626     -232.369      -31.179      225.101      181.666       98.997    50670.593    33002.478     9800.380       17.846        4.674      512.350      120.850        0.056      347.774       26.984      858.670
09/02/2013  17:04:00     -171.159     -166.795       21.158      208.910      187.186      100.708    43643.410    35038.714    10142.043        7.318        4.441      238.989      115.910        0.235      347.784       27.003      858.659
09/02/2013  17:05:00     -217.026     -162.243       13.678      163.830      171.008       72.318    26840.372    29243.885     5229.894        6.745        3.066      270.967       72.781        0.072      347.783       27.001      858.670
09/02/2013  17:06:00     -193.897     -105.594        6.928      159.635      125.342       60.257    25483.397    15710.627     3630.893        4.680        2.241      220.786       65.888        0.089      347.814       27.053      858.672
09/02/2013  17:07:00     -340.793      -22.620      -16.355      216.195      127.304       72.778    46740.285    16206.192     5296.664        9.257        3.412      341.543       87.540        0.066      347.794       27.019      858.664
09/02/2013  17:08:00     -483.566     -244.366      -18.963      201.024      157.509       93.073    40410.573    24809.029     8662.592       18.388        3.694      541.803      101.689        0.035      347.760       26.959      858.659
09/02/2013  17:09:00     -283.017     -155.877        2.937      144.094      102.095       59.386    20763.024    10423.413     3526.666        6.955        1.736      323.104       59.799        0.034      347.788       27.010      858.677
09/02/2013  17:10:00     -223.148     -215.352       14.896      157.803      142.117       76.459    24901.837    20197.226     5845.920        7.366        2.547      310.115       86.855        0.078      347.807       27.040      858.663
09/02/2013  17:11:00     -272.056      -99.276       -5.507      121.049       91.438       55.489    14652.822     8360.921     3079.073        5.499        1.305      289.603       65.401        0.051      347.838       27.092      858.642
09/02/2013  17:12:00     -325.391      -77.605       -7.358      170.473      132.552       74.845    29060.964    17570.108     5601.809        8.208        2.612      334.517       74.728        0.050      347.829       27.079      858.636
09/02/2013  17:13:00     -355.595     -259.243      -15.296      176.084      128.419       85.728    31005.437    16491.562     7349.366       12.436        2.742      440.062       82.668        0.035      347.827       27.073      858.621
09/02/2013  17:14:00     -285.759     -181.210       -9.972      187.154      162.748       79.458    35026.596    26487.042     6313.516        9.120        3.391      338.372       76.387        0.051      347.844       27.104      858.627
09/02/2013  17:15:00     -226.754     -141.580        0.078      144.444      124.730       74.327    20863.962    15557.457     5524.503        5.670        2.097      267.324       69.546        0.068      347.868       27.144      858.647
09/02/2013  17:16:00     -386.681     -232.078      -16.946      207.582      154.888       93.158    43090.150    23990.225     8678.410       13.970        3.788      450.979      107.335        0.057      347.891       27.183      858.646
09/02/2013  17:17:00     -207.040      -31.891      -11.336      174.165       97.737       54.446    30333.329     9552.577     2964.362        4.342        2.143      209.482       65.148        0.097      347.937       27.264      858.638
09/02/2013  17:18:00     -446.925      -80.772      -19.610      175.216      160.409       73.853    30700.678    25730.893     5454.240       13.426        3.094      454.165       63.927        0.020      347.853       27.119      858.619
09/02/2013  17:19:00     -427.285      -38.122      -10.689      195.939      149.677       92.754    38391.940    22403.175     8603.335       12.676        3.470      428.983       78.337        0.033      347.827       27.074      858.547
09/02/2013  17:20:00     -405.106     -118.279      -16.737      179.989      136.746       75.272    32396.147    18699.333     5665.921       11.756        2.838      422.020       79.641        0.036      347.793       27.015      858.601
09/02/2013  17:21:00     -208.207      -42.012       -5.460      111.298      116.497       58.792    12387.186    13571.512     3456.539        3.727        1.471      212.404       61.993        0.085      347.839       27.094      858.602
09/02/2013  17:22:00     -251.287      -54.632      -12.699      104.567      103.569       48.497    10934.269    10726.631     2351.973        4.515        1.201      257.157       51.004        0.039      347.825       27.071      858.594
09/02/2013  17:23:00     -321.202      -74.066       -8.992      123.341      120.833       73.232    15213.092    14600.658     5362.999        7.195        1.759      329.631       69.499        0.044      347.834       27.085      858.570
09/02/2013  17:24:00     -269.261     -118.595       -4.803      162.977      145.833       60.740    26561.415    21267.328     3689.350        6.904        2.576      294.222       73.641        0.063      347.873       27.156      858.581
09/02/2013  17:25:00     -377.233     -274.423      -34.666      177.617      128.334       82.094    31547.829    16469.634     6739.371       13.677        2.738      466.490       87.785        0.035      347.871       27.149      858.542
09/02/2013  17:26:00     -351.278     -331.107      -17.243      166.057      152.923       86.545    27575.001    23385.487     7490.050       14.588        2.923      482.730       64.951        0.018      347.852       27.118      858.539
09/02/2013  17:27:00     -228.688     -130.076        1.388      147.163      142.290       68.440    21657.094    20246.492     4684.086        5.789        2.329      263.093       79.405        0.091      347.923       27.240      858.539
09/02/2013  17:28:00     -189.137      -33.121       -1.791      119.401      114.293       51.949    14256.561    13062.840     2698.681        3.344        1.501      192.015       49.795        0.067      347.959       27.305      858.559
09/02/2013  17:29:00     -260.954     -125.126      -14.516      164.223      137.957       65.863    26969.304    19032.198     4337.876        6.714        2.517      289.402       63.843        0.049      347.949       27.286      858.557
09/02/2013  17:30:00     -222.779     -123.495      -16.254      108.044      109.102       56.249    11673.569    11903.239     3163.956        4.594        1.337      254.718       57.092        0.050      347.930       27.252      858.523
09/02/2013  17:31:00     -284.308     -155.769      -27.038      151.450       88.033       62.315    22937.062     7749.773     3883.164        7.019        1.728      324.183       68.287        0.044      347.948       27.285      858.531
09/02/2013  17:32:00     -272.627     -202.715       -9.576      143.859      116.090       69.183    20695.518    13476.819     4786.260        7.723        1.948      339.734       67.045        0.039      347.970       27.323      858.541
09/02/2013  17:33:00     -187.528     -153.670       11.994      103.151      119.844       65.219    10640.139    14362.698     4253.553        4.408        1.463      242.448       65.937        0.074      347.980       27.340      858.530
09/02/2013  17:34:00     -254.596     -117.772      -15.947       99.691       90.502       54.805     9938.298     8190.663     3003.618        5.003        1.057      280.516       56.605        0.041      347.989       27.355      858.519
09/02/2013  17:35:00      -90.929      -91.598       13.247      131.145      140.615       64.123    17199.111    19772.471     4111.782        2.895        2.054      129.067       81.533        0.399      348.092       27.535      858.482
09/02/2013  17:36:00     -308.451      -58.966        5.269      163.209      128.673       69.282    26637.056    16556.747     4799.981        7.331        2.400      314.036       75.830        0.058      348.079       27.511      858.471
09/02/2013  17:37:00     -389.765      -65.353      -14.890      157.249      154.438       75.724    24727.158    23851.007     5734.103       10.535        2.716      395.206       83.092        0.044      348.067       27.488      858.456
09/02/2013  17:38:00     -319.301       35.555       18.183      202.740      147.760       84.514    41103.429    21832.998     7142.651        8.680        3.504      321.274       92.043        0.082      348.069       27.492      858.408
09/02/2013  17:39:00     -352.123      -86.458       -4.691      162.978      113.935       73.359    26561.758    12981.206     5381.538        8.820        2.246      362.582       93.189        0.066      348.077       27.507      858.446
09/02/2013  17:40:00     -385.287      -92.894       -3.856      210.722      149.209       83.987    44403.615    22263.428     7053.862       11.539        3.686      396.328       91.782        0.054      348.041       27.444      858.454
09/02/2013  17:41:00     -430.080        1.802      -23.043      177.888      139.648       81.423    31644.058    19501.433     6629.782       12.163        2.889      430.084       94.699        0.048      347.993       27.361      858.501
09/02/2013  17:42:00     -229.780      -85.851       -2.228      129.172      113.248       60.827    16685.326    12824.999     3699.919        4.669        1.661      245.294       61.043        0.062      348.091       27.530      858.526
09/02/2013  17:43:00     -203.611      -91.747       19.100      174.437      150.745       78.284    30428.263    22724.143     6128.386        5.475        2.964      223.326       99.855        0.200      348.077       27.507      858.530
09/02/2013  17:44:00     -239.871     -169.445        0.754      162.712      172.827       79.707    26475.129    29869.246     6353.137        7.446        3.135      293.683       90.788        0.096      348.022       27.411      858.532
09/02/2013  17:45:00     -366.573     -179.538      -10.708      185.998      138.910       87.782    34595.326    19296.123     7705.690       11.415        3.080      408.178       85.972        0.044      348.019       27.408      858.498
09/02/2013  17:46:00     -304.841     -127.211       -7.416      174.617      152.241       75.381    30491.095    23177.188     5682.269        8.425        2.968      330.319       77.700        0.055      348.085       27.520      858.463
09/02/2013  17:47:00     -354.442     -170.533      -10.611      235.688      178.204       99.456    55548.746    31756.659     9891.401       12.599        4.860      393.332       94.674        0.058      348.101       27.548      858.444
09/02/2013  17:48:00     -221.960      -31.068      -15.915      184.791      125.475       58.748    34147.734    15743.927     3451.377        5.190        2.667      224.124       62.466        0.078      348.093       27.535      858.448
09/02/2013  17:49:00     -346.328     -196.376      -28.525      155.584      128.724       63.765    24206.489    16569.980     4066.034       10.207        2.242      398.129       63.829        0.026      348.053       27.466      858.474
09/02/2013  17:50:00     -374.644     -228.088      -11.622      186.229      127.237       91.839    34681.234    16189.148     8434.319       12.590        2.965      438.614      109.029        0.062      348.043       27.447      858.479
09/02/2013  17:51:00     -468.219      -78.084      -30.853      163.185      168.387       74.694    26629.207    28354.325     5579.248       14.341        3.028      474.686       69.791        0.022      347.998       27.369      858.497
09/02/2013  17:52:00     -215.811      -50.610        0.738      122.947       93.762       53.517    15115.913     8791.230     2864.036        3.795        1.339      221.666       54.650        0.061      348.092       27.532      858.525
09/02/2013  17:53:00     -276.310     -164.968      -10.411      149.412      104.127       65.011    22324.070    10842.416     4226.419        7.052        1.870      321.810       69.208        0.046      348.110       27.562      858.533
09/02/2013  17:54:00     -244.266     -158.114       -1.245      146.324       79.097       52.933    21410.735     6256.281     2801.903        5.756        1.523      290.974       58.954        0.041      348.112       27.567      858.551
09/02/2013  17:55:00     -306.702     -110.071       -6.762      119.388      140.334       60.846    14253.393    19693.617     3702.280        7.193        1.882      325.855       59.782        0.034      348.091       27.530      858.548
09/02/2013  17:56:00     -167.421     -154.467      -11.672      136.840       97.035       63.289    18725.209     9415.767     4005.516        4.208        1.607      227.793       62.346        0.075      348.050       27.460      858.546
09/02/2013  17:57:00     -182.802      -87.079        2.108      128.063      115.295       59.844    16400.231    13292.839     3581.271        3.713        1.664      202.483       64.707        0.102      348.085       27.520      858.539
09/02/2013  17:58:00     -222.370      -86.568      -13.523      110.823       96.801       51.517    12281.732     9370.377     2653.996        4.071        1.215      238.626       52.470        0.048      348.052       27.463      858.519
09/02/2013  17:59:00     -159.326     -135.398        6.547      153.754       95.297       64.435    23640.180     9081.580     4151.924        4.031        1.844      209.087       64.081        0.094      348.120       27.582      858.525
09/02/2013  18:00:00     -271.865     -237.301       -3.095      148.805      113.995       85.491    22143.000    12994.758     7308.680        8.633        2.122      360.863       79.896        0.049      348.095       27.536      858.516
09/02/2013  18:01:00     -337.785     -112.794        3.491      232.033      179.190       91.842    53839.350    32109.060     8434.921       11.059        4.719      356.120      128.630        0.130      348.124       27.588      858.515
09/02/2013  18:02:00     -372.675     -176.021      -16.780      234.555      172.941       96.299    55015.827    29908.529     9273.583       13.216        4.710      412.153      124.110        0.091      348.134       27.604      858.525
09/02/2013  18:03:00     -293.424     -101.192       -4.398      103.353      109.252       57.670    10681.876    11936.086     3325.788        6.114        1.297      310.383       43.910        0.020      348.153       27.637      858.549
09/02/2013  18:04:00     -268.087     -124.822       -9.743      164.822      103.438       56.288    27166.185    10699.351     3168.387        6.428        2.052      295.722       56.748        0.037      348.138       27.612      858.564
09/02/2013  18:05:00     -214.928     -155.947       -4.476       81.807       86.234       53.068     6692.362     7436.367     2816.190        4.374        0.847      265.544       43.143        0.026      348.130       27.597      858.570
09/02/2013  18:06:00     -182.054     -190.187       -2.879       87.338       73.491       46.382     7627.988     5400.936     2151.320        4.225        0.759      263.277       47.391        0.032      348.143       27.620      858.589
09/02/2013  18:07:00     -133.745     -123.528       10.543      120.466       94.245       55.729    14512.152     8882.176     3105.748        2.987        1.325      182.063       56.960        0.098      348.197       27.714      858.615
09/02/2013  18:08:00     -213.569     -150.741       16.001      170.838      123.912       71.253    29185.634    15354.170     5076.936        5.909        2.481      261.408       79.698        0.093      348.112       27.568      858.606
09/02/2013  18:09:00     -212.721     -102.089       -3.497      138.297       96.747       62.609    19125.988     9359.974     3919.855        4.404        1.620      235.950       68.896        0.085      348.077       27.506      858.602
09/02/2013  18:10:00     -275.982     -143.866      -14.151      146.484      111.095       58.696    21457.479    12342.188     3445.170        6.715        1.862      311.229       64.887        0.043      348.024       27.414      858.611
09/02/2013  18:11:00     -267.170     -117.452        0.894      146.838      112.899       62.141    21561.369    12746.148     3861.453        6.166        1.908      291.847       62.250        0.045      348.007       27.388      858.569
09/02/2013  18:12:00     -266.359     -120.213       -4.733      170.963      111.724       64.702    29228.382    12482.211     4186.391        6.565        2.295      292.230       80.568        0.076      348.003       27.379      858.572
09/02/2013  18:13:00     -292.225      -88.815      -19.799      138.994      156.455       70.566    19319.433    24478.091     4979.627        7.122        2.439      305.424       72.726        0.057      347.983       27.344      858.602
09/02/2013  18:14:00     -241.204     -213.325      -10.866      138.794       99.814       65.868    19263.770     9962.781     4338.548        6.868        1.678      322.004       70.043        0.047      347.999       27.371      858.611
09/02/2013  18:15:00     -342.184     -211.427      -16.530      142.398      126.254       80.787    20277.206    15940.168     6526.591       10.240        2.137      402.233       86.102        0.046      347.985       27.349      858.618
09/02/2013  18:16:00     -246.749      -95.571       15.513      219.444      147.922       96.316    48155.771    21880.892     9276.744        7.477        3.966      264.611      116.298        0.193      347.994       27.363      858.616
09/02/2013  18:17:00     -369.036     -138.426      -26.717      183.431      133.269       80.925    33646.821    17760.540     6548.825       10.700        2.898      394.143       76.061        0.037      347.971       27.325      858.619
09/02/2013  18:18:00     -173.085     -122.907       -1.144      143.084      103.789       75.339    20472.905    10772.256     5676.004        4.099        1.846      212.284       74.244        0.122      348.019       27.407      858.652
09/02/2013  18:19:00     -263.242     -119.938       26.979      290.086      150.668       76.173    84150.037    22700.754     5802.312        9.851        5.633      289.277      105.159        0.132      348.027       27.422      858.665
09/02/2013  18:20:00     -299.757     -173.451       -2.759      215.679      192.621      111.759    46517.314    37102.917    12490.014       10.801        4.806      346.323      123.692        0.128      347.960       27.305      858.639
09/02/2013  18:21:00     -429.896     -202.556      -20.731      233.261      231.839       93.731    54410.570    53749.333     8785.591       17.158        5.847      475.226      105.118        0.049      347.929       27.251      858.632
09/02/2013  18:22:00     -281.101     -118.542      -17.229      140.853       92.943       54.085    19839.696     8638.342     2925.138        6.238        1.570      305.074       60.455        0.039      347.978       27.337      858.657
09/02/2013  18:23:00     -267.883      -23.733       -6.211      133.200      114.051       64.517    17742.271    13007.625     4162.462        5.363        1.746      268.932       66.492        0.061      348.000       27.375      858.680
09/02/2013  18:24:00     -267.083      -51.836       -8.734      179.343      121.451       69.918    32163.897    14750.360     4888.496        6.294        2.590      272.066       82.534        0.092      347.987       27.352      858.680
09/02/2013  18:25:00     -296.519     -180.825        4.864      259.807      173.120      100.634    67499.535    29970.550    10127.152       11.410        5.380      347.306      118.175        0.116      347.964       27.312      858.703
09/02/2013  18:26:00     -345.249     -192.807      -15.489      153.993      125.314       80.777    23713.882    15703.488     6524.939       10.127        2.297      395.438       78.568        0.039      347.930       27.252      858.749
09/02/2013  18:27:00     -336.583     -214.565      -21.678      135.054      123.356       65.992    18239.477    15216.752     4354.962        9.880        1.891      399.157       65.347        0.027      347.932       27.256      858.786
09/02/2013  18:28:00     -252.418     -154.992       -2.876      156.618      123.123       66.191    24529.254    15159.339     4381.307        6.590        2.203      296.205       72.991        0.061      347.938       27.265      858.781
09/02/2013  18:29:00     -124.671     -129.110       12.080      119.825       88.901       55.511    14358.052     7903.348     3081.479        2.885        1.267      179.478       50.945        0.081      347.931       27.255      858.772
09/02/2013  18:30:00     -343.007     -152.471      -22.701      217.096      140.236       76.464    47130.797    19666.260     5846.725       10.702        3.632      375.368       77.629        0.043      347.894       27.190      858.776
09/02/2013  18:31:00     -329.180      -68.175        4.909      163.361      161.329       96.073    26686.974    26027.146     9229.970        8.748        3.097      336.165       99.975        0.088      347.914       27.225      858.742
09/02/2013  18:32:00     -292.392      -67.341        3.085      136.852      113.629       65.145    18728.396    12911.552     4243.848        6.295        1.794      300.046       65.706        0.048      347.919       27.233      858.748
09/02/2013  18:33:00     -267.895     -124.624       14.849      173.032      152.771       79.298    29939.933    23338.840     6288.170        7.353        2.978      295.464       90.083        0.093      347.913       27.223      858.750
09/02/2013  18:34:00     -307.836     -206.982      -20.813      203.245      146.403       81.982    41308.698    21433.821     6721.019       10.374        3.473      370.951      100.141        0.073      347.871       27.151      858.753
09/02/2013  18:35:00     -312.706     -167.241        6.201      156.703      121.921       73.953    24555.829    14864.700     5468.985        8.533        2.244      354.619       79.047        0.050      347.815       27.054      858.732
09/02/2013  18:36:00     -248.706     -236.540      -12.923      154.084      152.493       86.442    23741.950    23254.246     7472.199        8.621        2.723      343.228       92.007        0.072      347.828       27.076      858.733
09/02/2013  18:37:00     -366.272     -155.666      -10.003      214.934      151.826       88.938    46196.638    23051.205     7909.929       11.781        3.858      397.979      106.238        0.071      347.803       27.034      858.721
09/02/2013  18:38:00     -422.953     -217.786      -21.485      162.822      170.391       89.233    26511.165    29033.059     7962.584       14.513        3.175      475.731       81.035        0.029      347.745       26.934      858.731
09/02/2013  18:39:00     -248.382     -189.208        2.794      199.484      179.987      101.678    39794.003    32395.484    10338.316        9.000        4.126      312.239      116.489        0.139      347.721       26.893      858.729
09/02/2013  18:40:00     -354.742     -163.121        4.202      223.916      205.770       94.176    50138.493    42341.103     8869.117       12.689        5.067      390.449      107.798        0.076      347.715       26.880      858.717
09/02/2013  18:41:00     -346.398     -156.463      -20.864      215.238      146.229       84.040    46327.274    21383.002     7062.763       10.983        3.739      380.095      101.778        0.072      347.734       26.915      858.749
09/02/2013  18:42:00     -355.758      -82.883      -26.126      190.056      131.690       74.671    36121.217    17342.212     5575.790        9.657        2.952      365.285       81.558        0.050      347.744       26.932      858.759
09/02/2013  18:43:00     -260.018     -113.790        6.876      209.270      130.951       84.001    43794.053    17148.076     7056.163        7.429        3.400      283.827       88.145        0.096      347.752       26.945      858.754
09/02/2013  18:44:00     -251.949     -206.814      -21.519      141.196      130.229       74.394    19936.347    16959.703     5534.492        7.456        2.122      325.961       68.406        0.044      347.760       26.961      858.766
09/02/2013  18:45:00     -217.547     -122.798      -13.112      194.298      132.032       88.526    37751.899    17432.563     7836.766        6.279        3.151      249.812      100.041        0.160      347.737       26.919      858.766
09/02/2013  18:46:00     -326.895     -150.199        9.103      154.927      120.315       69.033    24002.406    14475.783     4765.582        8.636        2.162      359.750       75.198        0.044      347.722       26.893      858.755
09/02/2013  18:47:00     -254.506     -132.702        5.350      126.889      117.370       64.945    16100.900    13775.611     4217.861        5.825        1.705      287.024       69.388        0.058      347.720       26.891      858.770
09/02/2013  18:48:00     -242.718     -141.936       -1.529      170.148      161.939       82.595    28950.238    26224.336     6821.929        7.052        3.100      281.172       61.895        0.048      347.676       26.815      858.769
09/02/2013  18:49:00     -272.538     -159.230        3.385      212.557      156.754       75.749    45180.462    24571.689     5737.867        8.755        3.775      315.644       84.926        0.072      347.650       26.771      858.793
09/02/2013  18:50:00     -233.501     -127.651       -2.087      174.282      128.866       71.991    30374.067    16606.438     5182.753        6.148        2.608      266.116       60.752        0.052      347.628       26.732      858.792
09/02/2013  18:51:00     -224.473      -87.981       -6.522      146.028      116.034       63.209    21324.141    13463.934     3995.391        4.847        1.939      241.099       71.478        0.088      347.629       26.734      858.809
09/02/2013  18:52:00     -324.946      -78.781      -11.687      164.219      114.193       74.327    26967.920    13039.960     5524.508        7.872        2.277      334.359       76.278        0.052      347.615       26.711      858.819
09/02/2013  18:53:00     -292.956      -47.508        0.564      139.724      102.459       61.084    19522.845    10497.928     3731.269        6.091        1.688      296.783       68.730        0.054      347.616       26.711      858.847
09/02/2013  18:54:00     -342.659     -114.665      -24.460      166.143      140.229       75.196    27603.551    19664.147     5654.501        9.203        2.646      361.336       80.840        0.050      347.587       26.662      858.861
09/02/2013  18:55:00     -365.902     -117.824       -3.836      138.052      126.547       73.716    19058.232    16014.174     5434.029        9.414        2.025      384.404       63.320        0.027      347.592       26.671      858.859
09/02/2013  18:56:00     -288.317      -29.861       -3.314      143.160      126.492       60.070    20494.706    16000.335     3608.425        6.206        2.005      289.859       63.982        0.049      347.594       26.675      858.867
09/02/2013  18:57:00     -348.063      -51.016      -37.024      206.400      159.040       70.446    42601.124    25293.705     4962.644        9.897        3.643      351.782       62.108        0.031      347.613       26.707      858.808
09/02/2013  18:58:00     -390.034      -92.126       -9.422      211.649      164.877       78.983    44795.329    27184.572     6238.249       11.944        3.911      400.766       99.630        0.062      347.627       26.731      858.823
09/02/2013  18:59:00     -346.941     -201.622       -7.188      218.086      157.311      102.092    47561.616    24746.900    10422.688       12.188        4.137      401.273      117.246        0.085      347.582       26.654      858.870
09/02/2013  19:00:00     -262.890     -178.597        6.789      164.833      129.355       75.817    27169.806    16732.671     5748.167        7.534        2.483      317.818       80.152        0.064      347.567       26.628      858.876
09/02/2013  19:01:00     -231.846     -204.251       -9.790      156.525      111.125       67.896    24500.166    12348.766     4609.896        6.850        2.073      308.984       74.050        0.057      347.557       26.609      858.853
09/02/2013  19:02:00     -205.419     -154.241        0.903      159.060      121.331       88.419    25300.159    14721.195     7817.990        5.690        2.392      256.880       90.523        0.124      347.548       26.596      858.811
09/02/2013  19:03:00     -230.770     -100.459        6.194      217.913      153.546       66.836    47486.036    23576.497     4466.988        6.944        3.776      251.688       93.971        0.139      347.459       26.442      858.850
09/02/2013  19:04:00     -327.782     -101.971      -11.785      207.192      139.484       78.645    42928.472    19455.797     6185.064        9.326        3.428      343.277       77.917        0.052      347.513       26.533      858.812
09/02/2013  19:05:00     -497.713     -109.144      -29.466      223.265      157.047       99.244    49847.060    24663.739     9849.467       17.241        4.218      509.540      117.506        0.053      347.501       26.513      858.818
09/02/2013  19:06:00     -384.102     -208.861      -33.046      188.686      139.658       82.673    35602.229    19504.270     6834.859       12.708        3.097      437.215       76.720        0.031      347.494       26.499      858.832
09/02/2013  19:07:00     -163.372     -128.009       -8.315      136.313      130.867       75.870    18581.333    17126.277     5756.258        4.230        2.073      207.549       74.923        0.130      347.468       26.456      858.816
09/02/2013  19:08:00     -234.824      -80.042       -2.503      116.009      110.122       55.973    13458.187    12126.774     3132.980        4.513        1.436      248.091       59.305        0.057      347.454       26.430      858.834
09/02/2013  19:09:00     -155.957      -54.333       -3.444      167.085      139.751       71.573    27917.351    19530.212     5122.751        3.992        2.629      165.151       70.399        0.182      347.437       26.403      858.846
09/02/2013  19:10:00     -332.186     -263.187       -9.600      267.535      179.167      109.986    71574.946    32100.826    12096.942       14.772        5.789      423.810      145.164        0.117      347.434       26.396      858.827
09/02/2013  19:11:00     -162.782      -58.577        7.375      135.032       96.159       76.207    18233.626     9246.576     5807.445        3.163        1.664      173.001       72.069        0.174      347.447       26.419      858.860
09/02/2013  19:12:00     -402.576      -40.447      -16.706      218.187      100.718       73.939    47605.403    10144.113     5466.990       11.359        3.161      404.603      102.325        0.064      347.442       26.408      858.864
09/02/2013  19:13:00     -258.343     -114.701       -1.331      139.708      145.468       65.592    19518.303    21160.798     4302.298        6.243        2.249      282.661       72.086        0.065      347.418       26.369      858.872
09/02/2013  19:14:00     -240.362      -83.522       -0.439       93.093      113.293       49.005     8666.359    12835.258     2401.490        4.432        1.195      254.460       42.093        0.027      347.428       26.384      858.878
09/02/2013  19:15:00     -277.325     -133.695       -5.461      165.153      108.477       53.733    27275.516    11767.315     2887.260        6.836        2.097      307.869       51.384        0.028      347.513       26.533      858.908
09/02/2013  19:16:00     -407.576     -274.851      -18.058      167.040      122.876       72.699    27902.463    15098.574     5285.162       14.513        2.414      491.590       78.224        0.025      347.571       26.635      858.887
09/02/2013  19:17:00     -202.884     -126.048      -11.022      106.043      104.864       49.077    11245.096    10996.392     2408.566        4.091        1.233      238.851       50.165        0.044      347.563       26.621      858.924
09/02/2013  19:18:00     -194.949     -148.244       -7.476      106.810      100.320       64.468    11408.299    10064.091     4156.085        4.283        1.281      244.911       64.183        0.069      347.466       26.453      858.940
09/02/2013  19:19:00     -236.605      -57.796       14.775      190.841      144.071       67.646    36420.354    20756.386     4575.936        6.063        3.088      243.562       87.520        0.129      347.376       26.298      858.931
09/02/2013  19:20:00     -442.919      -31.848      -26.179      174.716      106.734       63.510    30525.656    11392.176     4033.472       12.191        2.298      444.063       82.806        0.035      347.343       26.239      858.929
09/02/2013  19:21:00     -358.645     -142.395      -20.239      161.098      151.146       81.349    25952.582    22845.047     6617.685       10.235        2.771      385.879       91.625        0.056      347.314       26.190      858.946
09/02/2013  19:22:00     -259.695     -133.515      -17.631      144.533      117.926       63.914    20889.902    13906.549     4085.019        6.222        1.944      292.007       66.500        0.052      347.308       26.180      858.939
09/02/2013  19:23:00     -268.607     -197.708       -3.211      162.244      115.517       66.335    26323.104    13344.279     4400.276        7.765        2.203      333.524       65.833        0.039      347.268       26.111      858.956
09/02/2013  19:24:00     -251.995     -113.438      -16.809      139.702      102.086       57.647    19516.676    10421.602     3323.171        5.495        1.663      276.351       68.754        0.062      347.246       26.073      858.969
09/02/2013  19:25:00     -122.434      -41.075        3.912      105.025       73.657       52.390    11030.231     5425.306     2744.708        1.794        0.960      129.140       57.279        0.197      347.233       26.051      858.973
09/02/2013  19:26:00     -142.916     -119.429       20.454      118.435      111.176       56.294    14026.938    12360.191     3169.026        3.233        1.478      186.248       62.821        0.114      347.235       26.053      859.016
09/02/2013  19:27:00      -60.234      -17.282       27.313      104.138       76.639       65.455    10844.771     5873.568     4284.337        1.283        1.050       62.664       59.365        0.897      347.087       25.802      859.046
09/02/2013  19:28:00     -151.265     -109.169       25.231      213.563      102.035       93.691    45609.035    10411.072     8778.080        5.010        3.240      186.545      115.312        0.382      347.156       25.919      859.078
09/02/2013  19:29:00     -215.453     -135.754       -5.326       99.621       97.218       61.379     9924.418     9451.336     3767.359        4.401        1.157      254.655       55.469        0.047      347.195       25.986      859.091
09/02/2013  19:30:00     -301.824      -77.646      -31.030      114.432       83.071       48.971    13094.602     6900.831     2398.187        6.024        1.120      311.651       49.405        0.025      347.201       25.996      859.098
09/02/2013  19:31:00     -254.476       -9.816       -5.378      137.365      100.526       59.478    18869.104    10105.414     3537.669        4.869        1.626      254.665       64.772        0.065      347.159       25.924      859.090
09/02/2013  19:32:00     -397.653      -96.843       -1.118      213.040      140.018       75.449    45386.213    19605.178     5692.546       11.908        3.534      409.276       86.422        0.045      347.140       25.892      859.079
09/02/2013  19:33:00     -266.621     -175.888        0.628      180.001       93.037       74.926    32400.246     8655.923     5613.849        7.434        2.334      319.411       88.055        0.076      347.141       25.894      859.072
09/02/2013  19:34:00     -182.082      -56.349       21.600      133.449       93.213       64.766    17808.708     8688.716     4194.582        3.374        1.535      190.601       60.856        0.102      347.139       25.889      859.098
09/02/2013  19:35:00     -225.564     -168.647       12.364      151.338      175.052       78.199    22903.216    30643.177     6115.130        6.956        2.983      281.640       78.997        0.079      347.144       25.897      859.108
09/02/2013  19:36:00     -208.944     -141.314       -5.721      107.401      117.291       66.703    11534.994    13757.076     4449.249        4.669        1.487      252.244       60.434        0.057      347.144       25.898      859.107
09/02/2013  19:37:00     -283.284      -27.304      -14.586      155.170      136.997       65.645    24077.604    18768.085     4309.205        6.417        2.358      284.597       61.683        0.047      347.129       25.872      859.124
09/02/2013  19:38:00     -249.085     -126.403        8.641      174.848       91.870       65.301    30571.838     8440.107     4264.201        6.068        2.164      279.322       76.913        0.076      347.120       25.856      859.123
09/02/2013  19:39:00     -172.545     -113.777        0.111      149.606       77.465       55.274    22381.898     6000.797     3055.206        3.707        1.572      206.681       62.898        0.093      347.131       25.877      859.135
09/02/2013  19:40:00     -155.934      -19.475        9.867      107.181       76.217       55.050    11487.682     5809.035     3030.466        2.256        1.016      157.145       64.780        0.170      347.106       25.834      859.150
09/02/2013  19:41:00     -322.548      -39.953      -16.077      146.253      103.099       57.162    21390.060    10629.506     3267.503        7.058        1.764      325.013       53.293        0.027      347.116       25.848      859.174
09/02/2013  19:42:00     -297.573      -93.652      -11.910      181.094      107.335       67.941    32795.155    11520.787     4616.022        7.319        2.447      311.962       68.366        0.048      347.171       25.944      859.185
09/02/2013  19:43:00     -282.707     -170.340       -7.450      128.509      130.588       63.498    16514.654    17053.337     4032.007        7.329        1.880      330.059       62.448        0.036      347.135       25.882      859.193
09/02/2013  19:44:00     -258.164     -153.809      -11.761      151.906       94.938       61.311    23075.526     9013.287     3758.989        6.314        1.792      300.509       75.467        0.063      347.107       25.833      859.216
09/02/2013  19:45:00     -288.131      -85.567       -4.089      131.748      134.729       61.952    17357.570    18151.850     3838.038        6.484        1.967      300.568       59.716        0.039      347.066       25.762      859.229
09/02/2013  19:46:00     -288.316      -49.273      -15.060      118.394       99.860       63.507    14017.184     9971.952     4033.193        5.690        1.401      292.496       64.052        0.048      347.059       25.751      859.256
09/02/2013  19:47:00     -280.368      -28.244       -7.808      118.223       70.937       48.716    13976.755     5032.045     2373.255        5.042        1.069      281.787       50.522        0.032      347.041       25.720      859.252
09/02/2013  19:48:00     -243.347      -69.848       -7.476      135.285       81.035       48.849    18302.084     6566.715     2386.204        4.570        1.363      253.173       52.784        0.043      347.023       25.691      859.266
09/02/2013  19:49:00     -184.746      -44.515      -12.861      110.171       51.145       41.691    12137.629     2615.774     1738.168        2.638        0.825      190.034       48.841        0.066      346.993       25.637      859.279
09/02/2013  19:50:00      -96.061      -54.929        6.374       80.325       68.271       31.808     6452.178     4660.971     1011.751        1.220        0.606      110.657       31.413        0.081      347.022       25.688      859.295
09/02/2013  19:51:00     -427.072      -31.759      -18.467      235.660      142.336       85.948    55535.752    20259.530     7387.009       13.344        4.159      428.251      101.898        0.057      346.990       25.632      859.311
09/02/2013  19:52:00     -323.621     -152.624        4.824      206.812      148.999       86.186    42771.331    22200.787     7428.056       10.021        3.620      357.805      104.377        0.085      346.982       25.618      859.305
09/02/2013  19:53:00     -224.240      -84.562       21.971      158.838      151.584       89.093    25229.615    22977.726     7937.650        5.702        2.807      239.655       97.461        0.165      346.955       25.573      859.292
09/02/2013  19:54:00     -303.287      -56.763      -11.278      124.732      152.071       65.546    15558.014    23125.673     4296.236        6.915        2.149      308.553       66.345        0.046      346.946       25.557      859.263
09/02/2013  19:55:00     -281.788     -146.202       -3.937      117.933      126.920       67.267    13908.173    16108.568     4524.787        6.766        1.727      317.458       57.653        0.033      346.920       25.512      859.280
09/02/2013  19:56:00     -337.910      -69.247       -2.439      183.641      137.852       94.110    33724.047    19003.197     8856.680        9.027        3.079      344.932       95.042        0.076      346.914       25.500      859.310
09/02/2013  19:57:00     -301.709     -142.742       -0.849      146.534      188.639       70.894    21472.118    35584.738     5025.958        8.673        3.104      333.772       70.942        0.045      346.927       25.522      859.361
09/02/2013  19:58:00     -333.782     -179.326       12.419      218.075      167.777       87.008    47556.844    28149.125     7570.349       11.348        4.164      378.904      105.548        0.078      346.922       25.515      859.369
09/02/2013  19:59:00     -240.838     -142.368       -7.449      147.432      107.263       64.771    21736.149    11505.303     4195.229        5.787        1.872      279.771       74.598        0.071      346.922       25.514      859.400
09/02/2013  20:00:00     -168.522      -14.631      -11.858      104.676       66.939       48.797    10956.998     4480.882     2381.130        2.328        0.891      169.156       44.478        0.069      346.888       25.455      859.392
09/02/2013  20:01:00     -294.334      -29.148       -3.034      172.235      117.702       73.297    29664.861    13853.802     5372.446        6.818        2.445      295.774       89.939        0.092      346.847       25.388      859.402
09/02/2013  20:02:00     -228.771      -47.323        0.248      151.246      101.503       56.877    22875.468    10302.897     3234.939        4.549        1.821      233.614       60.005        0.066      346.864       25.417      859.412
09/02/2013  20:03:00     -295.735     -114.063      -14.463      150.550      188.075       82.689    22665.419    35372.159     6837.465        8.276        3.244      316.969       74.978        0.056      346.848       25.387      859.423
09/02/2013  20:04:00     -143.263      -60.159       13.264      104.770      108.623       53.407    10976.722    11798.876     2852.274        2.497        1.281      155.382       58.119        0.140      346.814       25.331      859.467
09/02/2013  20:05:00     -206.434     -157.279       -4.337      131.752       94.072       60.935    17358.525     8849.556     3713.105        4.864        1.496      259.522       68.573        0.070      346.831       25.359      859.511
09/02/2013  20:06:00     -188.539      -99.487      -10.590      120.520      134.088       51.955    14525.111    17979.669     2699.276        4.037        1.760      213.178       56.487        0.070      346.829       25.356      859.556
09/02/2013  20:07:00     -280.604       19.088      -15.294      157.847      132.381       63.254    24915.532    17524.754     4001.088        6.288        2.322      281.252       59.286        0.044      346.801       25.307      859.527
09/02/2013  20:08:00     -357.541       48.170      -35.884      151.942       89.724       53.496    23086.362     8050.430     2861.781        8.271        1.700      360.771       55.255        0.023      346.796       25.298      859.481
09/02/2013  20:09:00     -245.474      -40.076      -16.263      105.161       79.636       46.690    11058.786     6341.879     2179.983        4.085        0.979      248.724       51.534        0.043      346.779       25.269      859.510
09/02/2013  20:10:00     -154.055      -99.778       -3.986      135.600      103.737       58.221    18387.334    10761.296     3389.709        3.311        1.627      183.545       67.371        0.135      346.765       25.246      859.531
09/02/2013  20:11:00     -114.791      -46.093       28.539      157.659      137.631       71.406    24856.374    18942.354     5098.843        3.250        2.445      123.700       74.573        0.363      346.733       25.191      859.554
09/02/2013  20:12:00     -246.970      -67.713       15.341      183.584      128.419       72.714    33703.066    16491.555     5287.395        6.064        2.774      256.085       94.198        0.135      346.753       25.225      859.577
09/02/2013  20:13:00     -340.291     -100.489      -15.387      180.251      127.144       73.527    32490.359    16165.512     5406.185        9.009        2.703      354.818       90.062        0.064      346.761       25.238      859.581
09/02/2013  20:14:00     -327.996      -41.065      -22.160       93.142       92.393       47.657     8675.413     8536.557     2271.226        6.462        0.974      330.557       42.272        0.016      346.752       25.221      859.609
09/02/2013  20:15:00     -216.944      -76.250        7.756      113.007      111.558       57.975    12770.597    12445.077     3361.123        4.075        1.429      229.954       59.810        0.068      346.721       25.169      859.612
09/02/2013  20:16:00     -225.675     -123.133       -7.100      124.664       90.439       49.350    15541.177     8179.174     2435.401        4.614        1.308      257.081       38.501        0.022      346.729       25.182      859.612
09/02/2013  20:17:00     -190.074       32.694        0.588      105.108       74.013       44.301    11047.677     5477.917     1962.575        2.784        0.924      192.866       46.451        0.058      346.709       25.148      859.623
09/02/2013  20:18:00     -110.928      -69.244        2.866       92.083       74.719       56.384     8479.321     5582.946     3179.103        1.717        0.862      130.766       56.883        0.189      346.705       25.142      859.633
09/02/2013  20:19:00     -159.268      -38.884        4.002      154.949       90.269       50.329    24009.288     8148.538     2533.052        3.079        1.735      163.946       59.211        0.130      346.689       25.115      859.629
09/02/2013  20:20:00     -260.064       14.670      -21.491      146.704      107.005       58.974    21522.071    11450.082     3477.874        5.237        1.823      260.477       63.157        0.059      346.654       25.054      859.618
09/02/2013  20:21:00     -346.215       16.761      -31.648      106.678       93.323       67.878    11380.192     8709.172     4607.392        7.292        1.235      346.620       50.201        0.021      346.640       25.028      859.617
09/02/2013  20:22:00     -252.562      -39.175       -3.909      145.422      122.174       68.995    21147.577    14926.527     4760.345        5.308        2.042      255.582       79.154        0.096      346.618       24.991      859.633
09/02/2013  20:23:00     -268.444       -5.173        2.835      168.556      114.222       78.625    28411.140    13046.703     6181.869        5.986        2.382      268.494       79.231        0.087      346.605       24.971      859.632
09/02/2013  20:24:00     -254.791      -30.668       -1.262      141.946       93.503       62.031    20148.611     8742.892     3847.802        4.929        1.637      256.630       71.812        0.078      346.587       24.938      859.630
09/02/2013  20:25:00     -146.654      -10.394       26.984      131.898       92.563       59.268    17397.025     8567.942     3512.670        2.590        1.474      147.022       76.922        0.274      346.562       24.895      859.663
09/02/2013  20:26:00     -256.559     -108.649      -18.554      185.767      148.013       77.043    34509.253    21907.785     5935.642        7.015        3.118      278.616       92.001        0.109      346.576       24.920      859.657
09/02/2013  20:27:00     -261.593     -176.206      -23.092      134.733      114.973       63.428    18153.001    13218.780     4023.092        6.770        1.770      315.404       67.828        0.046      346.562       24.894      859.675
09/02/2013  20:28:00     -323.830      -62.297      -12.115      241.851      115.873       60.224    58492.037    13426.651     3626.884        9.220        3.777      329.768       84.278        0.065      346.549       24.874      859.689
09/02/2013  20:29:00     -174.692     -125.875       10.952      170.139      157.177       95.635    28947.192    24704.598     9145.997        5.463        3.140      215.318       86.075        0.160      346.500       24.789      859.683
09/02/2013  20:30:00     -324.417       -2.429        0.689      162.852      143.411       78.770    26520.786    20566.831     6204.716        7.926        2.665      324.426       79.116        0.059      346.505       24.798      859.706
09/02/2013  20:31:00     -241.944      -60.122       12.025      158.311      137.567       82.245    25062.367    18924.747     6764.280        5.651        2.538      249.302       88.508        0.126      346.484       24.763      859.700
09/02/2013  20:32:00     -225.497      -18.642        5.315      141.055       87.876       57.307    19896.430     7722.169     3284.062        4.106        1.545      226.266       61.123        0.073      346.478       24.752      859.718
09/02/2013  20:33:00     -189.971       10.097       -4.120       94.231       90.268       52.899     8879.569     8148.289     2798.305        2.801        0.991      190.239       37.201        0.038      346.491       24.775      859.743
09/02/2013  20:34:00     -334.766      -56.265       -1.549      169.947      158.538       70.110    28882.055    25134.281     4915.384        8.707        2.947      339.461       63.370        0.035      346.478       24.751      859.757
09/02/2013  20:35:00     -219.238     -163.255        1.281      188.721      134.201       98.727    35615.524    18009.850     9746.922        6.903        3.169      273.345      102.658        0.141      346.461       24.723      859.758
09/02/2013  20:36:00     -291.405      -70.696       -5.481      176.576      136.687       70.324    31179.096    18683.281     4945.462        7.237        2.740      299.858       76.408        0.065      346.437       24.680      859.772
09/02/2013  20:37:00     -409.746      -70.280      -28.888      123.332      145.928       58.483    15210.811    21294.993     3420.249       10.679        1.996      415.730       52.788        0.016      346.427       24.662      859.779
09/02/2013  20:38:00     -353.991      -20.774      -28.646      221.218      125.144       71.405    48937.407    15661.070     5098.742        9.812        3.485      354.600      103.810        0.086      346.419       24.650      859.791
09/02/2013  20:39:00     -407.048      -99.154      -21.731      181.085      112.435       74.687    32791.835    12641.579     5578.077       11.349        2.551      418.950       71.202        0.029      346.392       24.602      859.809
09/02/2013  20:40:00     -285.207      -51.916      -21.453      171.139       85.501       59.935    29288.447     7310.352     3592.240        6.234        2.010      289.893       77.229        0.071      346.386       24.592      859.861
09/02/2013  20:41:00     -327.566      -32.993      -10.231      133.503       91.373       57.752    17823.018     8348.985     3335.254        6.899        1.475      329.223       63.611        0.037      346.369       24.563      859.888
09/02/2013  20:42:00     -303.982      -83.293      -19.972      122.348      141.013       67.088    14969.012    19884.623     4500.793        6.954        1.968      315.187       65.698        0.043      346.346       24.523      859.934
09/02/2013  20:43:00     -294.468      -80.387       -9.461      173.627       87.143       67.870    30146.316     7593.961     4606.337        6.780        2.117      305.244       84.174        0.076      346.340       24.516      859.974
09/02/2013  20:44:00     -305.907        2.393      -26.577      182.707      113.274       68.692    33381.937    12830.904     4718.633        7.260        2.547      305.916       71.717        0.055      346.316       24.473      859.963
09/02/2013  20:45:00     -239.240      -25.180        9.987      134.377      125.095       56.440    18057.176    15648.769     3185.431        4.742        1.845      240.562       61.044        0.064      346.299       24.444      859.981
09/02/2013  20:46:00     -199.743      -48.987      -10.477      126.357       98.869       56.083    15966.069     9775.024     3145.287        3.564        1.444      205.662       56.907        0.077      346.306       24.455      859.981
09/02/2013  20:47:00     -214.984     -119.730      -22.154       94.767      108.189       66.827     8980.732    11704.886     4465.903        4.309        1.258      246.076       57.445        0.054      346.297       24.440      860.001
09/02/2013  20:48:00     -143.032      -58.434       11.820      109.705      103.471       63.171    12035.127    10706.284     3990.524        2.537        1.337      154.508       58.904        0.145      346.242       24.345      860.013
09/02/2013  20:49:00     -103.004       -1.766       -0.128       84.245       77.127       40.167     7097.272     5948.592     1613.383        1.263        0.733      103.019       31.488        0.093      346.249       24.360      860.049
09/02/2013  20:50:00       -6.866      -10.931       15.562       53.552       69.411       30.274     2867.787     4817.819      916.522        0.450        0.430       12.909       28.253        4.790      345.975       23.891      860.061
09/02/2013  20:51:00        2.736       24.426       11.002       20.229       15.228       16.551      409.197      231.901      273.935        0.082        0.046       24.579       13.183        0.288      345.906       23.772      860.065
09/02/2013  20:52:00       76.729        7.050       11.717       46.494       41.157       30.743     2161.683     1693.901      945.103        0.544        0.240       77.052       27.314        0.126      345.727       23.464      860.092
09/02/2013  20:53:00       19.311       30.157       11.393       57.216       36.502       30.252     3273.726     1332.370      915.203        0.347        0.276       35.810       24.371        0.463      345.746       23.496      860.094
09/02/2013  20:54:00      -13.381       -0.216       18.793       33.289       39.250       34.834     1108.135     1540.596     1213.398        0.220        0.193       13.383       21.887        2.675      345.725       23.462      860.116
09/02/2013  20:55:00       26.544      -50.566       -1.026       39.605       87.264       36.634     1568.567     7615.062     1342.039        0.689        0.526       57.109       28.267        0.245      345.770       23.538      860.132
09/02/2013  20:56:00       40.025       28.035       48.720       56.488       47.491       44.820     3190.889     2255.415     2008.830        0.611        0.373       48.867       39.565        0.656      345.789       23.570      860.155
09/02/2013  20:57:00       40.015        1.567       34.599       40.753       74.565       26.004     1660.812     5559.916      676.192        0.535        0.395       40.045       10.016        0.063      345.740       23.486      860.177
09/02/2013  20:58:00       68.487       38.953       36.787       35.367       46.079       22.901     1250.792     2123.267      524.445        0.573        0.195       78.789       14.129        0.032      345.979       23.897      860.178
09/02/2013  20:59:00       99.633       52.306       14.557       46.283       36.074       31.651     2142.086     1301.362     1001.795        0.866        0.222      112.529       10.844        0.009      346.085       24.077      860.172
09/02/2013  21:00:00      100.047       34.613       10.243       83.720       66.283       38.821     7009.074     4393.391     1507.101        1.211        0.645      105.865       34.215        0.104      346.041       24.001      860.186
09/02/2013  21:01:00      147.066      100.593       23.875       58.960       50.161       48.706     3476.317     2516.084     2372.282        2.034        0.418      178.178       37.939        0.045      346.227       24.320      860.204
09/02/2013  21:02:00      115.574       78.457       19.710       59.554       53.333       37.488     3546.669     2844.413     1405.328        1.385        0.390      139.688       32.475        0.054      346.210       24.292      860.226
09/02/2013  21:03:00      108.306       68.406       21.845       62.278       45.440       33.777     3878.576     2064.804     1140.910        1.198        0.354      128.100       20.620        0.026      346.238       24.342      860.257
09/02/2013  21:04:00       42.459       26.076        5.300       69.497       47.807       32.819     4829.846     2285.538     1077.076        0.535        0.410       49.827       26.546        0.284      346.206       24.285      860.262
09/02/2013  21:05:00        5.441       21.494       -9.268       92.312       35.887       29.402     8521.443     1287.877      864.498        0.562        0.534       22.172       19.577        0.780      346.183       24.245      860.273
09/02/2013  21:06:00      102.139       76.607        9.584       70.643       58.114       45.254     4990.494     3377.222     2047.900        1.340        0.521      127.675       40.035        0.098      346.168       24.222      860.282
09/02/2013  21:07:00      114.167       64.209       23.083       54.333       31.362       29.077     2952.052      983.551      845.485        1.123        0.239      130.984       12.924        0.010      346.160       24.210      860.269
09/02/2013  21:08:00       68.887       30.338       25.021       53.273       30.648       26.984     2837.990      939.289      728.134        0.540        0.225       75.271       22.381        0.088      346.134       24.162      860.270
09/02/2013  21:09:00       27.894       64.494       75.911       46.311       50.753       48.636     2144.680     2575.822     2365.428        0.889        0.354       70.268       29.911        0.181      346.140       24.172      860.276
09/02/2013  21:10:00       -6.304       -3.056       16.923       23.424       26.377       16.500      548.685      695.722      272.257        0.093        0.076        7.006       14.046        4.019      346.121       24.139      860.271
09/02/2013  21:11:00      103.732       50.423       15.609       63.821       48.528       32.394     4073.056     2354.988     1049.356        1.051        0.374      115.338       27.430        0.057      346.109       24.117      860.270
09/02/2013  21:12:00       87.304       51.576        1.076       40.482       32.094       26.279     1638.828     1030.051      690.561        0.682        0.168      101.401       20.568        0.041      346.115       24.130      860.287
09/02/2013  21:13:00      101.329       56.205       -3.277       33.615       31.450       21.738     1129.954      989.090      472.531        0.801        0.130      115.873       11.546        0.010      346.085       24.079      860.305
09/02/2013  21:14:00      110.943       74.945       15.603       58.009       49.540       41.361     3365.038     2454.192     1710.695        1.285        0.376      133.884       27.171        0.041      346.101       24.106      860.306
09/02/2013  21:15:00       48.436       72.668        7.926       87.683       33.105       38.942     7688.269     1095.950     1516.450        0.899        0.515       87.331       23.825        0.074      346.097       24.098      860.290
09/02/2013  21:16:00      -19.280       42.033        1.170       41.306       28.356       26.436     1706.162      804.085      698.884        0.267        0.160       46.244       19.977        0.187      346.044       24.009      860.293
09/02/2013  21:17:00      -11.221      178.053      -40.314       58.198       72.407       31.158     3386.967     5242.798      970.802        2.153        0.480      178.406       36.024        0.041      346.192       24.261      860.291
09/02/2013  21:18:00      -39.368       48.211        0.548       64.734       37.083       24.812     4190.499     1375.170      615.611        0.503        0.309       62.243       18.111        0.085      346.109       24.121      860.299
09/02/2013  21:19:00      -79.588       51.225       -5.139       75.961       61.367       34.979     5770.063     3765.909     1223.559        0.987        0.538       94.648       22.625        0.057      345.994       23.923      860.315
09/02/2013  21:20:00       11.088      201.153      -20.505       57.039       71.870       41.185     3253.401     5165.307     1696.242        2.556        0.506      201.459       42.731        0.045      346.024       23.971      860.341
09/02/2013  21:21:00       71.233       85.860       17.662       67.287       65.016       46.037     4527.513     4227.095     2119.388        1.181        0.544      111.562       42.857        0.148      346.019       23.966      860.378
09/02/2013  21:22:00      148.195       96.999       14.157       74.176       37.287       38.132     5502.129     1390.296     1454.012        1.996        0.417      177.117       24.859        0.020      345.999       23.931      860.392
09/02/2013  21:23:00      200.599      129.273       50.000       48.169       51.905       53.188     2320.212     2694.104     2828.963        3.365        0.392      238.645       33.488        0.020      345.947       23.837      860.406
09/02/2013  21:24:00       82.080       69.997       56.403       54.452       46.901       39.668     2964.992     2199.737     1573.545        1.078        0.337      107.874       27.095        0.063      345.922       23.799      860.431
09/02/2013  21:25:00       49.474       53.739        6.185       31.822       32.384       32.896     1012.659     1048.751     1082.152        0.426        0.157       73.045       16.921        0.054      345.852       23.680      860.451
09/02/2013  21:26:00       72.757      163.118      -10.826       87.184      123.366       69.245     7601.027    15219.175     4794.824        2.981        1.381      178.609       63.174        0.125      345.736       23.477      860.473
09/02/2013  21:27:00       99.004      147.669       17.869      107.231      113.524       77.231    11498.392    12887.807     5964.692        3.113        1.518      177.786       67.890        0.146      345.591       23.227      860.478
09/02/2013  21:28:00       84.617      230.366       -4.509      120.966      135.517       71.299    14632.865    18364.806     5083.608        4.916        1.904      245.415       67.831        0.076      345.612       23.264      860.472
09/02/2013  21:29:00       84.536      140.260       -2.605      103.590       84.472       51.971    10730.845     7135.573     2700.984        2.369        1.028      163.765       39.842        0.059      345.604       23.250      860.479
09/02/2013  21:30:00       72.266      208.407      -14.269       82.933      144.984       78.337     6877.867    21020.413     6136.637        4.144        1.702      220.580       81.483        0.136      345.716       23.443      860.492
09/02/2013  21:31:00      -14.312      184.515      -11.913       70.889       89.768       46.830     5025.285     8058.294     2193.060        2.483        0.764      185.070       51.130        0.076      345.579       23.207      860.505
09/02/2013  21:32:00       59.975      129.560       25.337      100.351       96.279       81.182    10070.288     9269.599     6590.564        2.347        1.297      142.768       59.204        0.172      345.524       23.114      860.489
09/02/2013  21:33:00       85.355      194.808       10.021      109.813      128.249       94.765    12058.897    16447.751     8980.379        4.140        1.874      212.687       87.361        0.169      345.511       23.090      860.498
09/02/2013  21:34:00      117.413      164.286       -3.267      125.219       95.766       82.011    15679.738     9171.138     6725.864        3.618        1.579      201.930       67.969        0.113      345.464       23.010      860.503
09/02/2013  21:35:00      216.150      173.166       16.851       95.108       80.451       71.307     9045.492     6472.365     5084.636        4.879        1.030      276.961       47.837        0.030      345.444       22.974      860.514
09/02/2013  21:36:00      210.432      121.352       33.967      156.225       68.337       62.851    24406.104     4669.909     3950.284        4.659        1.651      242.916       80.286        0.109      345.451       22.988      860.486
09/02/2013  21:37:00        8.888       33.211       47.286      136.905       78.513       55.521    18742.878     6164.243     3082.597        1.570        1.399       34.380       54.192        2.485      345.454       22.994      860.484
09/02/2013  21:38:00      -94.083       65.091      -18.468       65.419       86.102       32.824     4279.586     7413.479     1077.422        1.310        0.639      114.405       24.656        0.046      345.823       23.628      860.527
09/02/2013  21:39:00       -2.677       63.313       22.751       65.728       59.062       42.836     4320.209     3488.267     1834.902        0.709        0.482       63.369       38.819        0.375      345.862       23.697      860.544
09/02/2013  21:40:00       84.336      103.728        5.171      108.240       82.847       66.471    11715.875     6863.549     4418.400        2.044        1.150      133.686       49.805        0.139      345.674       23.372      860.532
09/02/2013  21:41:00      288.288      175.811       50.432      143.896       95.498       81.110    20706.184     9119.944     6578.841        7.648        1.820      337.668       40.657        0.014      345.463       23.009      860.538
09/02/2013  21:42:00      138.088       85.755       18.693       87.119       77.124       76.218     7589.683     5948.160     5809.213        2.306        0.967      162.549       36.342        0.050      345.425       22.943      860.539
09/02/2013  21:43:00      151.589       69.707       31.794      121.862       87.642       71.111    14850.414     7681.156     5056.756        2.821        1.379      166.848       44.591        0.071      345.391       22.886      860.554
09/02/2013  21:44:00      150.152      128.229       17.400       97.971       84.691       69.998     9598.399     7172.600     4899.724        3.048        1.084      197.454       53.122        0.072      345.376       22.858      860.579
09/02/2013  21:45:00      149.065      114.172       29.825       89.486       63.847       74.396     8007.794     4076.431     5534.719        2.688        0.881      187.765       45.904        0.060      345.367       22.844      860.558
09/02/2013  21:46:00      156.959      118.100       28.204      105.502       75.927       59.568    11130.702     5764.889     3548.337        2.991        1.022      196.427       44.308        0.051      345.340       22.795      860.578
09/02/2013  21:47:00       84.212       86.267        8.260       71.122       48.657       34.365     5058.378     2367.492     1180.939        1.160        0.430      120.555       21.992        0.033      345.308       22.746      860.590
09/02/2013  21:48:00      124.867      130.326        1.340       89.870       93.593       62.456     8076.691     8759.680     3900.755        2.665        1.037      180.490       59.352        0.108      345.317       22.759      860.594
09/02/2013  21:49:00       78.365      117.926        6.643       89.087       93.679       58.924     7936.418     8775.692     3472.095        2.013        1.009      141.590       56.513        0.159      345.301       22.732      860.607
09/02/2013  21:50:00       89.905      123.200        8.251       83.055       77.275       50.302     6898.080     5971.384     2530.322        1.936        0.770      152.516       47.517        0.097      345.262       22.666      860.614
09/02/2013  21:51:00      138.961      117.929       29.245       86.451       65.227       57.029     7473.801     4254.594     3252.326        2.452        0.749      182.256       31.445        0.030      345.266       22.671      860.620
09/02/2013  21:52:00      105.115       61.774       28.876       81.631       48.688       41.077     6663.679     2370.542     1687.302        1.321        0.536      121.923       23.079        0.036      345.218       22.591      860.653
09/02/2013  21:53:00      117.585      100.507       10.365       69.327       56.296       51.822     4806.258     3169.263     2685.546        1.735        0.533      154.686       38.078        0.061      345.212       22.582      860.664
09/02/2013  21:54:00      110.943      103.955       12.372       83.094       74.912       57.756     6904.613     5611.863     3335.722        1.956        0.793      152.036       48.335        0.101      345.206       22.569      860.679
09/02/2013  21:55:00       98.481       76.946        1.780       67.818       77.312       47.510     4599.220     5977.147     2257.247        1.423        0.642      124.977       44.189        0.125      345.189       22.540      860.708
09/02/2013  21:56:00      112.075       78.241       23.682       81.548       58.514       48.720     6650.040     3423.880     2373.590        1.584        0.622      136.684       37.125        0.074      345.180       22.524      860.723
09/02/2013  21:57:00       20.254      133.591      -15.842       35.188       63.544       30.868     1238.213     4037.810      952.833        1.237        0.311      135.118       30.726        0.052      345.157       22.487      860.738
09/02/2013  21:58:00       64.441       95.720      -16.938       62.515       44.167       32.714     3908.132     1950.693     1070.237        1.026        0.346      115.391       20.718        0.032      345.116       22.419      860.748
09/02/2013  21:59:00       14.934      113.064       -9.871       27.965       37.074       24.922      782.059     1374.467      621.101        0.794        0.139      114.046       19.630        0.030      345.121       22.426      860.754
09/02/2013  22:00:00       42.966       67.611       10.003       37.279       22.047       26.736     1389.756      486.053      714.793        0.455        0.130       80.108       17.351        0.047      345.062       22.325      860.737
09/02/2013  22:01:00      140.550       66.561       18.561       89.172       59.872       44.510     7951.725     3584.668     1981.139        1.902        0.676      155.514       31.072        0.040      345.026       22.262      860.745
09/02/2013  22:02:00       20.683       91.144        8.427       58.183       71.772       43.112     3385.228     5151.238     1858.603        0.960        0.520       93.462       39.332        0.177      345.047       22.301      860.738
09/02/2013  22:03:00       70.994      153.392       21.631      105.656      101.118       66.613    11163.096    10224.938     4437.350        2.743        1.291      169.024       64.395        0.145      345.057       22.314      860.734
09/02/2013  22:04:00      138.869      120.902       23.652      128.523       93.949       66.881    16518.143     8826.445     4473.021        3.213        1.491      184.125       51.157        0.077      345.083       22.359      860.750
09/02/2013  22:05:00      116.351      125.302       17.675       83.347       86.219       72.303     6946.743     7433.704     5227.747        2.458        0.980      170.992       60.976        0.127      345.098       22.384      860.762
09/02/2013  22:06:00       50.949       70.301        6.634       60.838       56.890       45.296     3701.321     3236.432     2051.697        0.828        0.449       86.821       26.251        0.091      345.052       22.309      860.763
09/02/2013  22:07:00       68.137       86.974       -6.613       58.674       43.791       32.484     3442.588     1917.687     1055.207        0.933        0.321      110.486       27.426        0.062      345.015       22.242      860.778
09/02/2013  22:08:00       67.501       96.188       -1.075      104.952       52.600       40.053    11014.892     2766.733     1604.247        1.459        0.769      117.509       28.863        0.060      345.017       22.246      860.776
09/02/2013  22:09:00       52.310      100.586        5.458       62.420       65.197       37.057     3896.227     4250.637     1373.256        1.120        0.476      113.375       36.357        0.103      345.009       22.232      860.786
09/02/2013  22:10:00      101.026       84.997       23.542       85.627       44.307       51.271     7331.999     1963.147     2628.714        1.495        0.596      132.026       36.664        0.077      345.011       22.237      860.807
09/02/2013  22:11:00       55.081      114.589        5.053       63.327       77.589       50.538     4010.336     6020.025     2554.133        1.438        0.629      127.140       44.591        0.123      345.036       22.280      860.809
09/02/2013  22:12:00      140.656      110.958       11.589       94.743       64.556       59.750     8976.279     4167.520     3570.018        2.447        0.836      179.153       45.845        0.065      345.053       22.306      860.819
09/02/2013  22:13:00       56.555      101.036       16.932       65.020       87.809       66.318     4227.576     7710.481     4398.034        1.501        0.817      115.788       64.030        0.306      345.071       22.339      860.825
09/02/2013  22:14:00       16.801      202.557      -13.341       55.985      121.994       66.582     3134.321    14882.603     4433.171        3.197        1.123      203.252       71.059        0.122      345.060       22.319      860.836
09/02/2013  22:15:00      -12.885      255.747      -27.294       52.126       66.071       38.490     2717.109     4365.318     1481.461        3.744        0.428      256.071       33.271        0.017      345.096       22.378      860.831
09/02/2013  22:16:00        2.831      190.976      -23.119       47.665      102.404       41.254     2271.997    10486.514     1701.896        2.573        0.723      190.997       56.168        0.086      345.076       22.346      860.842
09/02/2013  22:17:00       39.503      188.891       -7.780       81.625      126.547       57.116     6662.568    16014.172     3262.210        3.161        1.297      192.978       66.204        0.118      345.056       22.313      860.833
09/02/2013  22:18:00       -8.122      222.366      -21.610       69.387       89.604       43.601     4814.606     8028.895     1901.058        3.236        0.737      222.514       47.722        0.046      345.039       22.281      860.845
09/02/2013  22:19:00       38.280      156.914        5.742       75.800       68.575       57.073     5745.706     4702.525     3257.300        1.991        0.685      161.516       42.628        0.070      345.045       22.295      860.856
09/02/2013  22:20:00        2.253      138.601       -3.075       57.122       73.495       42.159     3262.944     5401.456     1777.398        1.483        0.522      138.620       39.797        0.082      345.054       22.311      860.878
09/02/2013  22:21:00       -0.895      163.728      -15.926       38.854       42.881       24.033     1509.645     1838.779      577.601        1.549        0.196      163.730       18.487        0.013      345.050       22.305      860.877
09/02/2013  22:22:00      -19.741      158.056       -5.629       35.425       63.475       32.840     1254.932     4029.122     1078.484        1.588        0.318      159.285       34.208        0.046      345.065       22.331      860.879
09/02/2013  22:23:00      -20.635      105.322       -4.470       39.261       41.027       30.643     1541.445     1683.227      938.995        0.785        0.208      107.325       24.682        0.053      345.105       22.400      860.886
09/02/2013  22:24:00      -10.984      125.938      -11.226       64.186       68.893       32.554     4119.833     4746.243     1059.773        1.301        0.496      126.416       36.566        0.084      345.120       22.423      860.885
09/02/2013  22:25:00       -6.344      135.185       -1.477       49.319       53.677       36.077     2432.320     2881.192     1301.565        1.246        0.331      135.334       33.404        0.061      345.121       22.425      860.874
09/02/2013  22:26:00       25.581      100.970      -11.660       55.283       51.489       33.147     3056.157     2651.167     1098.696        0.889        0.340      104.160       32.830        0.099      345.095       22.383      860.869
09/02/2013  22:27:00       13.335      138.795      -11.007       40.533       95.227       34.712     1642.957     9068.125     1204.894        1.574        0.596      139.434       47.070        0.114      345.072       22.341      860.885
09/02/2013  22:28:00       15.443      200.144      -31.271       42.065       45.508       30.760     1769.471     2070.998      946.159        2.303        0.239      200.739       25.644        0.016      345.077       22.350      860.873
09/02/2013  22:29:00       40.206      112.515       13.467       70.198       70.989       56.472     4927.756     5039.377     3189.055        1.380        0.658      119.483       58.701        0.241      345.067       22.333      860.867
09/02/2013  22:30:00       16.603      125.996       -7.902       47.756       61.886       38.440     2280.672     3829.903     1477.649        1.190        0.379      127.085       38.373        0.091      345.041       22.289      860.873
09/02/2013  22:31:00        3.035       82.737       -7.966       35.442       37.132       30.385     1256.142     1378.772      923.262        0.524        0.178       82.792       22.316        0.073      345.031       22.273      860.860
09/02/2013  22:32:00        2.658      197.713      -17.477       63.817       89.718       41.036     4072.627     8049.248     1683.978        2.660        0.690      197.731       45.427        0.053      345.047       22.296      860.855
09/02/2013  22:33:00       40.505      191.961      -17.267       50.809       83.342       49.351     2581.588     6945.885     2435.522        2.537        0.598      196.188       49.654        0.064      345.065       22.326      860.852
09/02/2013  22:34:00       49.230       48.414       21.923       47.846       38.637       30.338     2289.203     1492.790      920.395        0.497        0.235       69.048       22.180        0.103      345.039       22.285      860.853
09/02/2013  22:35:00       14.276       48.700        9.011       29.521       21.728       27.753      871.514      472.105      770.225        0.238        0.106       50.749       16.997        0.112      344.980       22.184      860.868
09/02/2013  22:36:00        6.177       84.979        0.799       33.952       33.302       24.839     1152.710     1108.995      616.962        0.507        0.144       85.204       26.109        0.094      345.012       22.237      860.880
09/02/2013  22:37:00       -0.130      105.046      -15.667       26.586       28.683       15.338      706.839      822.718      235.258        0.652        0.088      105.046       15.323        0.021      345.030       22.274      860.874
09/02/2013  22:38:00      -17.352       76.798      -10.841       16.442       12.508        9.467      270.341      156.443       89.624        0.342        0.026       78.734        4.430        0.003      345.055       22.314      860.880
09/02/2013  22:39:00      -40.583       46.599       -4.326       26.273       27.548       14.894      690.263      758.866      221.841        0.275        0.084       61.794       11.523        0.035      345.079       22.356      860.884
09/02/2013  22:40:00      -52.369        2.087       -5.983       23.331       28.199       12.194      544.322      795.182      148.695        0.214        0.074       52.410       11.067        0.045      345.087       22.368      860.884
09/02/2013  22:41:00      -59.030       -4.632       -1.502       29.338       32.136       15.881      860.722     1032.746      252.202        0.283        0.107       59.211       14.079        0.057      345.077       22.351      860.894
09/02/2013  22:42:00      -96.420       -6.351       -9.184       42.935       25.027       19.710     1843.412      626.358      388.492        0.614        0.143       96.629       15.720        0.026      345.041       22.287      860.896
09/02/2013  22:43:00      -61.850      -18.685       -1.472       41.195       39.031       18.252     1697.008     1523.425      333.118        0.386        0.178       64.611       17.955        0.077      345.093       22.378      860.897
09/02/2013  22:44:00      -96.802      -25.628       -6.912       37.289       34.220       20.675     1390.500     1170.988      427.468        0.653        0.149      100.136       15.224        0.023      344.977       22.178      860.916
09/02/2013  22:45:00      -85.672        1.375       -9.692       31.560       19.577       20.716      996.020      383.245      429.146        0.462        0.090       85.683       15.190        0.031      344.868       21.994      860.932
09/02/2013  22:46:00     -124.097       -9.737       -9.003       33.793       37.757       21.446     1141.972     1425.627      459.924        0.930        0.151      124.479       15.643        0.016      344.843       21.948      860.922
09/02/2013  22:47:00      -16.000       46.082        6.598       55.521       46.390       24.691     3082.600     2151.988      609.638        0.413        0.292       48.780       25.526        0.274      344.794       21.868      860.926
09/02/2013  22:48:00       81.267       42.867       11.633       52.633       25.178       27.622     2770.229      633.908      762.968        0.637        0.208       91.879       11.881        0.017      344.907       22.059      860.946
09/02/2013  22:49:00       82.338       98.617       79.755       41.875       44.125       40.594     1753.474     1947.029     1647.850        1.411        0.267      128.471       18.467        0.021      344.919       22.078      860.955
09/02/2013  22:50:00       60.898      100.904       84.987       63.984       51.291       37.856     4094.002     2630.764     1433.090        1.463        0.408      117.856       27.871        0.056      344.931       22.100      860.980
09/02/2013  22:51:00       54.941       69.589       54.716       23.600       31.446       34.670      556.952      988.860     1202.019        0.680        0.137       88.663       18.967        0.046      344.926       22.094      861.022
09/02/2013  22:52:00       41.324       45.303       27.254       28.270       28.222       21.261      799.183      796.468      452.040        0.327        0.102       61.319       17.397        0.080      344.881       22.016      861.057
09/02/2013  22:53:00      126.757       75.635        5.312       33.444       31.512       35.617     1118.493      992.987     1268.571        1.260        0.169      147.607       15.618        0.011      345.014       22.243      861.067
09/02/2013  22:54:00       20.877       14.239       -9.142       32.161       48.102       15.347     1034.302     2313.768      235.528        0.215        0.179       25.270       17.154        0.461      344.967       22.162      861.064
09/02/2013  22:55:00       31.447       14.332       -2.098       17.880       44.959       19.348      319.692     2021.310      374.327        0.196        0.136       34.559       11.816        0.117      344.872       21.999      861.075
09/02/2013  22:56:00       32.664       35.281       42.640       17.554       19.154       14.133      308.151      366.869      199.733        0.250        0.044       48.080        6.835        0.020      344.836       21.936      861.091
09/02/2013  22:57:00       61.046       82.432        3.980       29.873       30.898       31.939      892.411      954.697     1020.084        0.670        0.143      102.575       24.761        0.058      344.839       21.943      861.110
09/02/2013  22:58:00       32.141      163.414       -9.604       65.818       52.695       43.421     4332.007     2776.736     1885.379        1.841        0.450      166.545       35.090        0.044      344.854       21.968      861.117
09/02/2013  22:59:00       56.681       64.961        7.489       51.195       45.818       39.344     2620.912     2099.297     1547.971        0.688        0.313       86.213       33.740        0.153      344.812       21.894      861.114
09/02/2013  23:00:00      118.078       69.795       58.901       82.278       57.507       33.903     6769.729     3307.083     1149.443        1.675        0.561      137.163       24.904        0.033      344.782       21.843      861.105
09/02/2013  23:01:00       49.318       26.546        8.634       29.148       20.209       31.613      849.590      408.407      999.372        0.273        0.113       56.009       19.026        0.115      344.699       21.702      861.117
09/02/2013  23:02:00       69.824       42.645       31.874       49.373       36.265       38.227     2437.646     1315.163     1461.283        0.646        0.261       81.816       31.315        0.146      344.651       21.621      861.119
09/02/2013  23:03:00       77.407      109.294        1.594       42.786       94.015       40.102     1830.677     8838.898     1608.180        1.511        0.614      133.930       47.507        0.126      344.672       21.655      861.125
09/02/2013  23:04:00       44.291       99.784        8.721       53.865       54.433       47.014     2901.443     2962.927     2210.330        1.003        0.404      109.172       35.781        0.107      344.683       21.674      861.128
09/02/2013  23:05:00       78.406       76.569        8.797       50.571       25.246       33.707     2557.453      637.381     1136.161        0.821        0.217      109.591       30.419        0.077      344.668       21.650      861.124
09/02/2013  23:06:00       68.352       87.432       -1.760       40.642       48.557       37.346     1651.796     2357.756     1394.716        0.886        0.270      110.979       29.922        0.073      344.656       21.631      861.136
09/02/2013  23:07:00      147.140      136.161        0.398       72.877       58.932       49.117     5311.070     3473.003     2412.506        2.569        0.560      200.474       39.193        0.038      344.811       21.892      861.133
09/02/2013  23:08:00       91.730       66.611       -0.178       59.694       56.419       38.867     3563.428     3183.078     1510.621        1.055        0.413      113.364       30.173        0.071      344.765       21.815      861.149
09/02/2013  23:09:00       55.909       73.177        1.375       40.739       33.428       31.847     1659.640     1117.430     1014.201        0.614        0.190       92.091       20.810        0.051      344.726       21.749      861.178
09/02/2013  23:10:00      100.018       68.868       21.753       24.998       21.479       22.073      624.898      461.358      487.228        0.840        0.079      121.434       10.808        0.008      344.678       21.668      861.194
09/02/2013  23:11:00       91.631       57.264       11.019       38.527       28.936       22.575     1484.332      837.276      509.618        0.731        0.142      108.053       16.671        0.024      344.677       21.665      861.179
09/02/2013  23:12:00       73.905       60.649       16.387       79.683       49.446       42.564     6349.340     2444.939     1811.721        1.001        0.530       95.604       19.442        0.041      344.651       21.622      861.163
09/02/2013  23:13:00       11.859      116.905      -17.911       30.226       31.646       18.705      913.593     1001.497      349.894        0.820        0.113      117.505       10.487        0.008      344.659       21.634      861.144
09/02/2013  23:14:00       25.876      147.541      -22.319       42.037       41.305       24.293     1767.141     1706.132      590.132        1.350        0.203      149.792       26.443        0.031      344.651       21.623      861.130
09/02/2013  23:15:00       25.297       68.425       -5.303       27.174       32.588       21.603      738.442     1061.999      466.702        0.381        0.113       72.951       17.894        0.060      344.573       21.487      861.110
09/02/2013  23:16:00       54.135       53.314        2.321       37.713       33.644       28.376     1422.238     1131.908      805.178        0.457        0.168       75.980       25.525        0.113      344.653       21.626      861.100
09/02/2013  23:17:00       26.969       32.116        8.915       26.692       16.916       15.732      712.484      286.144      247.497        0.154        0.062       41.938       12.643        0.091      344.578       21.499      861.087
09/02/2013  23:18:00       40.575       66.777       -7.774       33.783       44.580       26.518     1141.324     1987.360      703.205        0.500        0.192       78.137       22.988        0.087      344.641       21.604      861.086
09/02/2013  23:19:00       28.276       65.988        1.950       40.980       40.417       27.990     1679.368     1633.513      783.425        0.463        0.205       71.791       28.269        0.155      344.660       21.637      861.089
09/02/2013  23:20:00        8.175       49.561        3.988       21.833       50.770       18.146      476.682     2577.565      329.262        0.296        0.169       50.231       23.034        0.210      344.598       21.531      861.082
09/02/2013  23:21:00       -5.142      134.640       -7.436       30.569       80.470       26.416      934.448     6475.376      697.781        1.316        0.405      134.738       33.521        0.062      344.634       21.590      861.065
09/02/2013  23:22:00       27.173       69.054        6.330       40.672       71.680       36.924     1654.244     5137.969     1363.379        0.685        0.408       74.208       47.026        0.402      344.586       21.508      861.038
09/02/2013  23:23:00       43.333       88.888       -9.197       39.568       53.724       32.800     1565.598     2886.262     1075.859        0.769        0.276       98.888       29.632        0.090      344.664       21.643      861.028
09/02/2013  23:24:00       22.374       43.795       11.686       40.432       23.089       18.977     1634.715      533.115      360.122        0.254        0.126       49.179       11.793        0.058      344.617       21.566      861.039
09/02/2013  23:25:00       -0.357       99.566      -12.512       32.320       56.153       19.146     1044.556     3153.119      366.561        0.732        0.228       99.567       21.134        0.045      344.650       21.619      861.048
09/02/2013  23:26:00      -42.454       86.298      -17.760       25.928       38.118       19.550      672.241     1452.982      382.187        0.604        0.125       96.176       17.937        0.035      344.722       21.743      861.050
09/02/2013  23:27:00      -65.562        6.597        2.658       31.998       28.195       17.367     1023.897      794.976      301.615        0.323        0.106       65.893       15.544        0.056      344.653       21.625      861.051
09/02/2013  23:28:00      -57.136       39.866       -4.650       49.649       37.417       18.885     2465.062     1399.998      356.654        0.455        0.211       69.669       23.189        0.111      344.707       21.717      861.054
09/02/2013  23:29:00     -130.231      -24.438       -5.593       32.908       41.859       23.150     1082.905     1752.216      535.943        1.048        0.169      132.504       19.292        0.021      344.657       21.632      861.062
09/02/2013  23:30:00      -79.004      -44.085        5.691       44.996       34.621       26.008     2024.631     1198.629      676.407        0.606        0.195       90.472       21.695        0.058      344.580       21.499      861.069
09/02/2013  23:31:00      -83.148      -37.452        4.711       50.460       30.906       23.532     2546.225      955.192      553.774        0.620        0.203       91.194       23.116        0.064      344.607       21.547      861.070
09/02/2013  23:32:00      -79.733      -42.887      -11.810       38.705       23.658       17.294     1498.062      559.720      299.076        0.535        0.118       90.535       10.164        0.013      344.628       21.582      861.085
09/02/2013  23:33:00      -51.485      -24.239       -1.790       22.865       19.607       17.974      522.793      384.451      323.058        0.224        0.062       56.905       11.739        0.043      344.624       21.575      861.095
09/02/2013  23:34:00      -77.379        0.421       -1.023       40.864       53.896       23.827     1669.859     2904.781      567.704        0.556        0.257       77.380       21.797        0.079      344.625       21.577      861.102
09/02/2013  23:35:00      -96.042      -11.530       -9.538       38.998       22.984       19.746     1520.824      528.271      389.903        0.594        0.122       96.731       21.864        0.051      344.612       21.555      861.109
09/02/2013  23:36:00      -80.840      -24.397      -12.122       34.228       30.130       19.389     1171.562      907.803      375.922        0.487        0.123       84.441       14.119        0.028      344.552       21.452      861.100
09/02/2013  23:37:00     -120.818      -24.712      -17.164       31.704       17.959       19.452     1005.117      322.542      378.383        0.860        0.085      123.319       18.169        0.022      344.559       21.465      861.070
09/02/2013  23:38:00      -71.114      -25.008       -7.669       27.605       13.504       11.077      762.026      182.362      122.702        0.340        0.053       75.383       13.121        0.030      344.611       21.553      861.053
09/02/2013  23:39:00      -51.234      -15.877       -1.062       21.986       14.386       10.856      483.378      206.946      117.848        0.184        0.040       53.637       12.333        0.053      344.559       21.464      861.038
09/02/2013  23:40:00      -43.918       10.288       -2.851       29.755       26.573       20.047      885.363      706.120      401.863        0.202        0.100       45.106       17.394        0.149      344.577       21.494      861.024
09/02/2013  23:41:00      -18.577        2.004       -2.238       20.817       16.495       15.797      433.335      272.083      249.532        0.065        0.048       18.685       11.287        0.365      344.629       21.584      861.027
09/02/2013  23:42:00      -26.567       26.328       -7.757       18.798       17.264       13.352      353.360      298.046      178.282        0.114        0.041       37.403        8.637        0.053      344.579       21.498      861.039
09/02/2013  23:43:00      -22.804       36.486       -6.389       21.010       19.473       12.519      441.416      379.215      156.720        0.143        0.049       43.026       11.129        0.067      344.678       21.666      861.046
09/02/2013  23:44:00      -63.671      -16.200       -7.129       20.707       12.197       13.247      428.796      148.755      175.480        0.256        0.038       65.699       13.712        0.044      344.557       21.460      861.052
09/02/2013  23:45:00      -87.982      -25.770       -8.888       31.442       32.901       11.465      988.625     1082.465      131.450        0.534        0.110       91.678       11.772        0.016      344.509       21.378      861.065
09/02/2013  23:46:00     -118.408      -48.702        0.044       24.442       16.859       16.380      597.430      284.219      268.291        0.877        0.057      128.033       14.211        0.012      344.494       21.352      861.088
09/02/2013  23:47:00     -107.848      -31.186       -6.568       32.392       23.580       18.617     1049.225      555.994      346.596        0.730        0.098      112.267       15.462        0.019      344.433       21.246      861.117
09/02/2013  23:48:00     -112.734      -32.319       -4.877       29.842       19.425       16.385      890.565      377.347      268.474        0.766        0.077      117.275       14.122        0.014      344.442       21.261      861.137
09/02/2013  23:49:00      -94.110      -35.526       -2.352       37.575       23.100       18.574     1411.865      533.614      345.008        0.621        0.115      100.592       19.438        0.037      344.488       21.339      861.144
09/02/2013  23:50:00      -80.394      -33.317        1.354       46.974       37.006       20.198     2206.558     1369.413      407.960        0.578        0.199       87.024       23.579        0.073      344.440       21.260      861.133
09/02/2013  23:51:00      -77.777      -31.456        6.754       37.087       38.208       23.732     1375.409     1459.877      563.210        0.524        0.170       83.897       17.716        0.045      344.370       21.140      861.112
09/02/2013  23:52:00     -153.739        9.902      -11.098       41.327       31.662       23.715     1707.909     1002.507      562.380        1.356        0.164      154.058       20.941        0.018      344.325       21.064      861.084
09/02/2013  23:53:00     -109.630        4.017       -3.986       41.499       41.539       20.268     1722.150     1725.479      410.785        0.795        0.193      109.704       23.022        0.044      344.344       21.096      861.070
09/02/2013  23:54:00      -73.676      -13.297       -9.564       26.084       34.673       16.562      680.375     1202.200      274.292        0.393        0.108       74.866       13.098        0.031      344.389       21.173      861.080
09/02/2013  23:55:00       13.250      -14.969        9.193       31.301       28.781       15.385      979.756      828.356      236.708        0.126        0.102       19.990        4.010        0.040      344.405       21.200      861.110
09/02/2013  23:56:00        5.748        0.310        5.360       15.538       26.540       20.475      241.428      704.369      419.208        0.071        0.068        5.756       13.951        5.873      344.432       21.245      861.132
09/02/2013  23:57:00       20.041      -37.336        9.347       20.307       45.129       18.056      412.380     2036.599      326.002        0.233        0.139       42.375       26.215        0.383      344.381       21.158      861.138
09/02/2013  23:58:00       20.973      -36.924      -11.173       16.006       31.530       13.780      256.184      994.140      189.888        0.168        0.072       42.465       10.966        0.067      344.428       21.240      861.144
09/02/2013  23:59:00        5.399        1.405       -3.704        9.995       10.084        8.455       99.901      101.685       71.486        0.016        0.014        5.578        2.825        0.257      344.448       21.276      861.159
